Wetterdaten: Sonntag, 23.09.2018
Datum Zeit Temp. A. Pool Temp. Temp. 5cm Feuchte A. Luftdruck Regen Wind Richtung Richtung Sonnenschein ET UV Solar Taupunkt Windchill Windben Empfang
23.09.2018 00:00 12,3 C 20,6 C 12,2 C 85 % 1020,1 hPa 0,0 l/m 2,5 km/h (1 Bft) S-SO 159 0 min 0,000 mm 0,0 UV-I 0 W/m 9,9 C 12,3 C 3,2 km/h (1 Bft) 100,00 %
23.09.2018 00:02 12,2 C 20,6 C 11,7 C 85 % 1020,1 hPa 0,0 l/m 2,8 km/h (1 Bft) S-SO 159 0 min 0,000 mm 0,0 UV-I 0 W/m 9,8 C 12,2 C 6,4 km/h (2 Bft) 100,00 %
23.09.2018 00:04 12,3 C 20,6 C 11,7 C 85 % 1020,1 hPa 0,0 l/m 3,3 km/h (1 Bft) S-SO 162 0 min 0,000 mm 0,0 UV-I 0 W/m 9,9 C 12,3 C 6,4 km/h (2 Bft) 98,00 %
23.09.2018 00:06 12,2 C 20,6 C 11,7 C 85 % 1020,1 hPa 0,0 l/m 2,9 km/h (1 Bft) S-SO 163 0 min 0,000 mm 0,0 UV-I 0 W/m 9,8 C 12,2 C 6,4 km/h (2 Bft) 93,62 %
23.09.2018 00:08 12,3 C 20,6 C 12,2 C 85 % 1020,1 hPa 0,0 l/m 3,1 km/h (1 Bft) S-SO 162 0 min 0,000 mm 0,0 UV-I 0 W/m 9,9 C 12,3 C 6,4 km/h (2 Bft) 100,00 %
23.09.2018 00:10 12,3 C 20,6 C 12,2 C 86 % 1020,0 hPa 0,0 l/m 3,7 km/h (1 Bft) S-SO 159 0 min 0,000 mm 0,0 UV-I 0 W/m 10,0 C 12,3 C 8,0 km/h (2 Bft) 96,23 %
23.09.2018 00:12 12,3 C 20,6 C 12,2 C 87 % 1019,9 hPa 0,0 l/m 5,4 km/h (1 Bft) S-SO 163 0 min 0,000 mm 0,0 UV-I 0 W/m 10,2 C 12,3 C 9,7 km/h (2 Bft) 100,00 %
23.09.2018 00:14 12,3 C 20,6 C 12,2 C 87 % 1019,9 hPa 0,0 l/m 5,9 km/h (2 Bft) S-SO 148 0 min 0,000 mm 0,0 UV-I 0 W/m 10,2 C 12,3 C 8,0 km/h (2 Bft) 94,64 %
23.09.2018 00:16 12,3 C 20,6 C 12,2 C 87 % 1019,8 hPa 0,0 l/m 4,6 km/h (1 Bft) SO 144 0 min 0,000 mm 0,0 UV-I 0 W/m 10,2 C 12,3 C 6,4 km/h (2 Bft) 97,37 %
23.09.2018 00:18 12,3 C 20,6 C 12,2 C 88 % 1019,8 hPa 0,0 l/m 4,6 km/h (1 Bft) S-SO 150 0 min 0,000 mm 0,0 UV-I 0 W/m 10,4 C 12,3 C 6,4 km/h (2 Bft) 92,00 %
23.09.2018 00:20 12,2 C 20,6 C 12,2 C 88 % 1019,8 hPa 0,0 l/m 4,0 km/h (1 Bft) S-SO 164 0 min 0,000 mm 0,0 UV-I 0 W/m 10,3 C 12,2 C 8,0 km/h (2 Bft) 95,74 %
23.09.2018 00:22 12,2 C 20,6 C 12,2 C 88 % 1019,7 hPa 0,0 l/m 6,3 km/h (2 Bft) SO 146 0 min 0,000 mm 0,0 UV-I 0 W/m 10,3 C 12,2 C 8,0 km/h (2 Bft) 96,00 %
23.09.2018 00:24 12,2 C 20,6 C 12,2 C 88 % 1019,7 hPa 0,0 l/m 7,1 km/h (2 Bft) S-SO 157 0 min 0,000 mm 0,0 UV-I 0 W/m 10,3 C 11,7 C 9,7 km/h (2 Bft) 94,44 %
23.09.2018 00:26 12,2 C 20,6 C 12,2 C 88 % 1019,7 hPa 0,0 l/m 6,0 km/h (2 Bft) S-SO 164 0 min 0,000 mm 0,0 UV-I 0 W/m 10,3 C 12,2 C 11,3 km/h (2 Bft) 98,28 %
23.09.2018 00:28 12,2 C 20,6 C 12,2 C 87 % 1019,8 hPa 0,0 l/m 7,0 km/h (2 Bft) S-SO 152 0 min 0,000 mm 0,0 UV-I 0 W/m 10,1 C 11,8 C 11,3 km/h (2 Bft) 93,33 %
23.09.2018 00:30 12,2 C 20,6 C 12,2 C 87 % 1019,8 hPa 0,0 l/m 6,2 km/h (2 Bft) S-SO 158 0 min 0,000 mm 0,0 UV-I 0 W/m 10,1 C 12,2 C 11,3 km/h (2 Bft) 97,87 %
23.09.2018 00:32 12,3 C 20,6 C 12,2 C 87 % 1019,8 hPa 0,0 l/m 3,9 km/h (1 Bft) S-SO 165 0 min 0,000 mm 0,0 UV-I 0 W/m 10,2 C 12,3 C 6,4 km/h (2 Bft) 97,87 %
23.09.2018 00:34 12,3 C 20,6 C 12,2 C 87 % 1019,8 hPa 0,0 l/m 2,8 km/h (1 Bft) S-SO 165 0 min 0,000 mm 0,0 UV-I 0 W/m 10,2 C 12,3 C 6,4 km/h (2 Bft) 97,87 %
23.09.2018 00:36 12,4 C 20,6 C 12,2 C 86 % 1019,8 hPa 0,0 l/m 2,8 km/h (1 Bft) S-SO 165 0 min 0,000 mm 0,0 UV-I 0 W/m 10,1 C 12,4 C 6,4 km/h (2 Bft) 97,37 %
23.09.2018 00:38 12,4 C 20,6 C 12,2 C 87 % 1019,8 hPa 0,0 l/m 1,8 km/h (1 Bft) S-SO 165 0 min 0,000 mm 0,0 UV-I 0 W/m 10,3 C 12,4 C 3,2 km/h (1 Bft) 98,00 %
23.09.2018 00:40 12,4 C 20,6 C 12,2 C 87 % 1019,7 hPa 0,0 l/m 2,3 km/h (1 Bft) S-SO 165 0 min 0,000 mm 0,0 UV-I 0 W/m 10,3 C 12,4 C 3,2 km/h (1 Bft) 95,74 %
23.09.2018 00:42 12,4 C 20,6 C 12,2 C 87 % 1019,7 hPa 0,0 l/m 1,8 km/h (1 Bft) S-SO 165 0 min 0,000 mm 0,0 UV-I 0 W/m 10,3 C 12,4 C 3,2 km/h (1 Bft) 96,00 %
23.09.2018 00:44 12,4 C 20,6 C 12,2 C 87 % 1019,7 hPa 0,0 l/m 2,7 km/h (1 Bft) S-SO 165 0 min 0,000 mm 0,0 UV-I 0 W/m 10,3 C 12,4 C 6,4 km/h (2 Bft) 98,11 %
23.09.2018 00:46 12,4 C 20,6 C 12,2 C 88 % 1019,6 hPa 0,0 l/m 1,3 km/h (1 Bft) S-SO 165 0 min 0,000 mm 0,0 UV-I 0 W/m 10,5 C 12,4 C 3,2 km/h (1 Bft) 97,87 %
23.09.2018 00:48 12,4 C 20,6 C 12,2 C 87 % 1019,7 hPa 0,0 l/m 0,8 km/h (0 Bft) S-SO 165 0 min 0,000 mm 0,0 UV-I 0 W/m 10,3 C 12,4 C 3,2 km/h (1 Bft) 97,37 %
23.09.2018 00:50 12,4 C 20,6 C 12,2 C 87 % 1019,7 hPa 0,0 l/m 0,6 km/h (0 Bft) S-SO 165 0 min 0,000 mm 0,0 UV-I 0 W/m 10,3 C 12,4 C 3,2 km/h (1 Bft) 97,87 %
23.09.2018 00:52 12,3 C 20,6 C 12,2 C 87 % 1019,7 hPa 0,0 l/m 0,6 km/h (0 Bft) S-SO 165 0 min 0,000 mm 0,0 UV-I 0 W/m 10,2 C 12,3 C 1,6 km/h (1 Bft) 97,56 %
23.09.2018 00:54 12,4 C 20,6 C 12,2 C 87 % 1019,7 hPa 0,0 l/m 0,2 km/h (0 Bft) S-SO 165 0 min 0,000 mm 0,0 UV-I 0 W/m 10,3 C 12,4 C 1,6 km/h (1 Bft) 98,11 %
23.09.2018 00:56 12,3 C 20,6 C 12,2 C 87 % 1019,7 hPa 0,0 l/m 0,4 km/h (0 Bft) S-SO 165 0 min 0,000 mm 0,0 UV-I 0 W/m 10,2 C 12,3 C 1,6 km/h (1 Bft) 98,11 %
23.09.2018 00:58 12,3 C 20,6 C 12,2 C 87 % 1019,7 hPa 0,0 l/m 0,2 km/h (0 Bft) S-SO 165 0 min 0,000 mm 0,0 UV-I 0 W/m 10,2 C 12,3 C 1,6 km/h (1 Bft) 97,56 %
23.09.2018 01:00 12,3 C 20,6 C 12,2 C 88 % 1019,5 hPa 0,0 l/m 1,3 km/h (1 Bft) S-SO 165 0 min 0,000 mm 0,0 UV-I 0 W/m 10,4 C 12,3 C 3,2 km/h (1 Bft) 97,87 %
23.09.2018 01:02 12,3 C 20,6 C 12,2 C 88 % 1019,4 hPa 0,0 l/m 3,7 km/h (1 Bft) S-SO 165 0 min 0,000 mm 0,0 UV-I 0 W/m 10,4 C 12,3 C 6,4 km/h (2 Bft) 97,22 %
23.09.2018 01:04 12,3 C 20,6 C 12,2 C 88 % 1019,5 hPa 0,0 l/m 2,7 km/h (1 Bft) S-SO 165 0 min 0,000 mm 0,0 UV-I 0 W/m 10,4 C 12,3 C 3,2 km/h (1 Bft) 96,88 %
23.09.2018 01:06 12,3 C 20,6 C 12,2 C 87 % 1019,5 hPa 0,0 l/m 3,8 km/h (1 Bft) S-SO 161 0 min 0,000 mm 0,0 UV-I 0 W/m 10,2 C 12,3 C 8,0 km/h (2 Bft) 97,87 %
23.09.2018 01:08 12,3 C 20,6 C 12,2 C 87 % 1019,4 hPa 0,0 l/m 4,5 km/h (1 Bft) S-SO 161 0 min 0,000 mm 0,0 UV-I 0 W/m 10,2 C 12,3 C 6,4 km/h (2 Bft) 97,22 %
23.09.2018 01:10 12,3 C 20,6 C 12,2 C 87 % 1019,5 hPa 0,0 l/m 6,1 km/h (2 Bft) S-SO 166 0 min 0,000 mm 0,0 UV-I 0 W/m 10,2 C 12,3 C 8,0 km/h (2 Bft) 94,44 %
23.09.2018 01:12 12,3 C 20,6 C 12,2 C 87 % 1019,6 hPa 0,0 l/m 3,3 km/h (1 Bft) S 176 0 min 0,000 mm 0,0 UV-I 0 W/m 10,2 C 12,3 C 6,4 km/h (2 Bft) 94,44 %
23.09.2018 01:14 12,4 C 20,6 C 12,2 C 87 % 1019,6 hPa 0,0 l/m 2,0 km/h (1 Bft) S 176 0 min 0,000 mm 0,0 UV-I 0 W/m 10,3 C 12,4 C 3,2 km/h (1 Bft) 97,87 %
23.09.2018 01:16 12,4 C 20,6 C 12,2 C 87 % 1019,6 hPa 0,0 l/m 1,9 km/h (1 Bft) S 176 0 min 0,000 mm 0,0 UV-I 0 W/m 10,3 C 12,4 C 3,2 km/h (1 Bft) 97,37 %
23.09.2018 01:18 12,4 C 20,6 C 12,2 C 87 % 1019,7 hPa 0,0 l/m 3,3 km/h (1 Bft) S 185 0 min 0,000 mm 0,0 UV-I 0 W/m 10,3 C 12,4 C 4,8 km/h (1 Bft) 98,21 %
23.09.2018 01:20 12,3 C 20,6 C 12,2 C 87 % 1019,7 hPa 0,0 l/m 3,7 km/h (1 Bft) S 189 0 min 0,000 mm 0,0 UV-I 0 W/m 10,2 C 12,3 C 4,8 km/h (1 Bft) 97,37 %
23.09.2018 01:22 12,3 C 20,6 C 12,2 C 88 % 1019,7 hPa 0,0 l/m 3,6 km/h (1 Bft) S 189 0 min 0,000 mm 0,0 UV-I 0 W/m 10,4 C 12,3 C 4,8 km/h (1 Bft) 98,00 %
23.09.2018 01:24 12,4 C 20,6 C 12,2 C 87 % 1019,8 hPa 0,0 l/m 4,9 km/h (1 Bft) S 182 0 min 0,000 mm 0,0 UV-I 0 W/m 10,3 C 12,4 C 8,0 km/h (2 Bft) 96,55 %
23.09.2018 01:26 12,4 C 20,6 C 12,2 C 87 % 1019,9 hPa 0,0 l/m 3,1 km/h (1 Bft) S 187 0 min 0,000 mm 0,0 UV-I 0 W/m 10,3 C 12,4 C 4,8 km/h (1 Bft) 98,53 %
23.09.2018 01:28 12,4 C 20,6 C 12,2 C 87 % 1019,9 hPa 0,0 l/m 1,6 km/h (1 Bft) S 187 0 min 0,000 mm 0,0 UV-I 0 W/m 10,3 C 12,4 C 3,2 km/h (1 Bft) 95,74 %
23.09.2018 01:30 12,4 C 20,6 C 12,2 C 88 % 1019,8 hPa 0,0 l/m 1,9 km/h (1 Bft) S 187 0 min 0,000 mm 0,0 UV-I 0 W/m 10,5 C 12,4 C 3,2 km/h (1 Bft) 97,37 %
23.09.2018 01:32 12,3 C 20,6 C 12,2 C 88 % 1019,8 hPa 0,0 l/m 2,3 km/h (1 Bft) S 187 0 min 0,000 mm 0,0 UV-I 0 W/m 10,4 C 12,3 C 4,8 km/h (1 Bft) 94,00 %
23.09.2018 01:34 12,3 C 20,6 C 12,2 C 88 % 1019,8 hPa 0,0 l/m 3,9 km/h (1 Bft) S 187 0 min 0,000 mm 0,0 UV-I 0 W/m 10,4 C 12,3 C 6,4 km/h (2 Bft) 94,00 %
23.09.2018 01:36 12,3 C 20,6 C 12,2 C 88 % 1019,8 hPa 0,0 l/m 3,7 km/h (1 Bft) S 188 0 min 0,000 mm 0,0 UV-I 0 W/m 10,4 C 12,3 C 4,8 km/h (1 Bft) 95,12 %
23.09.2018 01:38 12,3 C 20,6 C 12,2 C 89 % 1019,8 hPa 0,0 l/m 4,9 km/h (1 Bft) S-SW 195 0 min 0,000 mm 0,0 UV-I 0 W/m 10,5 C 12,3 C 9,7 km/h (2 Bft) 96,43 %
23.09.2018 01:40 12,3 C 20,6 C 12,2 C 88 % 1019,6 hPa 0,0 l/m 5,3 km/h (1 Bft) S 186 0 min 0,000 mm 0,0 UV-I 0 W/m 10,4 C 12,3 C 6,4 km/h (2 Bft) 95,12 %
23.09.2018 01:42 12,3 C 20,6 C 12,2 C 88 % 1019,6 hPa 0,0 l/m 6,5 km/h (2 Bft) S 173 0 min 0,000 mm 0,0 UV-I 0 W/m 10,4 C 12,3 C 9,7 km/h (2 Bft) 98,11 %
23.09.2018 01:44 12,3 C 20,6 C 12,2 C 87 % 1019,7 hPa 0,0 l/m 6,4 km/h (2 Bft) SW 215 0 min 0,000 mm 0,0 UV-I 0 W/m 10,2 C 12,3 C 9,7 km/h (2 Bft) 97,87 %
23.09.2018 01:46 12,4 C 20,6 C 12,2 C 87 % 1019,8 hPa 0,0 l/m 4,5 km/h (1 Bft) SW 223 0 min 0,000 mm 0,0 UV-I 0 W/m 10,3 C 12,4 C 8,0 km/h (2 Bft) 97,44 %
23.09.2018 01:48 12,4 C 20,6 C 12,2 C 87 % 1019,7 hPa 0,0 l/m 4,7 km/h (1 Bft) W-SW 237 0 min 0,000 mm 0,0 UV-I 0 W/m 10,3 C 12,4 C 6,4 km/h (2 Bft) 95,45 %
23.09.2018 01:50 12,4 C 20,6 C 12,2 C 87 % 1019,7 hPa 0,0 l/m 4,4 km/h (1 Bft) S-SW 206 0 min 0,000 mm 0,0 UV-I 0 W/m 10,3 C 12,4 C 11,3 km/h (2 Bft) 97,87 %
23.09.2018 01:52 12,5 C 20,6 C 12,2 C 86 % 1019,7 hPa 0,0 l/m 6,6 km/h (2 Bft) S 180 0 min 0,000 mm 0,0 UV-I 0 W/m 10,2 C 12,4 C 11,3 km/h (2 Bft) 96,43 %
23.09.2018 01:54 12,5 C 20,6 C 12,2 C 86 % 1019,8 hPa 0,0 l/m 6,6 km/h (2 Bft) S 180 0 min 0,000 mm 0,0 UV-I 0 W/m 10,2 C 12,4 C 8,0 km/h (2 Bft) 97,37 %
23.09.2018 01:56 12,5 C 20,6 C 12,2 C 86 % 1019,7 hPa 0,0 l/m 6,1 km/h (2 Bft) S-SW 202 0 min 0,000 mm 0,0 UV-I 0 W/m 10,2 C 12,5 C 9,7 km/h (2 Bft) 96,43 %
23.09.2018 01:58 12,6 C 20,6 C 12,2 C 85 % 1019,5 hPa 0,0 l/m 5,1 km/h (1 Bft) S-SO 158 0 min 0,000 mm 0,0 UV-I 0 W/m 10,1 C 12,6 C 8,0 km/h (2 Bft) 100,00 %
23.09.2018 02:00 12,6 C 20,6 C 12,2 C 85 % 1019,6 hPa 0,0 l/m 7,0 km/h (2 Bft) S-SO 155 0 min 0,000 mm 0,0 UV-I 0 W/m 10,1 C 12,2 C 9,7 km/h (2 Bft) 98,00 %
23.09.2018 02:02 12,6 C 20,6 C 12,2 C 85 % 1019,7 hPa 0,0 l/m 5,5 km/h (1 Bft) W 261 0 min 0,000 mm 0,0 UV-I 0 W/m 10,1 C 12,6 C 8,0 km/h (2 Bft) 100,00 %
23.09.2018 02:04 12,7 C 20,6 C 11,7 C 84 % 1019,7 hPa 0,0 l/m 3,5 km/h (1 Bft) W 262 0 min 0,000 mm 0,0 UV-I 0 W/m 10,1 C 12,7 C 4,8 km/h (1 Bft) 100,00 %
23.09.2018 02:06 12,7 C 20,6 C 11,7 C 85 % 1019,7 hPa 0,0 l/m 4,4 km/h (1 Bft) W-NW 301 0 min 0,000 mm 0,0 UV-I 0 W/m 10,2 C 12,7 C 6,4 km/h (2 Bft) 97,87 %
23.09.2018 02:08 12,4 C 20,6 C 11,7 C 87 % 1019,8 hPa 0,0 l/m 2,8 km/h (1 Bft) W-NW 302 0 min 0,000 mm 0,0 UV-I 0 W/m 10,3 C 12,4 C 6,4 km/h (2 Bft) 100,00 %
23.09.2018 02:10 12,3 C 20,6 C 11,7 C 88 % 1019,8 hPa 0,0 l/m 2,3 km/h (1 Bft) W-NW 302 0 min 0,000 mm 0,0 UV-I 0 W/m 10,4 C 12,3 C 3,2 km/h (1 Bft) 100,00 %
23.09.2018 02:12 12,3 C 20,6 C 11,7 C 89 % 1019,8 hPa 0,0 l/m 3,1 km/h (1 Bft) W 263 0 min 0,000 mm 0,0 UV-I 0 W/m 10,5 C 12,3 C 4,8 km/h (1 Bft) 98,11 %
23.09.2018 02:14 12,3 C 20,6 C 11,7 C 89 % 1019,8 hPa 0,0 l/m 3,7 km/h (1 Bft) W-SW 246 0 min 0,000 mm 0,0 UV-I 0 W/m 10,5 C 12,3 C 4,8 km/h (1 Bft) 100,00 %
23.09.2018 02:16 12,3 C 20,6 C 12,2 C 89 % 1019,7 hPa 0,0 l/m 3,6 km/h (1 Bft) W-SW 239 0 min 0,000 mm 0,0 UV-I 0 W/m 10,5 C 12,3 C 4,8 km/h (1 Bft) 100,00 %
23.09.2018 02:18 12,3 C 20,6 C 12,2 C 89 % 1019,8 hPa 0,0 l/m 3,6 km/h (1 Bft) W-SW 238 0 min 0,000 mm 0,0 UV-I 0 W/m 10,5 C 12,3 C 6,4 km/h (2 Bft) 97,87 %
23.09.2018 02:20 12,3 C 20,6 C 12,2 C 89 % 1019,7 hPa 0,0 l/m 4,2 km/h (1 Bft) S-SW 203 0 min 0,000 mm 0,0 UV-I 0 W/m 10,5 C 12,3 C 8,0 km/h (2 Bft) 100,00 %
23.09.2018 02:22 12,3 C 20,6 C 12,2 C 89 % 1019,7 hPa 0,0 l/m 4,7 km/h (1 Bft) SW 232 0 min 0,000 mm 0,0 UV-I 0 W/m 10,5 C 12,3 C 6,4 km/h (2 Bft) 100,00 %
23.09.2018 02:24 12,3 C 20,6 C 12,2 C 89 % 1019,7 hPa 0,0 l/m 3,4 km/h (1 Bft) SW 225 0 min 0,000 mm 0,0 UV-I 0 W/m 10,5 C 12,3 C 4,8 km/h (1 Bft) 100,00 %
23.09.2018 02:26 12,4 C 20,6 C 12,2 C 89 % 1019,7 hPa 0,0 l/m 3,5 km/h (1 Bft) SW 221 0 min 0,000 mm 0,0 UV-I 0 W/m 10,6 C 12,4 C 6,4 km/h (2 Bft) 97,92 %
23.09.2018 02:28 12,4 C 20,6 C 11,7 C 88 % 1019,7 hPa 0,0 l/m 4,6 km/h (1 Bft) W-SW 246 0 min 0,000 mm 0,0 UV-I 0 W/m 10,5 C 12,4 C 6,4 km/h (2 Bft) 100,00 %
23.09.2018 02:30 12,5 C 20,6 C 11,7 C 87 % 1019,7 hPa 0,0 l/m 2,0 km/h (1 Bft) W-SW 246 0 min 0,000 mm 0,0 UV-I 0 W/m 10,4 C 12,5 C 3,2 km/h (1 Bft) 100,00 %
23.09.2018 02:32 12,4 C 20,6 C 11,7 C 88 % 1019,7 hPa 0,0 l/m 0,9 km/h (0 Bft) W-SW 246 0 min 0,000 mm 0,0 UV-I 0 W/m 10,5 C 12,4 C 3,2 km/h (1 Bft) 100,00 %
23.09.2018 02:34 12,4 C 20,6 C 11,7 C 88 % 1019,7 hPa 0,0 l/m 1,6 km/h (1 Bft) W-SW 246 0 min 0,000 mm 0,0 UV-I 0 W/m 10,5 C 12,4 C 3,2 km/h (1 Bft) 98,00 %
23.09.2018 02:36 12,3 C 20,6 C 11,7 C 88 % 1019,7 hPa 0,0 l/m 1,0 km/h (0 Bft) W-SW 246 0 min 0,000 mm 0,0 UV-I 0 W/m 10,4 C 12,3 C 3,2 km/h (1 Bft) 100,00 %
23.09.2018 02:38 12,3 C 20,6 C 11,7 C 89 % 1019,6 hPa 0,0 l/m 1,1 km/h (1 Bft) SW 225 0 min 0,000 mm 0,0 UV-I 0 W/m 10,5 C 12,3 C 3,2 km/h (1 Bft) 100,00 %
23.09.2018 02:40 12,3 C 20,6 C 11,7 C 89 % 1019,6 hPa 0,0 l/m 2,3 km/h (1 Bft) SW 225 0 min 0,000 mm 0,0 UV-I 0 W/m 10,5 C 12,3 C 4,8 km/h (1 Bft) 100,00 %
23.09.2018 02:42 12,4 C 20,6 C 11,7 C 88 % 1019,6 hPa 0,0 l/m 2,6 km/h (1 Bft) SW 223 0 min 0,000 mm 0,0 UV-I 0 W/m 10,5 C 12,4 C 4,8 km/h (1 Bft) 97,87 %
23.09.2018 02:44 12,4 C 20,6 C 11,7 C 88 % 1019,7 hPa 0,0 l/m 4,1 km/h (1 Bft) SW 223 0 min 0,000 mm 0,0 UV-I 0 W/m 10,5 C 12,4 C 8,0 km/h (2 Bft) 100,00 %
23.09.2018 02:46 12,4 C 20,6 C 11,7 C 88 % 1019,6 hPa 0,0 l/m 5,8 km/h (2 Bft) SW 216 0 min 0,000 mm 0,0 UV-I 0 W/m 10,5 C 12,4 C 9,7 km/h (2 Bft) 100,00 %
23.09.2018 02:48 12,4 C 20,6 C 11,7 C 88 % 1019,7 hPa 0,0 l/m 4,7 km/h (1 Bft) SW 215 0 min 0,000 mm 0,0 UV-I 0 W/m 10,5 C 12,4 C 8,0 km/h (2 Bft) 98,00 %
23.09.2018 02:50 12,4 C 20,6 C 11,7 C 88 % 1019,7 hPa 0,0 l/m 3,7 km/h (1 Bft) SW 223 0 min 0,000 mm 0,0 UV-I 0 W/m 10,5 C 12,4 C 8,0 km/h (2 Bft) 100,00 %
23.09.2018 02:52 12,4 C 20,6 C 11,7 C 88 % 1019,7 hPa 0,0 l/m 2,3 km/h (1 Bft) SW 223 0 min 0,000 mm 0,0 UV-I 0 W/m 10,5 C 12,4 C 3,2 km/h (1 Bft) 100,00 %
23.09.2018 02:54 12,4 C 20,6 C 11,7 C 88 % 1019,6 hPa 0,0 l/m 1,0 km/h (0 Bft) SW 223 0 min 0,000 mm 0,0 UV-I 0 W/m 10,5 C 12,4 C 3,2 km/h (1 Bft) 100,00 %
23.09.2018 02:56 12,3 C 20,6 C 11,7 C 89 % 1019,6 hPa 0,0 l/m 1,2 km/h (1 Bft) SW 223 0 min 0,000 mm 0,0 UV-I 0 W/m 10,5 C 12,3 C 3,2 km/h (1 Bft) 97,92 %
23.09.2018 02:58 12,3 C 20,6 C 11,7 C 89 % 1019,5 hPa 0,0 l/m 1,2 km/h (1 Bft) SW 223 0 min 0,000 mm 0,0 UV-I 0 W/m 10,5 C 12,3 C 3,2 km/h (1 Bft) 97,87 %
23.09.2018 03:00 12,2 C 20,6 C 11,7 C 89 % 1019,5 hPa 0,0 l/m 0,7 km/h (0 Bft) SW 223 0 min 0,000 mm 0,0 UV-I 0 W/m 10,4 C 12,2 C 1,6 km/h (1 Bft) 98,00 %
23.09.2018 03:02 12,2 C 20,6 C 11,7 C 90 % 1019,5 hPa 0,0 l/m 0,0 km/h (0 Bft) SW 223 0 min 0,000 mm 0,0 UV-I 0 W/m 10,6 C 12,2 C 0,0 km/h (0 Bft) 98,00 %
23.09.2018 03:04 12,2 C 20,6 C 11,7 C 90 % 1019,5 hPa 0,0 l/m 2,1 km/h (1 Bft) SW 223 0 min 0,000 mm 0,0 UV-I 0 W/m 10,6 C 12,2 C 3,2 km/h (1 Bft) 95,12 %
23.09.2018 03:06 12,2 C 20,6 C 11,7 C 90 % 1019,5 hPa 0,0 l/m 3,1 km/h (1 Bft) SW 223 0 min 0,000 mm 0,0 UV-I 0 W/m 10,6 C 12,2 C 4,8 km/h (1 Bft) 98,00 %
23.09.2018 03:08 12,2 C 20,6 C 11,7 C 90 % 1019,5 hPa 0,0 l/m 4,2 km/h (1 Bft) SW 225 0 min 0,000 mm 0,0 UV-I 0 W/m 10,6 C 12,2 C 6,4 km/h (2 Bft) 98,00 %
23.09.2018 03:10 12,3 C 20,6 C 11,7 C 90 % 1019,6 hPa 0,0 l/m 6,1 km/h (2 Bft) W-SW 243 0 min 0,000 mm 0,0 UV-I 0 W/m 10,7 C 12,3 C 8,0 km/h (2 Bft) 93,62 %
23.09.2018 03:12 12,3 C 20,6 C 11,7 C 90 % 1019,6 hPa 0,0 l/m 8,2 km/h (2 Bft) W-SW 250 0 min 0,000 mm 0,0 UV-I 0 W/m 10,7 C 11,1 C 16,1 km/h (3 Bft) 93,62 %
23.09.2018 03:14 12,3 C 20,6 C 11,7 C 90 % 1019,7 hPa 0,0 l/m 11,1 km/h (2 Bft) W-SW 242 0 min 0,000 mm 0,0 UV-I 0 W/m 10,7 C 9,6 C 19,3 km/h (3 Bft) 97,56 %
23.09.2018 03:16 12,4 C 20,6 C 11,7 C 89 % 1019,7 hPa 0,0 l/m 12,0 km/h (2 Bft) SW 219 0 min 0,000 mm 0,0 UV-I 0 W/m 10,6 C 9,3 C 20,9 km/h (4 Bft) 94,00 %
23.09.2018 03:18 12,5 C 20,6 C 11,7 C 89 % 1019,7 hPa 0,0 l/m 10,5 km/h (2 Bft) W-SW 249 0 min 0,000 mm 0,0 UV-I 0 W/m 10,7 C 10,1 C 17,7 km/h (3 Bft) 95,12 %
23.09.2018 03:20 12,6 C 20,6 C 11,7 C 88 % 1019,7 hPa 0,0 l/m 13,5 km/h (3 Bft) W-SW 239 0 min 0,000 mm 0,0 UV-I 0 W/m 10,7 C 8,9 C 24,1 km/h (4 Bft) 96,23 %
23.09.2018 03:22 12,6 C 20,6 C 11,7 C 87 % 1019,6 hPa 0,0 l/m 15,5 km/h (3 Bft) W-SW 254 0 min 0,000 mm 0,0 UV-I 0 W/m 10,5 C 8,1 C 22,5 km/h (4 Bft) 97,56 %
23.09.2018 03:24 12,7 C 20,6 C 11,7 C 87 % 1019,7 hPa 0,0 l/m 12,4 km/h (3 Bft) W-SW 237 0 min 0,000 mm 0,0 UV-I 0 W/m 10,6 C 9,4 C 20,9 km/h (4 Bft) 96,00 %
23.09.2018 03:26 12,7 C 20,6 C 11,7 C 86 % 1019,7 hPa 0,0 l/m 13,4 km/h (3 Bft) W-SW 241 0 min 0,000 mm 0,0 UV-I 0 W/m 10,4 C 9,0 C 20,9 km/h (4 Bft) 98,00 %
23.09.2018 03:28 12,7 C 20,6 C 11,7 C 86 % 1019,7 hPa 0,0 l/m 12,8 km/h (3 Bft) S-SW 211 0 min 0,000 mm 0,0 UV-I 0 W/m 10,4 C 9,3 C 16,1 km/h (3 Bft) 97,37 %
23.09.2018 03:30 12,7 C 20,6 C 11,7 C 85 % 1019,8 hPa 0,0 l/m 12,6 km/h (3 Bft) SW 223 0 min 0,000 mm 0,0 UV-I 0 W/m 10,2 C 9,4 C 19,3 km/h (3 Bft) 96,43 %
23.09.2018 03:32 12,7 C 20,6 C 11,7 C 85 % 1019,7 hPa 0,0 l/m 12,1 km/h (2 Bft) W-SW 254 0 min 0,000 mm 0,0 UV-I 0 W/m 10,2 C 9,6 C 19,3 km/h (3 Bft) 100,00 %
23.09.2018 03:34 12,8 C 20,0 C 11,7 C 85 % 1019,8 hPa 0,0 l/m 15,4 km/h (3 Bft) S-SW 198 0 min 0,000 mm 0,0 UV-I 0 W/m 10,3 C 8,4 C 24,1 km/h (4 Bft) 97,01 %
23.09.2018 03:36 12,8 C 20,0 C 11,7 C 85 % 1019,8 hPa 0,0 l/m 14,1 km/h (3 Bft) SW 223 0 min 0,000 mm 0,0 UV-I 0 W/m 10,3 C 8,9 C 20,9 km/h (4 Bft) 97,44 %
23.09.2018 03:38 12,7 C 20,0 C 11,7 C 85 % 1019,7 hPa 0,0 l/m 13,9 km/h (3 Bft) S-SW 198 0 min 0,000 mm 0,0 UV-I 0 W/m 10,2 C 8,8 C 22,5 km/h (4 Bft) 97,37 %
23.09.2018 03:40 12,7 C 20,0 C 11,7 C 84 % 1019,8 hPa 0,0 l/m 15,4 km/h (3 Bft) S-SW 200 0 min 0,000 mm 0,0 UV-I 0 W/m 10,1 C 8,3 C 25,7 km/h (4 Bft) 98,46 %
23.09.2018 03:42 12,7 C 20,0 C 11,7 C 83 % 1019,8 hPa 0,0 l/m 25,1 km/h (4 Bft) W 259 0 min 0,000 mm 0,0 UV-I 0 W/m 9,9 C 5,5 C 37,0 km/h (5 Bft) 100,00 %
23.09.2018 03:44 12,8 C 20,0 C 11,7 C 83 % 1019,7 hPa 0,2 l/m 22,5 km/h (4 Bft) W-SW 257 0 min 0,000 mm 0,0 UV-I 0 W/m 10,0 C 6,2 C 32,2 km/h (5 Bft) 100,00 %
23.09.2018 03:46 12,7 C 20,0 C 11,1 C 82 % 1019,7 hPa 0,0 l/m 21,5 km/h (4 Bft) W 260 0 min 0,000 mm 0,0 UV-I 0 W/m 9,7 C 6,4 C 29,0 km/h (5 Bft) 100,00 %
23.09.2018 03:48 12,7 C 20,0 C 11,1 C 82 % 1019,8 hPa 0,0 l/m 20,0 km/h (4 Bft) W 277 0 min 0,000 mm 0,0 UV-I 0 W/m 9,7 C 6,8 C 32,2 km/h (5 Bft) 97,50 %
23.09.2018 03:50 12,7 C 20,0 C 11,1 C 83 % 1019,8 hPa 0,0 l/m 19,5 km/h (3 Bft) W-SW 258 0 min 0,000 mm 0,0 UV-I 0 W/m 9,9 C 6,9 C 30,6 km/h (5 Bft) 94,00 %
23.09.2018 03:52 12,6 C 20,0 C 11,1 C 83 % 1019,8 hPa 0,0 l/m 16,0 km/h (3 Bft) W-NW 295 0 min 0,000 mm 0,0 UV-I 0 W/m 9,8 C 7,9 C 27,4 km/h (4 Bft) 97,73 %
23.09.2018 03:54 12,6 C 20,0 C 11,1 C 84 % 1019,8 hPa 0,0 l/m 20,5 km/h (4 Bft) W 267 0 min 0,000 mm 0,0 UV-I 0 W/m 10,0 C 6,5 C 27,4 km/h (4 Bft) 98,04 %
23.09.2018 03:56 12,4 C 20,0 C 11,1 C 84 % 1019,9 hPa 0,0 l/m 16,1 km/h (3 Bft) W 265 0 min 0,000 mm 0,0 UV-I 0 W/m 9,8 C 7,6 C 24,1 km/h (4 Bft) 98,11 %
23.09.2018 03:58 12,4 C 20,0 C 11,1 C 85 % 1019,9 hPa 0,0 l/m 16,9 km/h (3 Bft) W-SW 252 0 min 0,000 mm 0,0 UV-I 0 W/m 9,9 C 7,4 C 24,1 km/h (4 Bft) 97,14 %
23.09.2018 04:00 12,3 C 20,0 C 11,1 C 85 % 1019,9 hPa 0,2 l/m 13,5 km/h (3 Bft) W 278 0 min 0,025 mm 0,0 UV-I 0 W/m 9,9 C 8,5 C 22,5 km/h (4 Bft) 96,43 %
23.09.2018 04:02 12,3 C 20,0 C 11,1 C 86 % 1019,9 hPa 0,0 l/m 13,5 km/h (3 Bft) W-SW 250 0 min 0,000 mm 0,0 UV-I 0 W/m 10,0 C 8,5 C 19,3 km/h (3 Bft) 100,00 %
23.09.2018 04:04 12,2 C 20,0 C 11,1 C 86 % 1019,9 hPa 0,0 l/m 11,6 km/h (2 Bft) W 267 0 min 0,000 mm 0,0 UV-I 0 W/m 9,9 C 9,2 C 17,7 km/h (3 Bft) 95,83 %
23.09.2018 04:06 12,2 C 20,0 C 11,1 C 87 % 1019,9 hPa 0,0 l/m 12,8 km/h (3 Bft) W 276 0 min 0,000 mm 0,0 UV-I 0 W/m 10,1 C 8,7 C 17,7 km/h (3 Bft) 96,88 %
23.09.2018 04:08 12,1 C 20,0 C 11,1 C 87 % 1019,8 hPa 0,2 l/m 9,2 km/h (2 Bft) W 265 0 min 0,000 mm 0,0 UV-I 0 W/m 10,0 C 10,3 C 14,5 km/h (3 Bft) 96,23 %
23.09.2018 04:10 12,1 C 20,0 C 11,1 C 88 % 1019,8 hPa 0,0 l/m 10,0 km/h (2 Bft) W 275 0 min 0,000 mm 0,0 UV-I 0 W/m 10,2 C 9,9 C 16,1 km/h (3 Bft) 97,87 %
23.09.2018 04:12 12,0 C 20,0 C 11,1 C 88 % 1019,9 hPa 0,0 l/m 13,1 km/h (3 Bft) W 271 0 min 0,000 mm 0,0 UV-I 0 W/m 10,1 C 8,3 C 19,3 km/h (3 Bft) 97,22 %
23.09.2018 04:14 12,0 C 20,0 C 11,1 C 88 % 1019,9 hPa 0,0 l/m 11,2 km/h (2 Bft) SW 223 0 min 0,000 mm 0,0 UV-I 0 W/m 10,1 C 9,2 C 20,9 km/h (4 Bft) 98,00 %
23.09.2018 04:16 11,9 C 20,0 C 11,1 C 88 % 1019,9 hPa 0,0 l/m 10,9 km/h (2 Bft) W 259 0 min 0,000 mm 0,0 UV-I 0 W/m 10,0 C 9,2 C 16,1 km/h (3 Bft) 94,23 %
23.09.2018 04:18 11,9 C 20,0 C 11,1 C 89 % 1019,9 hPa 0,0 l/m 12,9 km/h (3 Bft) W-SW 254 0 min 0,000 mm 0,0 UV-I 0 W/m 10,1 C 8,3 C 17,7 km/h (3 Bft) 97,62 %
23.09.2018 04:20 11,8 C 20,0 C 11,1 C 89 % 1019,8 hPa 0,0 l/m 9,2 km/h (2 Bft) W-SW 237 0 min 0,000 mm 0,0 UV-I 0 W/m 10,0 C 10,0 C 16,1 km/h (3 Bft) 98,11 %
23.09.2018 04:22 11,8 C 20,0 C 11,1 C 89 % 1019,8 hPa 0,0 l/m 8,8 km/h (2 Bft) W 276 0 min 0,000 mm 0,0 UV-I 0 W/m 10,0 C 10,3 C 12,9 km/h (3 Bft) 94,74 %
23.09.2018 04:24 11,8 C 20,0 C 11,1 C 90 % 1019,9 hPa 0,0 l/m 8,2 km/h (2 Bft) W 262 0 min 0,000 mm 0,0 UV-I 0 W/m 10,2 C 10,6 C 12,9 km/h (3 Bft) 96,00 %
23.09.2018 04:26 11,8 C 20,0 C 11,1 C 90 % 1019,8 hPa 0,0 l/m 7,6 km/h (2 Bft) W 273 0 min 0,000 mm 0,0 UV-I 0 W/m 10,2 C 11,0 C 12,9 km/h (3 Bft) 93,62 %
23.09.2018 04:28 11,7 C 20,0 C 11,1 C 90 % 1019,9 hPa 0,0 l/m 9,7 km/h (2 Bft) W 259 0 min 0,000 mm 0,0 UV-I 0 W/m 10,1 C 9,6 C 14,5 km/h (3 Bft) 95,74 %
23.09.2018 04:30 11,7 C 20,0 C 11,1 C 90 % 1019,9 hPa 0,0 l/m 7,6 km/h (2 Bft) W 261 0 min 0,000 mm 0,0 UV-I 0 W/m 10,1 C 10,9 C 11,3 km/h (2 Bft) 94,34 %
23.09.2018 04:32 11,7 C 20,0 C 11,1 C 90 % 1019,8 hPa 0,0 l/m 7,8 km/h (2 Bft) W 261 0 min 0,000 mm 0,0 UV-I 0 W/m 10,1 C 10,8 C 11,3 km/h (2 Bft) 97,14 %
23.09.2018 04:34 11,7 C 20,0 C 11,1 C 90 % 1019,8 hPa 0,0 l/m 4,6 km/h (1 Bft) SW 232 0 min 0,000 mm 0,0 UV-I 0 W/m 10,1 C 11,7 C 6,4 km/h (2 Bft) 94,64 %
23.09.2018 04:36 11,6 C 20,0 C 11,1 C 91 % 1019,8 hPa 0,0 l/m 6,7 km/h (2 Bft) SW 224 0 min 0,000 mm 0,0 UV-I 0 W/m 10,2 C 11,4 C 9,7 km/h (2 Bft) 94,00 %
23.09.2018 04:38 11,6 C 20,0 C 11,1 C 91 % 1019,8 hPa 0,0 l/m 7,9 km/h (2 Bft) S-SW 206 0 min 0,000 mm 0,0 UV-I 0 W/m 10,2 C 10,6 C 11,3 km/h (2 Bft) 94,29 %
23.09.2018 04:40 11,6 C 20,0 C 11,1 C 91 % 1019,8 hPa 0,2 l/m 9,0 km/h (2 Bft) S-SW 209 0 min 0,000 mm 0,0 UV-I 0 W/m 10,2 C 9,9 C 12,9 km/h (3 Bft) 96,00 %
23.09.2018 04:42 11,6 C 20,0 C 11,1 C 91 % 1019,7 hPa 0,0 l/m 10,1 km/h (2 Bft) S-SW 207 0 min 0,000 mm 0,0 UV-I 0 W/m 10,2 C 9,3 C 16,1 km/h (3 Bft) 95,74 %
23.09.2018 04:44 11,6 C 20,0 C 11,1 C 91 % 1019,7 hPa 0,0 l/m 6,8 km/h (2 Bft) S-SW 213 0 min 0,000 mm 0,0 UV-I 0 W/m 10,2 C 11,3 C 11,3 km/h (2 Bft) 96,00 %
23.09.2018 04:46 11,6 C 20,0 C 11,1 C 91 % 1019,7 hPa 0,0 l/m 8,7 km/h (2 Bft) SW 229 0 min 0,000 mm 0,0 UV-I 0 W/m 10,2 C 10,1 C 16,1 km/h (3 Bft) 95,45 %
23.09.2018 04:48 11,6 C 20,0 C 11,1 C 91 % 1019,7 hPa 0,0 l/m 9,6 km/h (2 Bft) W 260 0 min 0,000 mm 0,0 UV-I 0 W/m 10,2 C 9,6 C 17,7 km/h (3 Bft) 98,11 %
23.09.2018 04:50 11,5 C 20,0 C 11,1 C 91 % 1019,6 hPa 0,0 l/m 9,6 km/h (2 Bft) S-SW 209 0 min 0,000 mm 0,0 UV-I 0 W/m 10,1 C 9,5 C 16,1 km/h (3 Bft) 95,12 %
23.09.2018 04:52 11,5 C 20,0 C 11,1 C 91 % 1019,7 hPa 0,0 l/m 11,8 km/h (2 Bft) SW 221 0 min 0,000 mm 0,0 UV-I 0 W/m 10,1 C 8,3 C 17,7 km/h (3 Bft) 100,00 %
23.09.2018 04:54 11,6 C 20,0 C 11,1 C 91 % 1019,7 hPa 0,0 l/m 11,3 km/h (2 Bft) SW 217 0 min 0,000 mm 0,0 UV-I 0 W/m 10,2 C 8,7 C 17,7 km/h (3 Bft) 100,00 %
23.09.2018 04:56 11,6 C 20,0 C 11,1 C 91 % 1019,7 hPa 0,0 l/m 11,2 km/h (2 Bft) W-SW 255 0 min 0,000 mm 0,0 UV-I 0 W/m 10,2 C 8,7 C 19,3 km/h (3 Bft) 97,87 %
23.09.2018 04:58 11,6 C 20,0 C 11,1 C 91 % 1019,7 hPa 0,0 l/m 8,4 km/h (2 Bft) W-SW 241 0 min 0,000 mm 0,0 UV-I 0 W/m 10,2 C 10,3 C 12,9 km/h (3 Bft) 100,00 %
23.09.2018 05:00 11,6 C 20,0 C 11,1 C 91 % 1019,6 hPa 0,0 l/m 8,3 km/h (2 Bft) SW 232 0 min 0,026 mm 0,0 UV-I 0 W/m 10,2 C 10,3 C 12,9 km/h (3 Bft) 100,00 %
23.09.2018 05:02 11,6 C 20,0 C 11,1 C 91 % 1019,6 hPa 0,0 l/m 10,5 km/h (2 Bft) S-SW 207 0 min 0,000 mm 0,0 UV-I 0 W/m 10,2 C 9,1 C 17,7 km/h (3 Bft) 100,00 %
23.09.2018 05:04 11,5 C 20,0 C 11,1 C 91 % 1019,6 hPa 0,0 l/m 7,9 km/h (2 Bft) W-SW 254 0 min 0,000 mm 0,0 UV-I 0 W/m 10,1 C 10,5 C 9,7 km/h (2 Bft) 96,00 %
23.09.2018 05:06 11,5 C 20,0 C 11,1 C 92 % 1019,6 hPa 0,0 l/m 9,5 km/h (2 Bft) W-SW 257 0 min 0,000 mm 0,0 UV-I 0 W/m 10,2 C 9,5 C 17,7 km/h (3 Bft) 98,00 %
23.09.2018 05:08 11,5 C 20,0 C 11,1 C 92 % 1019,6 hPa 0,0 l/m 9,2 km/h (2 Bft) SW 224 0 min 0,000 mm 0,0 UV-I 0 W/m 10,2 C 9,7 C 14,5 km/h (3 Bft) 100,00 %
23.09.2018 05:10 11,4 C 20,0 C 11,1 C 92 % 1019,7 hPa 0,0 l/m 10,8 km/h (2 Bft) SW 229 0 min 0,000 mm 0,0 UV-I 0 W/m 10,1 C 8,7 C 16,1 km/h (3 Bft) 100,00 %
23.09.2018 05:12 11,4 C 20,0 C 11,1 C 92 % 1019,7 hPa 0,0 l/m 11,9 km/h (2 Bft) SW 236 0 min 0,000 mm 0,0 UV-I 0 W/m 10,1 C 8,2 C 16,1 km/h (3 Bft) 100,00 %
23.09.2018 05:14 11,4 C 20,0 C 11,1 C 92 % 1019,7 hPa 0,0 l/m 10,9 km/h (2 Bft) SW 231 0 min 0,000 mm 0,0 UV-I 0 W/m 10,1 C 8,7 C 16,1 km/h (3 Bft) 96,00 %
23.09.2018 05:16 11,4 C 20,0 C 11,1 C 92 % 1019,6 hPa 0,0 l/m 8,4 km/h (2 Bft) SW 219 0 min 0,000 mm 0,0 UV-I 0 W/m 10,1 C 10,1 C 12,9 km/h (3 Bft) 97,87 %
23.09.2018 05:18 11,4 C 20,0 C 11,1 C 92 % 1019,6 hPa 0,0 l/m 8,2 km/h (2 Bft) W-SW 246 0 min 0,000 mm 0,0 UV-I 0 W/m 10,1 C 10,2 C 12,9 km/h (3 Bft) 97,83 %
23.09.2018 05:20 11,4 C 20,0 C 11,1 C 92 % 1019,6 hPa 0,0 l/m 7,0 km/h (2 Bft) SW 233 0 min 0,000 mm 0,0 UV-I 0 W/m 10,1 C 11,0 C 12,9 km/h (3 Bft) 97,37 %
23.09.2018 05:22 11,3 C 20,0 C 11,1 C 92 % 1019,6 hPa 0,0 l/m 8,2 km/h (2 Bft) SW 229 0 min 0,000 mm 0,0 UV-I 0 W/m 10,0 C 10,1 C 16,1 km/h (3 Bft) 98,00 %
23.09.2018 05:24 11,3 C 20,0 C 11,1 C 93 % 1019,6 hPa 0,0 l/m 8,3 km/h (2 Bft) S-SW 205 0 min 0,000 mm 0,0 UV-I 0 W/m 10,2 C 10,0 C 14,5 km/h (3 Bft) 98,18 %
23.09.2018 05:26 11,3 C 20,0 C 11,1 C 92 % 1019,6 hPa 0,0 l/m 7,5 km/h (2 Bft) S-SW 213 0 min 0,000 mm 0,0 UV-I 0 W/m 10,0 C 10,5 C 11,3 km/h (2 Bft) 96,97 %
23.09.2018 05:28 11,3 C 20,0 C 11,1 C 93 % 1019,6 hPa 0,0 l/m 10,2 km/h (2 Bft) W-SW 245 0 min 0,000 mm 0,0 UV-I 0 W/m 10,2 C 8,9 C 14,5 km/h (3 Bft) 97,78 %
23.09.2018 05:30 11,3 C 20,0 C 11,1 C 93 % 1019,5 hPa 0,0 l/m 9,2 km/h (2 Bft) SW 229 0 min 0,000 mm 0,0 UV-I 0 W/m 10,2 C 9,5 C 12,9 km/h (3 Bft) 98,00 %
23.09.2018 05:32 11,3 C 20,0 C 11,1 C 93 % 1019,6 hPa 0,0 l/m 12,2 km/h (2 Bft) SW 221 0 min 0,000 mm 0,0 UV-I 0 W/m 10,2 C 7,9 C 17,7 km/h (3 Bft) 96,36 %
23.09.2018 05:34 11,3 C 20,0 C 11,1 C 93 % 1019,6 hPa 0,0 l/m 8,8 km/h (2 Bft) SW 225 0 min 0,000 mm 0,0 UV-I 0 W/m 10,2 C 9,7 C 14,5 km/h (3 Bft) 100,00 %
23.09.2018 05:36 11,3 C 20,0 C 11,1 C 93 % 1019,5 hPa 0,0 l/m 10,2 km/h (2 Bft) W-SW 241 0 min 0,000 mm 0,0 UV-I 0 W/m 10,2 C 8,9 C 16,1 km/h (3 Bft) 96,23 %
23.09.2018 05:38 11,3 C 20,0 C 11,1 C 93 % 1019,5 hPa 0,2 l/m 11,6 km/h (2 Bft) SW 234 0 min 0,000 mm 0,0 UV-I 0 W/m 10,2 C 8,2 C 17,7 km/h (3 Bft) 97,87 %
23.09.2018 05:40 11,3 C 20,0 C 11,1 C 93 % 1019,5 hPa 0,0 l/m 9,8 km/h (2 Bft) W-SW 237 0 min 0,000 mm 0,0 UV-I 0 W/m 10,2 C 9,1 C 16,1 km/h (3 Bft) 96,00 %
23.09.2018 05:42 11,2 C 20,0 C 11,1 C 93 % 1019,5 hPa 0,0 l/m 12,1 km/h (2 Bft) S-SW 213 0 min 0,000 mm 0,0 UV-I 0 W/m 10,1 C 7,8 C 19,3 km/h (3 Bft) 97,87 %
23.09.2018 05:44 11,2 C 20,0 C 11,1 C 93 % 1019,6 hPa 0,0 l/m 10,5 km/h (2 Bft) W-SW 251 0 min 0,000 mm 0,0 UV-I 0 W/m 10,1 C 8,7 C 16,1 km/h (3 Bft) 97,37 %
23.09.2018 05:46 11,2 C 20,0 C 11,1 C 93 % 1019,5 hPa 0,0 l/m 14,5 km/h (3 Bft) SW 231 0 min 0,000 mm 0,0 UV-I 0 W/m 10,1 C 6,8 C 22,5 km/h (4 Bft) 100,00 %
23.09.2018 05:48 11,2 C 20,0 C 11,1 C 93 % 1019,5 hPa 0,0 l/m 12,7 km/h (3 Bft) W-SW 246 0 min 0,000 mm 0,0 UV-I 0 W/m 10,1 C 7,6 C 17,7 km/h (3 Bft) 97,37 %
23.09.2018 05:50 11,2 C 20,0 C 11,1 C 93 % 1019,5 hPa 0,0 l/m 10,8 km/h (2 Bft) SW 223 0 min 0,000 mm 0,0 UV-I 0 W/m 10,1 C 8,5 C 16,1 km/h (3 Bft) 97,87 %
23.09.2018 05:52 11,2 C 20,0 C 11,1 C 94 % 1019,4 hPa 0,0 l/m 10,1 km/h (2 Bft) SW 217 0 min 0,000 mm 0,0 UV-I 0 W/m 10,3 C 8,9 C 17,7 km/h (3 Bft) 98,11 %
23.09.2018 05:54 11,2 C 20,0 C 11,1 C 94 % 1019,3 hPa 0,0 l/m 10,6 km/h (2 Bft) SW 232 0 min 0,000 mm 0,0 UV-I 0 W/m 10,3 C 8,6 C 19,3 km/h (3 Bft) 97,87 %
23.09.2018 05:56 11,2 C 20,0 C 11,1 C 94 % 1019,3 hPa 0,0 l/m 10,4 km/h (2 Bft) S-SW 211 0 min 0,000 mm 0,0 UV-I 0 W/m 10,3 C 8,7 C 14,5 km/h (3 Bft) 97,87 %
23.09.2018 05:58 11,2 C 20,0 C 11,1 C 94 % 1019,3 hPa 0,0 l/m 12,8 km/h (3 Bft) W-SW 241 0 min 0,000 mm 0,0 UV-I 0 W/m 10,3 C 7,5 C 19,3 km/h (3 Bft) 97,56 %
23.09.2018 06:00 11,2 C 20,0 C 11,1 C 94 % 1019,3 hPa 0,2 l/m 9,9 km/h (2 Bft) SW 228 0 min 0,000 mm 0,0 UV-I 0 W/m 10,3 C 9,0 C 17,7 km/h (3 Bft) 98,21 %
23.09.2018 06:02 11,2 C 20,0 C 11,1 C 94 % 1019,3 hPa 0,0 l/m 8,6 km/h (2 Bft) W-SW 255 0 min 0,000 mm 0,0 UV-I 0 W/m 10,3 C 9,7 C 14,5 km/h (3 Bft) 97,56 %
23.09.2018 06:04 11,2 C 20,0 C 11,1 C 94 % 1019,3 hPa 0,0 l/m 11,8 km/h (2 Bft) W-SW 250 0 min 0,000 mm 0,0 UV-I 0 W/m 10,3 C 8,0 C 19,3 km/h (3 Bft) 98,11 %
23.09.2018 06:06 11,2 C 20,0 C 11,1 C 94 % 1019,3 hPa 0,0 l/m 9,7 km/h (2 Bft) W 271 0 min 0,000 mm 0,0 UV-I 0 W/m 10,3 C 9,1 C 14,5 km/h (3 Bft) 97,87 %
23.09.2018 06:08 11,2 C 20,0 C 11,1 C 94 % 1019,3 hPa 0,0 l/m 8,3 km/h (2 Bft) W-SW 246 0 min 0,000 mm 0,0 UV-I 0 W/m 10,3 C 9,9 C 12,9 km/h (3 Bft) 97,22 %
23.09.2018 06:10 11,2 C 20,0 C 11,1 C 94 % 1019,3 hPa 0,0 l/m 9,2 km/h (2 Bft) W-SW 257 0 min 0,000 mm 0,0 UV-I 0 W/m 10,3 C 9,4 C 17,7 km/h (3 Bft) 97,14 %
23.09.2018 06:12 11,2 C 20,0 C 11,1 C 94 % 1019,2 hPa 0,0 l/m 7,3 km/h (2 Bft) W 263 0 min 0,000 mm 0,0 UV-I 0 W/m 10,3 C 10,6 C 12,9 km/h (3 Bft) 100,00 %
23.09.2018 06:14 11,2 C 20,0 C 11,1 C 94 % 1019,2 hPa 0,0 l/m 6,9 km/h (2 Bft) W-SW 251 0 min 0,000 mm 0,0 UV-I 0 W/m 10,3 C 10,9 C 12,9 km/h (3 Bft) 100,00 %
23.09.2018 06:16 11,2 C 20,0 C 11,1 C 94 % 1019,2 hPa 0,0 l/m 6,8 km/h (2 Bft) W 263 0 min 0,000 mm 0,0 UV-I 0 W/m 10,3 C 10,9 C 14,5 km/h (3 Bft) 100,00 %
23.09.2018 06:18 11,2 C 20,0 C 11,1 C 94 % 1019,2 hPa 0,0 l/m 7,1 km/h (2 Bft) SW 227 0 min 0,000 mm 0,0 UV-I 0 W/m 10,3 C 10,7 C 11,3 km/h (2 Bft) 98,11 %
23.09.2018 06:20 11,2 C 20,0 C 11,1 C 94 % 1019,2 hPa 0,0 l/m 7,8 km/h (2 Bft) SW 219 0 min 0,000 mm 0,0 UV-I 0 W/m 10,3 C 10,2 C 12,9 km/h (3 Bft) 100,00 %
23.09.2018 06:22 11,2 C 20,0 C 11,1 C 94 % 1019,2 hPa 0,0 l/m 5,6 km/h (1 Bft) W-SW 246 0 min 0,000 mm 0,0 UV-I 0 W/m 10,3 C 11,2 C 8,0 km/h (2 Bft) 95,74 %
23.09.2018 06:24 11,2 C 20,0 C 11,1 C 94 % 1019,1 hPa 0,0 l/m 6,5 km/h (2 Bft) S 189 0 min 0,000 mm 0,0 UV-I 0 W/m 10,3 C 11,2 C 9,7 km/h (2 Bft) 100,00 %
23.09.2018 06:26 11,2 C 20,0 C 11,1 C 94 % 1019,1 hPa 0,0 l/m 7,6 km/h (2 Bft) SW 216 0 min 0,000 mm 0,0 UV-I 0 W/m 10,3 C 10,4 C 11,3 km/h (2 Bft) 100,00 %
23.09.2018 06:28 11,2 C 20,0 C 11,1 C 94 % 1019,1 hPa 0,0 l/m 7,7 km/h (2 Bft) W-SW 245 0 min 0,000 mm 0,0 UV-I 0 W/m 10,3 C 10,3 C 12,9 km/h (3 Bft) 95,12 %
23.09.2018 06:30 11,1 C 20,0 C 11,1 C 94 % 1019,1 hPa 0,0 l/m 9,0 km/h (2 Bft) S-SW 196 0 min 0,000 mm 0,0 UV-I 0 W/m 10,2 C 9,4 C 12,9 km/h (3 Bft) 100,00 %
23.09.2018 06:32 11,1 C 20,0 C 11,1 C 95 % 1019,0 hPa 0,0 l/m 9,1 km/h (2 Bft) SW 236 0 min 0,000 mm 0,0 UV-I 0 W/m 10,3 C 9,3 C 14,5 km/h (3 Bft) 100,00 %
23.09.2018 06:34 11,1 C 20,0 C 11,1 C 95 % 1018,9 hPa 0,0 l/m 7,0 km/h (2 Bft) SW 215 0 min 0,000 mm 0,0 UV-I 0 W/m 10,3 C 10,7 C 12,9 km/h (3 Bft) 97,87 %
23.09.2018 06:36 11,1 C 20,0 C 11,1 C 95 % 1018,9 hPa 0,0 l/m 10,1 km/h (2 Bft) SW 227 0 min 0,000 mm 0,0 UV-I 0 W/m 10,3 C 8,8 C 14,5 km/h (3 Bft) 100,00 %
23.09.2018 06:38 11,1 C 20,0 C 11,1 C 95 % 1019,0 hPa 0,0 l/m 8,7 km/h (2 Bft) SW 228 0 min 0,000 mm 0,0 UV-I 0 W/m 10,3 C 9,6 C 14,5 km/h (3 Bft) 94,34 %
23.09.2018 06:40 11,1 C 20,0 C 11,1 C 95 % 1019,0 hPa 0,0 l/m 6,9 km/h (2 Bft) SW 215 0 min 0,000 mm 0,0 UV-I 0 W/m 10,3 C 10,8 C 12,9 km/h (3 Bft) 100,00 %
23.09.2018 06:42 11,1 C 20,0 C 11,1 C 95 % 1019,0 hPa 0,0 l/m 8,9 km/h (2 Bft) SW 232 0 min 0,000 mm 0,0 UV-I 0 W/m 10,3 C 9,4 C 14,5 km/h (3 Bft) 100,00 %
23.09.2018 06:44 11,1 C 20,0 C 11,1 C 95 % 1019,0 hPa 0,0 l/m 8,0 km/h (2 Bft) SW 218 0 min 0,000 mm 0,0 UV-I 0 W/m 10,3 C 10,0 C 12,9 km/h (3 Bft) 96,00 %
23.09.2018 06:46 11,1 C 20,0 C 11,1 C 95 % 1019,0 hPa 0,0 l/m 6,6 km/h (2 Bft) SW 220 0 min 0,000 mm 0,0 UV-I 0 W/m 10,3 C 11,0 C 11,3 km/h (2 Bft) 100,00 %
23.09.2018 06:48 11,1 C 20,0 C 11,1 C 95 % 1018,9 hPa 0,0 l/m 8,3 km/h (2 Bft) SW 236 0 min 0,000 mm 0,0 UV-I 0 W/m 10,3 C 9,8 C 14,5 km/h (3 Bft) 100,00 %
23.09.2018 06:50 11,1 C 20,0 C 11,1 C 95 % 1018,9 hPa 0,0 l/m 8,3 km/h (2 Bft) W-SW 238 0 min 0,000 mm 0,0 UV-I 0 W/m 10,3 C 9,8 C 14,5 km/h (3 Bft) 97,62 %
23.09.2018 06:52 11,1 C 20,0 C 11,1 C 95 % 1018,8 hPa 0,0 l/m 7,7 km/h (2 Bft) SW 228 0 min 0,000 mm 0,0 UV-I 0 W/m 10,3 C 10,2 C 11,3 km/h (2 Bft) 98,21 %
23.09.2018 06:54 11,1 C 20,0 C 11,1 C 95 % 1018,8 hPa 0,0 l/m 8,4 km/h (2 Bft) SW 215 0 min 0,000 mm 0,0 UV-I 0 W/m 10,3 C 9,8 C 11,3 km/h (2 Bft) 100,00 %
23.09.2018 06:56 11,1 C 20,0 C 11,1 C 95 % 1018,8 hPa 0,0 l/m 7,8 km/h (2 Bft) SW 224 0 min 0,000 mm 0,0 UV-I 0 W/m 10,3 C 10,1 C 11,3 km/h (2 Bft) 100,00 %
23.09.2018 06:58 11,1 C 20,0 C 11,1 C 95 % 1018,8 hPa 0,0 l/m 7,6 km/h (2 Bft) SW 228 0 min 0,000 mm 0,0 UV-I 0 W/m 10,3 C 10,3 C 12,9 km/h (3 Bft) 100,00 %
23.09.2018 07:00 11,2 C 20,0 C 11,1 C 95 % 1018,8 hPa 0,0 l/m 5,6 km/h (1 Bft) SW 236 0 min 0,000 mm 0,0 UV-I 2 W/m 10,4 C 11,2 C 11,3 km/h (2 Bft) 98,00 %
23.09.2018 07:02 11,2 C 20,0 C 11,1 C 95 % 1018,8 hPa 0,0 l/m 5,2 km/h (1 Bft) S-SW 211 0 min 0,000 mm 0,0 UV-I 5 W/m 10,4 C 11,2 C 6,4 km/h (2 Bft) 100,00 %
23.09.2018 07:04 11,2 C 20,0 C 11,1 C 95 % 1018,8 hPa 0,0 l/m 5,7 km/h (1 Bft) S-SW 209 0 min 0,000 mm 0,0 UV-I 5 W/m 10,4 C 11,2 C 8,0 km/h (2 Bft) 100,00 %
23.09.2018 07:06 11,2 C 20,0 C 11,1 C 95 % 1018,8 hPa 0,0 l/m 5,0 km/h (1 Bft) SW 214 0 min 0,000 mm 0,0 UV-I 5 W/m 10,4 C 11,2 C 6,4 km/h (2 Bft) 98,11 %
23.09.2018 07:08 11,2 C 20,0 C 11,1 C 95 % 1018,7 hPa 0,0 l/m 5,2 km/h (1 Bft) SW 217 0 min 0,000 mm 0,0 UV-I 6 W/m 10,4 C 11,2 C 6,4 km/h (2 Bft) 98,00 %
23.09.2018 07:10 11,2 C 20,0 C 11,1 C 95 % 1018,7 hPa 0,0 l/m 4,6 km/h (1 Bft) SW 223 0 min 0,000 mm 0,0 UV-I 7 W/m 10,4 C 11,2 C 6,4 km/h (2 Bft) 97,37 %
23.09.2018 07:12 11,2 C 20,0 C 11,7 C 95 % 1018,7 hPa 0,0 l/m 2,5 km/h (1 Bft) SW 223 0 min 0,000 mm 0,0 UV-I 8 W/m 10,4 C 11,2 C 4,8 km/h (1 Bft) 95,74 %
23.09.2018 07:14 11,2 C 20,0 C 11,7 C 95 % 1018,7 hPa 0,0 l/m 3,5 km/h (1 Bft) SW 217 0 min 0,000 mm 0,0 UV-I 10 W/m 10,4 C 11,2 C 4,8 km/h (1 Bft) 96,00 %
23.09.2018 07:16 11,2 C 20,0 C 11,7 C 95 % 1018,7 hPa 0,2 l/m 2,4 km/h (1 Bft) SW 217 0 min 0,000 mm 0,0 UV-I 11 W/m 10,4 C 11,2 C 3,2 km/h (1 Bft) 95,74 %
23.09.2018 07:18 11,2 C 20,0 C 11,7 C 95 % 1018,7 hPa 0,0 l/m 2,3 km/h (1 Bft) SW 217 0 min 0,000 mm 0,0 UV-I 11 W/m 10,4 C 11,2 C 4,8 km/h (1 Bft) 93,62 %
23.09.2018 07:20 11,2 C 20,0 C 11,7 C 95 % 1018,6 hPa 0,0 l/m 2,1 km/h (1 Bft) SW 217 0 min 0,000 mm 0,0 UV-I 11 W/m 10,4 C 11,2 C 4,8 km/h (1 Bft) 95,74 %
23.09.2018 07:22 11,2 C 20,0 C 11,7 C 95 % 1018,6 hPa 0,0 l/m 3,5 km/h (1 Bft) S-SW 205 0 min 0,000 mm 0,0 UV-I 12 W/m 10,4 C 11,2 C 6,4 km/h (2 Bft) 96,23 %
23.09.2018 07:24 11,2 C 20,0 C 11,7 C 95 % 1018,5 hPa 0,0 l/m 4,5 km/h (1 Bft) W 262 0 min 0,000 mm 0,0 UV-I 12 W/m 10,4 C 11,2 C 8,0 km/h (2 Bft) 92,68 %
23.09.2018 07:26 11,2 C 20,0 C 11,7 C 95 % 1018,4 hPa 0,0 l/m 2,5 km/h (1 Bft) W-SW 251 0 min 0,000 mm 0,0 UV-I 14 W/m 10,4 C 11,2 C 4,8 km/h (1 Bft) 96,23 %
23.09.2018 07:28 11,2 C 20,0 C 11,7 C 95 % 1018,4 hPa 0,0 l/m 2,0 km/h (1 Bft) S 175 0 min 0,000 mm 0,0 UV-I 19 W/m 10,4 C 11,2 C 6,4 km/h (2 Bft) 92,31 %
23.09.2018 07:30 11,2 C 20,0 C 11,7 C 95 % 1018,4 hPa 0,0 l/m 3,3 km/h (1 Bft) S 175 0 min 0,000 mm 0,0 UV-I 25 W/m 10,4 C 11,2 C 4,8 km/h (1 Bft) 92,00 %
23.09.2018 07:32 11,2 C 20,0 C 11,7 C 95 % 1018,4 hPa 0,0 l/m 2,3 km/h (1 Bft) S 175 0 min 0,000 mm 0,0 UV-I 29 W/m 10,4 C 11,2 C 3,2 km/h (1 Bft) 93,62 %
23.09.2018 07:34 11,2 C 20,0 C 11,7 C 95 % 1018,5 hPa 0,0 l/m 0,8 km/h (0 Bft) S 175 0 min 0,000 mm 0,0 UV-I 31 W/m 10,4 C 11,2 C 1,6 km/h (1 Bft) 90,91 %
23.09.2018 07:36 11,2 C 20,0 C 11,7 C 95 % 1018,5 hPa 0,0 l/m 0,2 km/h (0 Bft) S 175 0 min 0,000 mm 0,0 UV-I 26 W/m 10,4 C 11,2 C 1,6 km/h (1 Bft) 89,36 %
23.09.2018 07:38 11,2 C 20,0 C 11,7 C 95 % 1018,5 hPa 0,0 l/m 0,5 km/h (0 Bft) NO 36 0 min 0,000 mm 0,0 UV-I 25 W/m 10,4 C 11,2 C 1,6 km/h (1 Bft) 96,23 %
23.09.2018 07:40 11,2 C 20,0 C 11,7 C 95 % 1018,5 hPa 0,0 l/m 1,0 km/h (0 Bft) NO 36 0 min 0,000 mm 0,0 UV-I 24 W/m 10,4 C 11,2 C 1,6 km/h (1 Bft) 94,74 %
23.09.2018 07:42 11,2 C 20,0 C 11,7 C 95 % 1018,5 hPa 0,0 l/m 0,7 km/h (0 Bft) O 101 0 min 0,000 mm 0,0 UV-I 25 W/m 10,4 C 11,2 C 3,2 km/h (1 Bft) 94,34 %
23.09.2018 07:44 11,2 C 20,0 C 12,2 C 95 % 1018,4 hPa 0,0 l/m 0,3 km/h (0 Bft) O 101 0 min 0,000 mm 0,0 UV-I 27 W/m 10,4 C 11,2 C 1,6 km/h (1 Bft) 96,00 %
23.09.2018 07:46 11,1 C 20,0 C 12,2 C 95 % 1018,4 hPa 0,0 l/m 0,0 km/h (0 Bft) O 101 0 min 0,000 mm 0,0 UV-I 26 W/m 10,3 C 11,1 C 0,0 km/h (0 Bft) 94,74 %
23.09.2018 07:48 11,1 C 20,0 C 11,7 C 95 % 1018,4 hPa 0,0 l/m 0,0 km/h (0 Bft) O 101 0 min 0,000 mm 0,0 UV-I 24 W/m 10,3 C 11,1 C 0,0 km/h (0 Bft) 96,00 %
23.09.2018 07:50 11,2 C 20,0 C 12,2 C 95 % 1018,4 hPa 0,0 l/m 0,0 km/h (0 Bft) O 101 0 min 0,000 mm 0,0 UV-I 25 W/m 10,4 C 11,2 C 0,0 km/h (0 Bft) 96,23 %
23.09.2018 07:52 11,2 C 20,0 C 12,2 C 95 % 1018,4 hPa 0,0 l/m 0,0 km/h (0 Bft) O 101 0 min 0,000 mm 0,0 UV-I 32 W/m 10,4 C 11,2 C 0,0 km/h (0 Bft) 95,74 %
23.09.2018 07:54 11,2 C 20,0 C 12,2 C 95 % 1018,4 hPa 0,0 l/m 1,1 km/h (1 Bft) O 101 0 min 0,000 mm 0,0 UV-I 34 W/m 10,4 C 11,2 C 3,2 km/h (1 Bft) 97,56 %
23.09.2018 07:56 11,2 C 20,0 C 12,2 C 95 % 1018,3 hPa 0,0 l/m 1,9 km/h (1 Bft) O 101 0 min 0,000 mm 0,0 UV-I 29 W/m 10,4 C 11,2 C 3,2 km/h (1 Bft) 96,00 %
23.09.2018 07:58 11,2 C 20,0 C 12,2 C 95 % 1018,2 hPa 0,0 l/m 2,2 km/h (1 Bft) O 101 0 min 0,000 mm 0,0 UV-I 31 W/m 10,4 C 11,2 C 3,2 km/h (1 Bft) 97,73 %
23.09.2018 08:00 11,2 C 20,0 C 12,2 C 95 % 1018,1 hPa 0,0 l/m 0,5 km/h (0 Bft) O 101 0 min 0,000 mm 0,0 UV-I 31 W/m 10,4 C 11,2 C 1,6 km/h (1 Bft) 97,44 %
23.09.2018 08:02 11,3 C 20,0 C 12,2 C 95 % 1018,0 hPa 0,0 l/m 1,5 km/h (1 Bft) O 101 0 min 0,000 mm 0,0 UV-I 34 W/m 10,5 C 11,3 C 3,2 km/h (1 Bft) 98,18 %
23.09.2018 08:04 11,3 C 20,0 C 12,2 C 95 % 1017,9 hPa 0,0 l/m 1,6 km/h (1 Bft) O 101 0 min 0,000 mm 0,0 UV-I 55 W/m 10,5 C 11,3 C 3,2 km/h (1 Bft) 97,62 %
23.09.2018 08:06 11,3 C 20,0 C 12,8 C 95 % 1017,9 hPa 0,0 l/m 1,1 km/h (1 Bft) O 101 0 min 0,000 mm 0,0 UV-I 69 W/m 10,5 C 11,3 C 1,6 km/h (1 Bft) 96,00 %
23.09.2018 08:08 11,2 C 20,0 C 12,2 C 95 % 1017,9 hPa 0,0 l/m 0,6 km/h (0 Bft) O 101 0 min 0,000 mm 0,0 UV-I 60 W/m 10,4 C 11,2 C 1,6 km/h (1 Bft) 100,00 %
23.09.2018 08:10 11,3 C 20,0 C 12,2 C 95 % 1017,9 hPa 0,0 l/m 0,6 km/h (0 Bft) O-SO 102 0 min 0,000 mm 0,0 UV-I 54 W/m 10,5 C 11,3 C 1,6 km/h (1 Bft) 96,00 %
23.09.2018 08:12 11,4 C 20,0 C 12,8 C 95 % 1017,9 hPa 0,0 l/m 1,0 km/h (0 Bft) O-SO 102 0 min 0,000 mm 0,0 UV-I 71 W/m 10,6 C 11,4 C 3,2 km/h (1 Bft) 97,87 %
23.09.2018 08:14 11,3 C 20,0 C 12,8 C 95 % 1017,9 hPa 0,0 l/m 2,1 km/h (1 Bft) O-SO 121 0 min 0,000 mm 0,0 UV-I 70 W/m 10,5 C 11,3 C 4,8 km/h (1 Bft) 98,11 %
23.09.2018 08:16 11,4 C 20,0 C 12,8 C 95 % 1017,9 hPa 0,0 l/m 2,4 km/h (1 Bft) S-SO 155 0 min 0,000 mm 0,0 UV-I 58 W/m 10,6 C 11,4 C 4,8 km/h (1 Bft) 97,56 %
23.09.2018 08:18 11,3 C 20,0 C 12,8 C 95 % 1017,9 hPa 0,0 l/m 2,8 km/h (1 Bft) S-SO 155 0 min 0,000 mm 0,0 UV-I 52 W/m 10,5 C 11,3 C 4,8 km/h (1 Bft) 98,00 %
23.09.2018 08:20 11,4 C 20,0 C 12,8 C 95 % 1017,9 hPa 0,0 l/m 2,0 km/h (1 Bft) S-SO 155 0 min 0,000 mm 0,0 UV-I 54 W/m 10,6 C 11,4 C 4,8 km/h (1 Bft) 98,00 %
23.09.2018 08:22 11,4 C 20,0 C 12,8 C 95 % 1017,9 hPa 0,0 l/m 3,4 km/h (1 Bft) S-SO 157 0 min 0,000 mm 0,0 UV-I 70 W/m 10,6 C 11,4 C 4,8 km/h (1 Bft) 97,56 %
23.09.2018 08:24 11,5 C 20,0 C 12,8 C 95 % 1017,8 hPa 0,0 l/m 3,2 km/h (1 Bft) S-SO 159 0 min 0,000 mm 0,0 UV-I 59 W/m 10,7 C 11,5 C 6,4 km/h (2 Bft) 98,11 %
23.09.2018 08:26 11,4 C 20,0 C 12,8 C 95 % 1017,8 hPa 0,0 l/m 4,6 km/h (1 Bft) S-SO 147 0 min 0,000 mm 0,0 UV-I 70 W/m 10,6 C 11,4 C 8,0 km/h (2 Bft) 95,74 %
23.09.2018 08:28 11,5 C 20,0 C 12,8 C 96 % 1017,8 hPa 0,0 l/m 2,3 km/h (1 Bft) S-SO 157 0 min 0,000 mm 0,0 UV-I 81 W/m 10,9 C 11,5 C 8,0 km/h (2 Bft) 97,37 %
23.09.2018 08:30 11,6 C 20,0 C 13,3 C 96 % 1017,8 hPa 0,0 l/m 2,4 km/h (1 Bft) S-SO 156 0 min 0,000 mm 0,0 UV-I 85 W/m 11,0 C 11,6 C 4,8 km/h (1 Bft) 97,87 %
23.09.2018 08:32 11,7 C 20,0 C 13,3 C 96 % 1017,8 hPa 0,0 l/m 2,1 km/h (1 Bft) S-SO 156 0 min 0,000 mm 0,0 UV-I 87 W/m 11,1 C 11,7 C 3,2 km/h (1 Bft) 97,87 %
23.09.2018 08:34 11,6 C 20,0 C 12,8 C 96 % 1017,8 hPa 0,0 l/m 1,9 km/h (1 Bft) SO 143 0 min 0,000 mm 0,0 UV-I 67 W/m 11,0 C 11,6 C 4,8 km/h (1 Bft) 100,00 %
23.09.2018 08:36 11,7 C 20,0 C 12,8 C 96 % 1017,8 hPa 0,0 l/m 4,2 km/h (1 Bft) SO 146 0 min 0,000 mm 0,0 UV-I 55 W/m 11,1 C 11,7 C 6,4 km/h (2 Bft) 100,00 %
23.09.2018 08:38 11,7 C 20,0 C 12,8 C 95 % 1017,8 hPa 0,0 l/m 4,5 km/h (1 Bft) SO 130 0 min 0,000 mm 0,0 UV-I 71 W/m 10,9 C 11,7 C 6,4 km/h (2 Bft) 98,00 %
23.09.2018 08:40 11,7 C 20,0 C 12,8 C 95 % 1017,7 hPa 0,0 l/m 4,9 km/h (1 Bft) O-SO 123 0 min 0,000 mm 0,0 UV-I 77 W/m 10,9 C 11,7 C 8,0 km/h (2 Bft) 97,44 %
23.09.2018 08:42 11,7 C 20,0 C 12,8 C 95 % 1017,7 hPa 0,0 l/m 4,9 km/h (1 Bft) SO 125 0 min 0,000 mm 0,0 UV-I 77 W/m 10,9 C 11,7 C 6,4 km/h (2 Bft) 98,11 %
23.09.2018 08:44 11,8 C 20,0 C 13,3 C 95 % 1017,8 hPa 0,0 l/m 3,8 km/h (1 Bft) SO 138 0 min 0,000 mm 0,0 UV-I 69 W/m 11,0 C 11,8 C 6,4 km/h (2 Bft) 97,87 %
23.09.2018 08:46 11,8 C 20,0 C 13,3 C 96 % 1017,7 hPa 0,0 l/m 4,9 km/h (1 Bft) O-SO 113 0 min 0,000 mm 0,0 UV-I 69 W/m 11,2 C 11,8 C 6,4 km/h (2 Bft) 98,00 %
23.09.2018 08:49 11,8 C 20,0 C 13,3 C 95 % 1017,7 hPa 0,0 l/m 3,3 km/h (1 Bft) O-SO 121 0 min 0,000 mm 0,0 UV-I 80 W/m 11,0 C 11,8 C 6,4 km/h (2 Bft) 96,88 %
23.09.2018 08:50 11,8 C 20,0 C 13,3 C 95 % 1017,7 hPa 0,0 l/m 3,6 km/h (1 Bft) SO 132 0 min 0,000 mm 0,0 UV-I 69 W/m 11,0 C 11,8 C 4,8 km/h (1 Bft) 100,00 %
23.09.2018 08:52 11,8 C 20,0 C 13,3 C 95 % 1017,7 hPa 0,0 l/m 3,3 km/h (1 Bft) SO 130 0 min 0,000 mm 0,0 UV-I 68 W/m 11,0 C 11,8 C 4,8 km/h (1 Bft) 98,00 %
23.09.2018 08:54 11,8 C 20,0 C 13,3 C 95 % 1017,7 hPa 0,0 l/m 4,5 km/h (1 Bft) SO 138 0 min 0,000 mm 0,0 UV-I 81 W/m 11,0 C 11,8 C 6,4 km/h (2 Bft) 97,56 %
23.09.2018 08:56 11,8 C 20,0 C 13,3 C 95 % 1017,7 hPa 0,0 l/m 3,6 km/h (1 Bft) O-SO 115 0 min 0,000 mm 0,0 UV-I 85 W/m 11,0 C 11,8 C 6,4 km/h (2 Bft) 96,00 %
23.09.2018 08:58 11,8 C 20,0 C 13,3 C 95 % 1017,7 hPa 0,0 l/m 3,6 km/h (1 Bft) O-SO 115 0 min 0,000 mm 0,0 UV-I 70 W/m 11,0 C 11,8 C 6,4 km/h (2 Bft) 97,87 %
23.09.2018 09:00 11,8 C 20,0 C 13,3 C 96 % 1017,7 hPa 0,0 l/m 1,3 km/h (1 Bft) O-SO 115 0 min 0,025 mm 0,0 UV-I 81 W/m 11,2 C 11,8 C 3,2 km/h (1 Bft) 98,00 %
23.09.2018 09:02 11,9 C 20,0 C 13,3 C 96 % 1017,7 hPa 0,2 l/m 2,8 km/h (1 Bft) SO 138 0 min 0,000 mm 0,0 UV-I 91 W/m 11,3 C 11,9 C 6,4 km/h (2 Bft) 100,00 %
23.09.2018 09:04 11,9 C 20,0 C 13,3 C 96 % 1017,7 hPa 0,0 l/m 5,0 km/h (1 Bft) O-SO 117 0 min 0,000 mm 0,0 UV-I 87 W/m 11,3 C 11,9 C 11,3 km/h (2 Bft) 97,73 %
23.09.2018 09:06 11,9 C 20,0 C 13,3 C 96 % 1017,7 hPa 0,0 l/m 5,0 km/h (1 Bft) O-SO 123 0 min 0,000 mm 0,0 UV-I 83 W/m 11,3 C 11,9 C 6,4 km/h (2 Bft) 100,00 %
23.09.2018 09:08 11,9 C 20,0 C 13,9 C 96 % 1017,7 hPa 0,0 l/m 4,0 km/h (1 Bft) O-SO 120 0 min 0,000 mm 0,0 UV-I 90 W/m 11,3 C 11,9 C 6,4 km/h (2 Bft) 97,87 %
23.09.2018 09:10 11,9 C 20,0 C 13,9 C 96 % 1017,7 hPa 0,0 l/m 3,7 km/h (1 Bft) O-SO 119 0 min 0,000 mm 0,0 UV-I 89 W/m 11,3 C 11,9 C 4,8 km/h (1 Bft) 100,00 %
23.09.2018 09:12 11,9 C 20,0 C 13,3 C 96 % 1017,7 hPa 0,0 l/m 4,7 km/h (1 Bft) O 99 0 min 0,000 mm 0,0 UV-I 81 W/m 11,3 C 11,9 C 8,0 km/h (2 Bft) 100,00 %
23.09.2018 09:14 11,9 C 20,0 C 13,3 C 96 % 1017,6 hPa 0,0 l/m 3,8 km/h (1 Bft) O-SO 123 0 min 0,000 mm 0,0 UV-I 83 W/m 11,3 C 11,9 C 6,4 km/h (2 Bft) 98,11 %
23.09.2018 09:16 11,9 C 20,0 C 13,3 C 96 % 1017,6 hPa 0,0 l/m 4,6 km/h (1 Bft) SO 145 0 min 0,000 mm 0,0 UV-I 89 W/m 11,3 C 11,9 C 6,4 km/h (2 Bft) 97,22 %
23.09.2018 09:18 11,9 C 20,0 C 13,9 C 96 % 1017,6 hPa 0,0 l/m 4,2 km/h (1 Bft) SO 130 0 min 0,000 mm 0,0 UV-I 99 W/m 11,3 C 11,9 C 6,4 km/h (2 Bft) 96,72 %
23.09.2018 09:20 12,0 C 20,0 C 13,9 C 96 % 1017,6 hPa 0,0 l/m 3,5 km/h (1 Bft) O-SO 121 0 min 0,000 mm 0,3 UV-I 104 W/m 11,4 C 12,0 C 4,8 km/h (1 Bft) 96,00 %
23.09.2018 09:22 12,0 C 20,0 C 13,9 C 96 % 1017,6 hPa 0,0 l/m 2,9 km/h (1 Bft) O-SO 121 0 min 0,000 mm 0,5 UV-I 93 W/m 11,4 C 12,0 C 4,8 km/h (1 Bft) 97,22 %
23.09.2018 09:24 12,0 C 20,0 C 13,9 C 96 % 1017,5 hPa 0,0 l/m 4,1 km/h (1 Bft) SO 129 0 min 0,000 mm 0,5 UV-I 95 W/m 11,4 C 12,0 C 6,4 km/h (2 Bft) 94,34 %
23.09.2018 09:26 12,1 C 20,0 C 13,9 C 96 % 1017,5 hPa 0,2 l/m 3,9 km/h (1 Bft) SO 139 0 min 0,000 mm 0,5 UV-I 99 W/m 11,5 C 12,1 C 4,8 km/h (1 Bft) 98,00 %
23.09.2018 09:28 12,1 C 20,0 C 13,9 C 95 % 1017,5 hPa 0,0 l/m 4,4 km/h (1 Bft) SO 146 0 min 0,000 mm 0,5 UV-I 110 W/m 11,3 C 12,1 C 8,0 km/h (2 Bft) 97,56 %
23.09.2018 09:30 12,2 C 20,0 C 14,4 C 96 % 1017,5 hPa 0,0 l/m 3,8 km/h (1 Bft) SO 138 0 min 0,000 mm 0,5 UV-I 128 W/m 11,6 C 12,2 C 6,4 km/h (2 Bft) 97,87 %
23.09.2018 09:32 12,2 C 20,0 C 14,4 C 96 % 1017,4 hPa 0,0 l/m 2,8 km/h (1 Bft) SO 138 0 min 0,000 mm 0,6 UV-I 124 W/m 11,6 C 12,2 C 4,8 km/h (1 Bft) 98,11 %
23.09.2018 09:34 12,2 C 20,0 C 14,4 C 96 % 1017,4 hPa 0,0 l/m 2,8 km/h (1 Bft) SO 144 0 min 0,000 mm 0,6 UV-I 132 W/m 11,6 C 12,2 C 6,4 km/h (2 Bft) 97,56 %
23.09.2018 09:36 12,2 C 20,0 C 13,9 C 96 % 1017,4 hPa 0,0 l/m 6,0 km/h (2 Bft) SO 132 0 min 0,000 mm 0,6 UV-I 135 W/m 11,6 C 12,2 C 8,0 km/h (2 Bft) 96,23 %
23.09.2018 09:38 12,2 C 20,0 C 13,9 C 96 % 1017,3 hPa 0,0 l/m 5,5 km/h (1 Bft) SO 128 0 min 0,000 mm 0,6 UV-I 116 W/m 11,6 C 12,2 C 8,0 km/h (2 Bft) 97,37 %
23.09.2018 09:40 12,2 C 20,0 C 13,9 C 96 % 1017,3 hPa 0,2 l/m 3,2 km/h (1 Bft) O-SO 116 0 min 0,000 mm 0,6 UV-I 98 W/m 11,6 C 12,2 C 4,8 km/h (1 Bft) 98,00 %
23.09.2018 09:42 12,2 C 20,0 C 13,9 C 96 % 1017,3 hPa 0,0 l/m 3,5 km/h (1 Bft) O-SO 116 0 min 0,000 mm 0,6 UV-I 101 W/m 11,6 C 12,2 C 6,4 km/h (2 Bft) 97,87 %
23.09.2018 09:44 12,2 C 20,0 C 14,4 C 96 % 1017,3 hPa 0,0 l/m 4,9 km/h (1 Bft) SO 134 0 min 0,000 mm 0,7 UV-I 140 W/m 11,6 C 12,2 C 8,0 km/h (2 Bft) 97,87 %
23.09.2018 09:46 12,3 C 20,0 C 14,4 C 96 % 1017,3 hPa 0,0 l/m 4,6 km/h (1 Bft) O-SO 112 0 min 0,000 mm 0,7 UV-I 147 W/m 11,7 C 12,3 C 6,4 km/h (2 Bft) 97,87 %
23.09.2018 09:48 12,2 C 20,0 C 14,4 C 96 % 1017,3 hPa 0,0 l/m 2,8 km/h (1 Bft) O-SO 121 0 min 0,000 mm 0,5 UV-I 112 W/m 11,6 C 12,2 C 4,8 km/h (1 Bft) 100,00 %
23.09.2018 09:50 12,2 C 20,0 C 14,4 C 96 % 1017,3 hPa 0,0 l/m 3,2 km/h (1 Bft) O-SO 121 0 min 0,000 mm 0,5 UV-I 96 W/m 11,6 C 12,2 C 4,8 km/h (1 Bft) 96,00 %
23.09.2018 09:52 12,2 C 20,0 C 14,4 C 95 % 1017,3 hPa 0,0 l/m 4,9 km/h (1 Bft) O-SO 113 0 min 0,000 mm 0,6 UV-I 111 W/m 11,4 C 12,2 C 8,0 km/h (2 Bft) 100,00 %
23.09.2018 09:54 12,2 C 20,0 C 14,4 C 95 % 1017,3 hPa 0,0 l/m 5,1 km/h (1 Bft) SO 134 0 min 0,000 mm 0,6 UV-I 128 W/m 11,4 C 12,2 C 8,0 km/h (2 Bft) 100,00 %
23.09.2018 09:56 12,2 C 20,0 C 13,9 C 95 % 1017,2 hPa 0,0 l/m 5,7 km/h (1 Bft) SO 146 0 min 0,000 mm 0,6 UV-I 128 W/m 11,4 C 12,2 C 8,0 km/h (2 Bft) 100,00 %
23.09.2018 09:58 12,2 C 20,0 C 13,9 C 95 % 1017,3 hPa 0,0 l/m 4,5 km/h (1 Bft) SO 130 0 min 0,000 mm 0,6 UV-I 116 W/m 11,4 C 12,2 C 6,4 km/h (2 Bft) 95,74 %
23.09.2018 10:00 12,3 C 20,0 C 13,9 C 96 % 1017,1 hPa 0,0 l/m 3,8 km/h (1 Bft) SO 130 0 min 0,051 mm 0,6 UV-I 122 W/m 11,7 C 12,3 C 4,8 km/h (1 Bft) 100,00 %
23.09.2018 10:02 12,3 C 20,0 C 14,4 C 96 % 1017,2 hPa 0,0 l/m 2,7 km/h (1 Bft) SO 130 0 min 0,000 mm 0,5 UV-I 100 W/m 11,7 C 12,3 C 4,8 km/h (1 Bft) 97,87 %
23.09.2018 10:04 12,2 C 20,0 C 13,9 C 95 % 1017,2 hPa 0,0 l/m 1,8 km/h (1 Bft) SO 134 0 min 0,000 mm 0,5 UV-I 88 W/m 11,4 C 12,2 C 4,8 km/h (1 Bft) 97,56 %
23.09.2018 10:06 12,3 C 20,0 C 13,9 C 96 % 1017,2 hPa 0,2 l/m 3,5 km/h (1 Bft) SO 131 0 min 0,000 mm 0,5 UV-I 91 W/m 11,7 C 12,3 C 4,8 km/h (1 Bft) 98,11 %
23.09.2018 10:08 12,3 C 20,0 C 13,9 C 96 % 1017,2 hPa 0,0 l/m 3,5 km/h (1 Bft) SO 144 0 min 0,000 mm 0,5 UV-I 98 W/m 11,7 C 12,3 C 6,4 km/h (2 Bft) 98,00 %
23.09.2018 10:10 12,3 C 20,0 C 13,9 C 96 % 1017,2 hPa 0,0 l/m 4,1 km/h (1 Bft) SO 146 0 min 0,000 mm 0,6 UV-I 102 W/m 11,7 C 12,3 C 6,4 km/h (2 Bft) 97,87 %
23.09.2018 10:12 12,3 C 20,0 C 13,9 C 95 % 1017,1 hPa 0,2 l/m 5,5 km/h (1 Bft) S-SO 147 0 min 0,000 mm 0,6 UV-I 107 W/m 11,5 C 12,3 C 8,0 km/h (2 Bft) 97,37 %
23.09.2018 10:14 12,3 C 20,0 C 13,9 C 95 % 1017,1 hPa 0,0 l/m 5,5 km/h (1 Bft) S-SO 152 0 min 0,000 mm 0,6 UV-I 106 W/m 11,5 C 12,3 C 8,0 km/h (2 Bft) 98,00 %
23.09.2018 10:16 12,3 C 20,0 C 13,9 C 96 % 1017,1 hPa 0,0 l/m 5,1 km/h (1 Bft) SO 139 0 min 0,000 mm 0,6 UV-I 102 W/m 11,7 C 12,3 C 8,0 km/h (2 Bft) 97,87 %
23.09.2018 10:19 12,3 C 20,0 C 14,4 C 95 % 1017,0 hPa 0,0 l/m 4,4 km/h (1 Bft) SO 136 0 min 0,000 mm 0,7 UV-I 133 W/m 11,5 C 12,3 C 8,0 km/h (2 Bft) 97,06 %
23.09.2018 10:20 12,3 C 20,0 C 14,4 C 96 % 1017,0 hPa 0,0 l/m 4,8 km/h (1 Bft) SO 136 0 min 0,000 mm 0,7 UV-I 148 W/m 11,7 C 12,3 C 6,4 km/h (2 Bft) 96,55 %
23.09.2018 10:22 12,5 C 20,0 C 14,4 C 96 % 1017,0 hPa 0,0 l/m 3,1 km/h (1 Bft) SO 136 0 min 0,000 mm 0,7 UV-I 134 W/m 11,9 C 12,5 C 4,8 km/h (1 Bft) 97,37 %
23.09.2018 10:24 12,4 C 20,0 C 14,4 C 96 % 1017,0 hPa 0,0 l/m 5,9 km/h (2 Bft) O-SO 111 0 min 0,000 mm 0,7 UV-I 127 W/m 11,8 C 12,4 C 12,9 km/h (3 Bft) 94,00 %
23.09.2018 10:26 12,4 C 20,0 C 14,4 C 95 % 1016,9 hPa 0,0 l/m 4,4 km/h (1 Bft) SO 140 0 min 0,000 mm 0,8 UV-I 127 W/m 11,6 C 12,4 C 9,7 km/h (2 Bft) 97,87 %
23.09.2018 10:28 12,5 C 20,0 C 14,4 C 96 % 1016,9 hPa 0,2 l/m 4,5 km/h (1 Bft) SO 126 0 min 0,000 mm 0,8 UV-I 137 W/m 11,9 C 12,5 C 6,4 km/h (2 Bft) 96,00 %
23.09.2018 10:30 12,6 C 20,0 C 15,0 C 96 % 1016,9 hPa 0,0 l/m 4,3 km/h (1 Bft) SO 129 0 min 0,000 mm 0,9 UV-I 158 W/m 12,0 C 12,6 C 6,4 km/h (2 Bft) 100,00 %
23.09.2018 10:32 12,6 C 20,0 C 14,4 C 96 % 1016,9 hPa 0,0 l/m 4,2 km/h (1 Bft) SO 135 0 min 0,000 mm 0,8 UV-I 143 W/m 12,0 C 12,6 C 6,4 km/h (2 Bft) 97,62 %
23.09.2018 10:34 12,6 C 20,0 C 14,4 C 96 % 1016,8 hPa 0,0 l/m 3,7 km/h (1 Bft) O-SO 121 0 min 0,000 mm 0,8 UV-I 128 W/m 12,0 C 12,6 C 6,4 km/h (2 Bft) 100,00 %
23.09.2018 10:36 12,7 C 20,0 C 14,4 C 96 % 1016,9 hPa 0,2 l/m 4,0 km/h (1 Bft) O-SO 105 0 min 0,000 mm 0,8 UV-I 130 W/m 12,1 C 12,7 C 6,4 km/h (2 Bft) 100,00 %
23.09.2018 10:38 12,7 C 20,0 C 14,4 C 96 % 1016,8 hPa 0,0 l/m 4,0 km/h (1 Bft) SO 140 0 min 0,000 mm 0,8 UV-I 118 W/m 12,1 C 12,7 C 6,4 km/h (2 Bft) 100,00 %
23.09.2018 10:40 12,8 C 20,0 C 14,4 C 96 % 1016,9 hPa 0,0 l/m 2,8 km/h (1 Bft) O-SO 118 0 min 0,000 mm 0,8 UV-I 113 W/m 12,2 C 12,8 C 6,4 km/h (2 Bft) 100,00 %
23.09.2018 10:42 12,7 C 20,0 C 14,4 C 96 % 1016,8 hPa 0,2 l/m 3,0 km/h (1 Bft) O-SO 123 0 min 0,000 mm 0,8 UV-I 116 W/m 12,1 C 12,7 C 4,8 km/h (1 Bft) 97,37 %
23.09.2018 10:44 12,7 C 20,0 C 14,4 C 96 % 1016,8 hPa 0,0 l/m 3,2 km/h (1 Bft) O-SO 104 0 min 0,000 mm 0,8 UV-I 130 W/m 12,1 C 12,7 C 4,8 km/h (1 Bft) 100,00 %
23.09.2018 10:46 12,6 C 20,0 C 14,4 C 96 % 1016,8 hPa 0,0 l/m 2,8 km/h (1 Bft) O-SO 108 0 min 0,000 mm 0,7 UV-I 117 W/m 12,0 C 12,6 C 4,8 km/h (1 Bft) 100,00 %
23.09.2018 10:48 12,6 C 20,0 C 14,4 C 96 % 1016,8 hPa 0,0 l/m 4,1 km/h (1 Bft) SO 126 0 min 0,000 mm 0,7 UV-I 112 W/m 12,0 C 12,6 C 6,4 km/h (2 Bft) 100,00 %
23.09.2018 10:50 12,6 C 20,0 C 14,4 C 96 % 1016,8 hPa 0,2 l/m 3,5 km/h (1 Bft) O 100 0 min 0,000 mm 0,7 UV-I 115 W/m 12,0 C 12,6 C 4,8 km/h (1 Bft) 100,00 %
23.09.2018 10:52 12,7 C 20,0 C 14,4 C 96 % 1016,7 hPa 0,0 l/m 3,9 km/h (1 Bft) SO 138 0 min 0,000 mm 0,7 UV-I 115 W/m 12,1 C 12,7 C 6,4 km/h (2 Bft) 100,00 %
23.09.2018 10:54 12,6 C 20,0 C 14,4 C 96 % 1016,7 hPa 0,0 l/m 5,1 km/h (1 Bft) O 92 0 min 0,000 mm 0,8 UV-I 120 W/m 12,0 C 12,6 C 9,7 km/h (2 Bft) 100,00 %
23.09.2018 10:56 12,7 C 20,0 C 14,4 C 96 % 1016,7 hPa 0,2 l/m 4,9 km/h (1 Bft) O 83 0 min 0,000 mm 0,8 UV-I 117 W/m 12,1 C 12,7 C 6,4 km/h (2 Bft) 100,00 %
23.09.2018 10:58 12,8 C 20,0 C 14,4 C 96 % 1016,6 hPa 0,0 l/m 4,2 km/h (1 Bft) O 84 0 min 0,000 mm 0,8 UV-I 111 W/m 12,2 C 12,8 C 6,4 km/h (2 Bft) 100,00 %
23.09.2018 11:00 12,8 C 20,0 C 14,4 C 96 % 1016,6 hPa 0,2 l/m 3,8 km/h (1 Bft) SO 126 0 min 0,051 mm 0,8 UV-I 113 W/m 12,2 C 12,8 C 6,4 km/h (2 Bft) 100,00 %
23.09.2018 11:02 12,8 C 20,0 C 14,4 C 96 % 1016,6 hPa 0,0 l/m 3,7 km/h (1 Bft) O-SO 109 0 min 0,000 mm 0,8 UV-I 117 W/m 12,2 C 12,8 C 6,4 km/h (2 Bft) 100,00 %
23.09.2018 11:04 12,7 C 20,0 C 14,4 C 96 % 1016,6 hPa 0,0 l/m 4,5 km/h (1 Bft) O-SO 117 0 min 0,000 mm 0,9 UV-I 129 W/m 12,1 C 12,7 C 11,3 km/h (2 Bft) 97,87 %
23.09.2018 11:06 12,7 C 20,0 C 14,4 C 96 % 1016,6 hPa 0,2 l/m 6,7 km/h (2 Bft) O-SO 121 0 min 0,000 mm 0,9 UV-I 131 W/m 12,1 C 12,5 C 11,3 km/h (2 Bft) 100,00 %
23.09.2018 11:08 12,8 C 20,0 C 14,4 C 96 % 1016,6 hPa 0,0 l/m 3,6 km/h (1 Bft) O 82 0 min 0,000 mm 0,9 UV-I 131 W/m 12,2 C 12,8 C 6,4 km/h (2 Bft) 98,00 %
23.09.2018 11:10 12,8 C 20,0 C 14,4 C 96 % 1016,6 hPa 0,2 l/m 2,9 km/h (1 Bft) O 82 0 min 0,000 mm 0,8 UV-I 116 W/m 12,2 C 12,8 C 4,8 km/h (1 Bft) 100,00 %
23.09.2018 11:12 12,9 C 19,4 C 15,0 C 96 % 1016,5 hPa 0,0 l/m 6,3 km/h (2 Bft) SO 138 0 min 0,000 mm 0,9 UV-I 127 W/m 12,3 C 12,9 C 11,3 km/h (2 Bft) 97,87 %
23.09.2018 11:14 12,9 C 20,0 C 15,0 C 96 % 1016,5 hPa 0,0 l/m 5,7 km/h (1 Bft) O-SO 120 0 min 0,000 mm 0,9 UV-I 124 W/m 12,3 C 12,9 C 11,3 km/h (2 Bft) 97,87 %
23.09.2018 11:16 12,8 C 20,0 C 14,4 C 96 % 1016,4 hPa 0,2 l/m 7,1 km/h (2 Bft) O-SO 105 0 min 0,000 mm 0,9 UV-I 119 W/m 12,2 C 12,4 C 12,9 km/h (3 Bft) 94,00 %
23.09.2018 11:18 12,8 C 19,4 C 14,4 C 96 % 1016,4 hPa 0,0 l/m 6,2 km/h (2 Bft) O-SO 105 0 min 0,000 mm 0,8 UV-I 113 W/m 12,2 C 12,8 C 11,3 km/h (2 Bft) 93,62 %
23.09.2018 11:20 12,9 C 19,4 C 14,4 C 96 % 1016,4 hPa 0,0 l/m 5,5 km/h (1 Bft) O 84 0 min 0,000 mm 0,8 UV-I 122 W/m 12,3 C 12,9 C 11,3 km/h (2 Bft) 97,37 %
23.09.2018 11:22 12,9 C 19,4 C 14,4 C 96 % 1016,4 hPa 0,2 l/m 4,9 km/h (1 Bft) O-SO 123 0 min 0,000 mm 0,8 UV-I 115 W/m 12,3 C 12,9 C 11,3 km/h (2 Bft) 93,62 %
23.09.2018 11:24 12,8 C 19,4 C 14,4 C 96 % 1016,3 hPa 0,0 l/m 5,8 km/h (2 Bft) O-SO 113 0 min 0,000 mm 0,8 UV-I 103 W/m 12,2 C 12,8 C 9,7 km/h (2 Bft) 95,74 %
23.09.2018 11:26 12,9 C 19,4 C 14,4 C 96 % 1016,3 hPa 0,0 l/m 3,9 km/h (1 Bft) O 86 0 min 0,000 mm 0,8 UV-I 100 W/m 12,3 C 12,9 C 6,4 km/h (2 Bft) 96,23 %
23.09.2018 11:28 13,0 C 19,4 C 15,0 C 96 % 1016,3 hPa 0,2 l/m 5,8 km/h (2 Bft) O-SO 103 0 min 0,000 mm 0,9 UV-I 129 W/m 12,4 C 13,0 C 11,3 km/h (2 Bft) 96,00 %
23.09.2018 11:30 12,9 C 19,4 C 14,4 C 96 % 1016,3 hPa 0,0 l/m 6,3 km/h (2 Bft) O 94 0 min 0,000 mm 0,9 UV-I 135 W/m 12,3 C 12,9 C 11,3 km/h (2 Bft) 97,14 %
23.09.2018 11:32 12,9 C 19,4 C 14,4 C 96 % 1016,2 hPa 0,0 l/m 7,8 km/h (2 Bft) O-SO 107 0 min 0,000 mm 0,8 UV-I 111 W/m 12,3 C 12,0 C 12,9 km/h (3 Bft) 93,22 %
23.09.2018 11:34 12,9 C 19,4 C 14,4 C 96 % 1016,2 hPa 0,2 l/m 6,5 km/h (2 Bft) O 88 0 min 0,000 mm 0,8 UV-I 109 W/m 12,3 C 12,9 C 12,9 km/h (3 Bft) 94,74 %
23.09.2018 11:36 12,8 C 19,4 C 14,4 C 96 % 1016,2 hPa 0,0 l/m 7,5 km/h (2 Bft) O-SO 111 0 min 0,000 mm 0,7 UV-I 96 W/m 12,2 C 12,1 C 11,3 km/h (2 Bft) 92,00 %
23.09.2018 11:38 12,9 C 19,4 C 14,4 C 96 % 1016,2 hPa 0,0 l/m 6,1 km/h (2 Bft) O-SO 113 0 min 0,000 mm 0,8 UV-I 95 W/m 12,3 C 12,9 C 9,7 km/h (2 Bft) 88,68 %
23.09.2018 11:40 12,9 C 19,4 C 14,4 C 96 % 1016,3 hPa 0,2 l/m 8,1 km/h (2 Bft) SO 131 0 min 0,000 mm 0,8 UV-I 108 W/m 12,3 C 11,8 C 14,5 km/h (3 Bft) 94,29 %
23.09.2018 11:42 12,9 C 19,4 C 14,4 C 96 % 1016,2 hPa 0,2 l/m 8,4 km/h (2 Bft) O-SO 123 0 min 0,000 mm 0,9 UV-I 125 W/m 12,3 C 11,7 C 12,9 km/h (3 Bft) 89,36 %
23.09.2018 11:44 12,9 C 19,4 C 14,4 C 96 % 1016,3 hPa 0,0 l/m 6,1 km/h (2 Bft) O-SO 109 0 min 0,000 mm 0,8 UV-I 111 W/m 12,3 C 12,9 C 11,3 km/h (2 Bft) 92,00 %
23.09.2018 11:46 13,1 C 19,4 C 14,4 C 96 % 1016,2 hPa 0,2 l/m 4,1 km/h (1 Bft) SO 145 0 min 0,000 mm 0,7 UV-I 96 W/m 12,5 C 13,1 C 6,4 km/h (2 Bft) 95,24 %
23.09.2018 11:49 13,0 C 19,4 C 14,4 C 96 % 1016,1 hPa 0,0 l/m 6,2 km/h (2 Bft) O-SO 109 0 min 0,000 mm 0,7 UV-I 87 W/m 12,4 C 13,0 C 11,3 km/h (2 Bft) 94,94 %
23.09.2018 11:50 13,1 C 19,4 C 14,4 C 96 % 1016,1 hPa 0,2 l/m 5,9 km/h (2 Bft) O 94 0 min 0,000 mm 0,6 UV-I 77 W/m 12,5 C 13,1 C 6,4 km/h (2 Bft) 86,67 %
23.09.2018 11:52 13,1 C 19,4 C 14,4 C 96 % 1016,1 hPa 0,0 l/m 6,4 km/h (2 Bft) O 99 0 min 0,000 mm 0,6 UV-I 74 W/m 12,5 C 13,1 C 9,7 km/h (2 Bft) 96,43 %
23.09.2018 11:54 13,1 C 19,4 C 14,4 C 96 % 1016,1 hPa 0,2 l/m 5,4 km/h (1 Bft) O-SO 121 0 min 0,000 mm 0,7 UV-I 86 W/m 12,5 C 13,1 C 8,0 km/h (2 Bft) 95,12 %
23.09.2018 11:56 13,1 C 19,4 C 14,4 C 96 % 1016,1 hPa 0,2 l/m 6,1 km/h (2 Bft) O-SO 119 0 min 0,000 mm 0,7 UV-I 92 W/m 12,5 C 13,1 C 12,9 km/h (3 Bft) 97,87 %
23.09.2018 11:58 13,1 C 19,4 C 14,4 C 96 % 1016,1 hPa 0,2 l/m 4,8 km/h (1 Bft) O-SO 103 0 min 0,000 mm 0,8 UV-I 104 W/m 12,5 C 13,1 C 11,3 km/h (2 Bft) 98,00 %
23.09.2018 12:00 13,1 C 19,4 C 14,4 C 96 % 1016,1 hPa 0,0 l/m 4,7 km/h (1 Bft) O 91 0 min 0,051 mm 0,8 UV-I 98 W/m 12,5 C 13,1 C 11,3 km/h (2 Bft) 91,49 %
23.09.2018 12:02 13,2 C 19,4 C 14,4 C 96 % 1016,0 hPa 0,2 l/m 3,2 km/h (1 Bft) O-NO 77 0 min 0,000 mm 0,9 UV-I 111 W/m 12,6 C 13,2 C 4,8 km/h (1 Bft) 94,74 %
23.09.2018 12:04 13,2 C 19,4 C 14,4 C 96 % 1016,0 hPa 0,0 l/m 5,7 km/h (1 Bft) O-SO 115 0 min 0,000 mm 0,9 UV-I 116 W/m 12,6 C 13,2 C 11,3 km/h (2 Bft) 96,43 %
23.09.2018 12:06 13,2 C 19,4 C 15,0 C 96 % 1016,1 hPa 0,0 l/m 4,4 km/h (1 Bft) SO 124 0 min 0,000 mm 0,8 UV-I 104 W/m 12,6 C 13,2 C 8,0 km/h (2 Bft) 94,74 %
23.09.2018 12:08 13,2 C 19,4 C 15,0 C 96 % 1016,0 hPa 0,4 l/m 5,3 km/h (1 Bft) O-SO 105 0 min 0,000 mm 0,9 UV-I 110 W/m 12,6 C 13,2 C 9,7 km/h (2 Bft) 94,34 %
23.09.2018 12:10 13,3 C 19,4 C 15,0 C 96 % 1015,9 hPa 0,4 l/m 5,7 km/h (1 Bft) O-SO 121 0 min 0,000 mm 0,9 UV-I 114 W/m 12,7 C 13,3 C 8,0 km/h (2 Bft) 97,87 %
23.09.2018 12:12 13,3 C 19,4 C 15,0 C 96 % 1015,8 hPa 0,2 l/m 7,0 km/h (2 Bft) O-SO 112 0 min 0,000 mm 0,9 UV-I 118 W/m 12,7 C 12,9 C 11,3 km/h (2 Bft) 95,45 %
23.09.2018 12:14 13,3 C 19,4 C 15,0 C 96 % 1015,8 hPa 0,0 l/m 4,5 km/h (1 Bft) O-SO 120 0 min 0,000 mm 1,0 UV-I 129 W/m 12,7 C 13,3 C 6,4 km/h (2 Bft) 98,11 %
23.09.2018 12:16 13,4 C 19,4 C 15,6 C 96 % 1015,7 hPa 0,2 l/m 3,8 km/h (1 Bft) O-NO 66 0 min 0,000 mm 1,4 UV-I 199 W/m 12,8 C 13,4 C 6,4 km/h (2 Bft) 97,87 %
23.09.2018 12:19 13,5 C 19,4 C 16,1 C 96 % 1015,6 hPa 0,2 l/m 5,2 km/h (1 Bft) O 88 0 min 0,000 mm 1,5 UV-I 221 W/m 12,9 C 13,5 C 9,7 km/h (2 Bft) 97,18 %
23.09.2018 12:20 13,4 C 19,4 C 16,1 C 96 % 1015,6 hPa 0,0 l/m 4,8 km/h (1 Bft) O 84 0 min 0,000 mm 1,6 UV-I 236 W/m 12,8 C 13,4 C 6,4 km/h (2 Bft) 100,00 %
23.09.2018 12:22 13,5 C 19,4 C 16,7 C 96 % 1015,6 hPa 0,0 l/m 6,0 km/h (2 Bft) O 83 0 min 0,000 mm 1,5 UV-I 213 W/m 12,9 C 13,5 C 9,7 km/h (2 Bft) 100,00 %
23.09.2018 12:24 13,6 C 19,4 C 16,7 C 96 % 1015,6 hPa 0,0 l/m 6,9 km/h (2 Bft) O 101 0 min 0,000 mm 1,7 UV-I 233 W/m 13,0 C 13,3 C 11,3 km/h (2 Bft) 100,00 %
23.09.2018 12:26 13,8 C 19,4 C 17,8 C 97 % 1015,5 hPa 0,0 l/m 6,4 km/h (2 Bft) SO 126 0 min 0,000 mm 2,4 UV-I 318 W/m 13,3 C 13,8 C 12,9 km/h (3 Bft) 100,00 %
23.09.2018 12:28 13,8 C 19,4 C 19,4 C 97 % 1015,6 hPa 0,0 l/m 5,4 km/h (1 Bft) O-SO 105 0 min 0,000 mm 3,1 UV-I 336 W/m 13,3 C 13,8 C 9,7 km/h (2 Bft) 100,00 %
23.09.2018 12:30 14,0 C 19,4 C 19,4 C 97 % 1015,6 hPa 0,0 l/m 5,5 km/h (1 Bft) O-SO 109 2 min 0,000 mm 2,5 UV-I 456 W/m 13,5 C 14,0 C 11,3 km/h (2 Bft) 97,87 %
23.09.2018 12:32 14,0 C 19,4 C 18,9 C 97 % 1015,6 hPa 0,0 l/m 5,6 km/h (1 Bft) SO 128 0 min 0,000 mm 2,0 UV-I 228 W/m 13,5 C 14,0 C 9,7 km/h (2 Bft) 100,00 %
23.09.2018 12:34 14,0 C 19,4 C 18,9 C 96 % 1015,5 hPa 0,0 l/m 5,9 km/h (2 Bft) O 79 0 min 0,000 mm 2,4 UV-I 303 W/m 13,4 C 14,0 C 9,7 km/h (2 Bft) 100,00 %
23.09.2018 12:36 14,2 C 19,4 C 19,4 C 97 % 1015,4 hPa 0,0 l/m 6,4 km/h (2 Bft) O 100 2 min 0,000 mm 2,7 UV-I 376 W/m 13,7 C 14,2 C 9,7 km/h (2 Bft) 97,37 %
23.09.2018 12:38 14,2 C 19,4 C 20,0 C 96 % 1015,4 hPa 0,0 l/m 7,3 km/h (2 Bft) O-SO 109 2 min 0,000 mm 2,7 UV-I 390 W/m 13,6 C 13,7 C 11,3 km/h (2 Bft) 100,00 %
23.09.2018 12:40 14,2 C 19,4 C 19,4 C 96 % 1015,3 hPa 0,0 l/m 9,3 km/h (2 Bft) O-SO 102 0 min 0,000 mm 2,7 UV-I 333 W/m 13,6 C 12,6 C 11,3 km/h (2 Bft) 100,00 %
23.09.2018 12:42 14,2 C 20,0 C 20,6 C 96 % 1015,2 hPa 0,0 l/m 8,4 km/h (2 Bft) O 84 2 min 0,000 mm 3,2 UV-I 498 W/m 13,6 C 13,0 C 12,9 km/h (3 Bft) 97,87 %
23.09.2018 12:44 14,5 C 19,4 C 20,6 C 96 % 1015,3 hPa 0,0 l/m 6,1 km/h (2 Bft) O-NO 61 2 min 0,000 mm 2,8 UV-I 536 W/m 13,9 C 14,5 C 11,3 km/h (2 Bft) 100,00 %
23.09.2018 12:46 14,4 C 19,4 C 19,4 C 96 % 1015,3 hPa 0,0 l/m 8,7 km/h (2 Bft) O 94 0 min 0,000 mm 2,0 UV-I 290 W/m 13,8 C 13,1 C 11,3 km/h (2 Bft) 100,00 %
23.09.2018 12:48 14,3 C 19,4 C 18,3 C 95 % 1015,3 hPa 0,0 l/m 7,7 km/h (2 Bft) O-NO 73 0 min 0,000 mm 1,7 UV-I 194 W/m 13,5 C 13,5 C 12,9 km/h (3 Bft) 97,73 %
23.09.2018 12:50 14,3 C 19,4 C 17,8 C 95 % 1015,3 hPa 0,0 l/m 6,6 km/h (2 Bft) O 96 0 min 0,000 mm 1,4 UV-I 179 W/m 13,5 C 14,2 C 9,7 km/h (2 Bft) 97,56 %
23.09.2018 12:52 14,4 C 19,4 C 17,2 C 95 % 1015,3 hPa 0,0 l/m 7,6 km/h (2 Bft) O-NO 58 0 min 0,000 mm 1,3 UV-I 154 W/m 13,6 C 13,7 C 12,9 km/h (3 Bft) 98,00 %
23.09.2018 12:54 14,4 C 19,4 C 16,7 C 95 % 1015,3 hPa 0,0 l/m 7,8 km/h (2 Bft) O 100 0 min 0,000 mm 1,1 UV-I 131 W/m 13,6 C 13,6 C 11,3 km/h (2 Bft) 100,00 %
23.09.2018 12:56 14,4 C 19,4 C 16,7 C 95 % 1015,3 hPa 0,0 l/m 7,4 km/h (2 Bft) O-SO 111 0 min 0,000 mm 0,8 UV-I 101 W/m 13,6 C 13,8 C 11,3 km/h (2 Bft) 100,00 %
23.09.2018 12:58 14,4 C 19,4 C 16,7 C 95 % 1015,2 hPa 0,0 l/m 5,6 km/h (1 Bft) O-SO 115 0 min 0,000 mm 0,9 UV-I 108 W/m 13,6 C 14,4 C 9,7 km/h (2 Bft) 97,87 %
23.09.2018 13:00 14,4 C 19,4 C 16,1 C 95 % 1015,2 hPa 0,0 l/m 4,5 km/h (1 Bft) SO 141 0 min 0,127 mm 0,5 UV-I 72 W/m 13,6 C 14,4 C 9,7 km/h (2 Bft) 97,62 %
23.09.2018 13:02 14,3 C 19,4 C 16,1 C 95 % 1015,2 hPa 0,0 l/m 2,6 km/h (1 Bft) SO 128 0 min 0,000 mm 0,9 UV-I 79 W/m 13,5 C 14,3 C 6,4 km/h (2 Bft) 100,00 %
23.09.2018 13:04 14,4 C 19,4 C 16,7 C 96 % 1015,2 hPa 0,0 l/m 4,6 km/h (1 Bft) O-SO 102 0 min 0,000 mm 1,1 UV-I 106 W/m 13,8 C 14,4 C 9,7 km/h (2 Bft) 96,15 %
23.09.2018 13:06 14,6 C 20,0 C 16,7 C 96 % 1015,2 hPa 0,0 l/m 5,6 km/h (1 Bft) O-SO 113 0 min 0,000 mm 1,3 UV-I 138 W/m 14,0 C 14,6 C 9,7 km/h (2 Bft) 100,00 %
23.09.2018 13:08 14,5 C 19,4 C 17,2 C 95 % 1015,1 hPa 0,0 l/m 5,0 km/h (1 Bft) O-NO 61 0 min 0,000 mm 1,4 UV-I 139 W/m 13,7 C 14,5 C 9,7 km/h (2 Bft) 95,74 %
23.09.2018 13:10 14,5 C 20,0 C 17,2 C 95 % 1015,0 hPa 0,0 l/m 3,4 km/h (1 Bft) O 90 0 min 0,000 mm 1,6 UV-I 154 W/m 13,7 C 14,5 C 6,4 km/h (2 Bft) 95,74 %
23.09.2018 13:12 14,5 C 20,0 C 17,2 C 95 % 1014,9 hPa 0,0 l/m 4,2 km/h (1 Bft) O 94 0 min 0,000 mm 2,0 UV-I 187 W/m 13,7 C 14,5 C 6,4 km/h (2 Bft) 96,23 %
23.09.2018 13:14 14,6 C 20,0 C 17,2 C 95 % 1015,0 hPa 0,0 l/m 5,2 km/h (1 Bft) O 91 0 min 0,000 mm 2,1 UV-I 168 W/m 13,8 C 14,6 C 6,4 km/h (2 Bft) 95,74 %
23.09.2018 13:16 14,5 C 20,0 C 17,2 C 95 % 1014,9 hPa 0,0 l/m 5,5 km/h (1 Bft) O-SO 103 0 min 0,000 mm 1,9 UV-I 120 W/m 13,7 C 14,5 C 9,7 km/h (2 Bft) 95,45 %
23.09.2018 13:18 14,6 C 19,4 C 17,2 C 95 % 1014,9 hPa 0,0 l/m 4,7 km/h (1 Bft) O 94 0 min 0,000 mm 1,8 UV-I 144 W/m 13,8 C 14,6 C 6,4 km/h (2 Bft) 94,34 %
23.09.2018 13:20 14,6 C 20,0 C 17,2 C 95 % 1014,8 hPa 0,0 l/m 7,4 km/h (2 Bft) O-NO 66 0 min 0,000 mm 1,7 UV-I 168 W/m 13,8 C 14,0 C 11,3 km/h (2 Bft) 93,62 %
23.09.2018 13:22 14,7 C 19,4 C 17,2 C 95 % 1014,8 hPa 0,0 l/m 6,2 km/h (2 Bft) O 80 0 min 0,000 mm 1,6 UV-I 164 W/m 13,9 C 14,7 C 9,7 km/h (2 Bft) 95,12 %
23.09.2018 13:24 14,7 C 20,0 C 17,8 C 95 % 1014,7 hPa 0,0 l/m 4,6 km/h (1 Bft) O-NO 65 0 min 0,000 mm 1,7 UV-I 192 W/m 13,9 C 14,7 C 6,4 km/h (2 Bft) 97,87 %
23.09.2018 13:26 14,9 C 20,0 C 18,3 C 95 % 1014,7 hPa 0,0 l/m 5,6 km/h (1 Bft) O 101 0 min 0,000 mm 1,7 UV-I 189 W/m 14,1 C 14,9 C 9,7 km/h (2 Bft) 96,00 %
23.09.2018 13:28 15,1 C 20,0 C 18,3 C 95 % 1014,7 hPa 0,0 l/m 5,7 km/h (1 Bft) SO 136 0 min 0,000 mm 1,9 UV-I 202 W/m 14,3 C 15,1 C 11,3 km/h (2 Bft) 94,74 %
23.09.2018 13:30 15,1 C 20,0 C 18,9 C 96 % 1014,8 hPa 0,0 l/m 3,4 km/h (1 Bft) O-SO 117 0 min 0,000 mm 2,0 UV-I 210 W/m 14,5 C 15,1 C 6,4 km/h (2 Bft) 98,00 %
23.09.2018 13:32 15,1 C 20,0 C 18,9 C 95 % 1014,7 hPa 0,0 l/m 9,7 km/h (2 Bft) O-SO 123 0 min 0,000 mm 1,9 UV-I 200 W/m 14,3 C 13,4 C 12,9 km/h (3 Bft) 98,00 %
23.09.2018 13:34 15,0 C 20,0 C 18,3 C 95 % 1014,6 hPa 0,0 l/m 8,2 km/h (2 Bft) SO 144 0 min 0,000 mm 1,4 UV-I 129 W/m 14,2 C 14,0 C 12,9 km/h (3 Bft) 98,00 %
23.09.2018 13:36 14,9 C 20,0 C 17,8 C 95 % 1014,6 hPa 0,0 l/m 6,3 km/h (2 Bft) SO 138 0 min 0,000 mm 1,1 UV-I 109 W/m 14,1 C 14,9 C 11,3 km/h (2 Bft) 95,74 %
23.09.2018 13:38 15,0 C 20,0 C 17,2 C 95 % 1014,4 hPa 0,0 l/m 7,7 km/h (2 Bft) O-SO 111 0 min 0,000 mm 1,1 UV-I 108 W/m 14,2 C 14,3 C 11,3 km/h (2 Bft) 95,12 %
23.09.2018 13:40 14,9 C 20,0 C 17,2 C 95 % 1014,5 hPa 0,0 l/m 5,5 km/h (1 Bft) SO 131 0 min 0,000 mm 1,0 UV-I 111 W/m 14,1 C 14,9 C 9,7 km/h (2 Bft) 96,23 %
23.09.2018 13:42 14,9 C 20,0 C 17,2 C 95 % 1014,2 hPa 0,0 l/m 9,1 km/h (2 Bft) O-SO 121 0 min 0,000 mm 1,4 UV-I 158 W/m 14,1 C 13,4 C 14,5 km/h (3 Bft) 97,62 %
23.09.2018 13:44 15,1 C 20,0 C 17,8 C 95 % 1014,2 hPa 0,0 l/m 7,9 km/h (2 Bft) O-SO 116 0 min 0,000 mm 1,9 UV-I 217 W/m 14,3 C 14,3 C 12,9 km/h (3 Bft) 100,00 %
23.09.2018 13:46 15,1 C 20,0 C 19,4 C 96 % 1014,2 hPa 0,0 l/m 6,5 km/h (2 Bft) SO 124 0 min 0,000 mm 2,6 UV-I 318 W/m 14,5 C 15,1 C 9,7 km/h (2 Bft) 100,00 %
23.09.2018 13:48 15,2 C 20,0 C 19,4 C 95 % 1014,1 hPa 0,0 l/m 4,7 km/h (1 Bft) O-SO 111 0 min 0,000 mm 2,4 UV-I 285 W/m 14,4 C 15,2 C 6,4 km/h (2 Bft) 100,00 %
23.09.2018 13:50 15,3 C 20,0 C 19,4 C 95 % 1014,0 hPa 0,0 l/m 5,1 km/h (1 Bft) O 94 0 min 0,000 mm 2,2 UV-I 256 W/m 14,5 C 15,3 C 11,3 km/h (2 Bft) 100,00 %
23.09.2018 13:52 15,4 C 20,0 C 19,4 C 96 % 1014,0 hPa 0,0 l/m 5,6 km/h (1 Bft) SO 142 0 min 0,000 mm 2,2 UV-I 254 W/m 14,8 C 15,4 C 9,7 km/h (2 Bft) 100,00 %
23.09.2018 13:54 15,4 C 20,0 C 19,4 C 95 % 1014,0 hPa 0,0 l/m 7,6 km/h (2 Bft) O 94 0 min 0,000 mm 1,8 UV-I 197 W/m 14,6 C 14,7 C 12,9 km/h (3 Bft) 97,37 %
23.09.2018 13:56 15,4 C 20,0 C 19,4 C 95 % 1014,0 hPa 0,0 l/m 7,5 km/h (2 Bft) O 101 0 min 0,000 mm 1,9 UV-I 207 W/m 14,6 C 14,8 C 9,7 km/h (2 Bft) 100,00 %
23.09.2018 13:58 15,4 C 20,0 C 18,9 C 95 % 1013,9 hPa 0,0 l/m 6,7 km/h (2 Bft) O-SO 102 0 min 0,000 mm 1,8 UV-I 178 W/m 14,6 C 15,2 C 14,5 km/h (3 Bft) 100,00 %
23.09.2018 14:00 15,3 C 20,0 C 18,3 C 95 % 1013,7 hPa 0,0 l/m 11,7 km/h (2 Bft) O 96 0 min 0,101 mm 1,7 UV-I 159 W/m 14,5 C 12,7 C 16,1 km/h (3 Bft) 100,00 %
23.09.2018 14:02 15,2 C 20,0 C 17,8 C 94 % 1013,8 hPa 0,0 l/m 11,7 km/h (2 Bft) O 98 0 min 0,000 mm 1,5 UV-I 144 W/m 14,2 C 12,6 C 16,1 km/h (3 Bft) 100,00 %
23.09.2018 14:04 15,2 C 20,0 C 17,8 C 94 % 1013,7 hPa 0,0 l/m 9,3 km/h (2 Bft) O 101 0 min 0,000 mm 1,7 UV-I 162 W/m 14,2 C 13,7 C 14,5 km/h (3 Bft) 100,00 %
23.09.2018 14:06 15,3 C 20,0 C 18,3 C 95 % 1013,6 hPa 0,0 l/m 8,3 km/h (2 Bft) O 93 0 min 0,000 mm 2,0 UV-I 177 W/m 14,5 C 14,3 C 12,9 km/h (3 Bft) 100,00 %
23.09.2018 14:08 15,4 C 20,0 C 18,9 C 95 % 1013,5 hPa 0,0 l/m 7,7 km/h (2 Bft) O-SO 113 0 min 0,000 mm 2,3 UV-I 233 W/m 14,6 C 14,7 C 11,3 km/h (2 Bft) 100,00 %
23.09.2018 14:10 15,5 C 20,0 C 19,4 C 95 % 1013,5 hPa 0,0 l/m 6,7 km/h (2 Bft) O-NO 72 0 min 0,000 mm 2,1 UV-I 232 W/m 14,7 C 15,3 C 9,7 km/h (2 Bft) 100,00 %
23.09.2018 14:12 15,6 C 20,0 C 19,4 C 95 % 1013,3 hPa 0,0 l/m 8,8 km/h (2 Bft) O-NO 67 0 min 0,000 mm 1,8 UV-I 192 W/m 14,8 C 14,3 C 14,5 km/h (3 Bft) 100,00 %
23.09.2018 14:14 15,6 C 20,0 C 18,9 C 94 % 1013,4 hPa 0,0 l/m 9,2 km/h (2 Bft) O-NO 71 0 min 0,000 mm 1,7 UV-I 180 W/m 14,6 C 14,1 C 14,5 km/h (3 Bft) 100,00 %
23.09.2018 14:16 15,6 C 20,0 C 18,9 C 94 % 1013,4 hPa 0,0 l/m 10,0 km/h (2 Bft) O-NO 69 0 min 0,000 mm 1,9 UV-I 202 W/m 14,6 C 13,8 C 14,5 km/h (3 Bft) 100,00 %
23.09.2018 14:18 15,8 C 20,0 C 20,0 C 94 % 1013,3 hPa 0,0 l/m 10,6 km/h (2 Bft) O-NO 75 0 min 0,000 mm 2,3 UV-I 263 W/m 14,8 C 13,7 C 14,5 km/h (3 Bft) 100,00 %
23.09.2018 14:20 15,8 C 20,0 C 20,6 C 94 % 1013,2 hPa 0,0 l/m 8,3 km/h (2 Bft) O 96 0 min 0,000 mm 2,4 UV-I 335 W/m 14,8 C 14,8 C 12,9 km/h (3 Bft) 100,00 %
23.09.2018 14:22 15,9 C 20,0 C 21,7 C 94 % 1013,2 hPa 0,0 l/m 10,4 km/h (2 Bft) O 91 0 min 0,000 mm 2,5 UV-I 305 W/m 14,9 C 13,9 C 14,5 km/h (3 Bft) 100,00 %
23.09.2018 14:24 16,0 C 20,0 C 21,7 C 94 % 1013,1 hPa 0,0 l/m 9,0 km/h (2 Bft) O 95 0 min 0,000 mm 2,5 UV-I 292 W/m 15,0 C 14,7 C 14,5 km/h (3 Bft) 100,00 %
23.09.2018 14:26 16,1 C 20,0 C 21,1 C 94 % 1013,1 hPa 0,0 l/m 9,1 km/h (2 Bft) O 81 0 min 0,000 mm 1,8 UV-I 192 W/m 15,1 C 14,7 C 12,9 km/h (3 Bft) 98,00 %
23.09.2018 14:28 16,2 C 20,0 C 20,6 C 94 % 1013,1 hPa 0,0 l/m 6,8 km/h (2 Bft) O 80 0 min 0,000 mm 1,6 UV-I 164 W/m 15,2 C 16,0 C 12,9 km/h (3 Bft) 95,74 %
23.09.2018 14:30 16,2 C 20,0 C 20,0 C 93 % 1013,1 hPa 0,0 l/m 7,3 km/h (2 Bft) O-SO 103 0 min 0,000 mm 1,5 UV-I 170 W/m 15,1 C 15,7 C 11,3 km/h (2 Bft) 98,00 %
23.09.2018 14:32 16,2 C 20,0 C 20,0 C 94 % 1012,9 hPa 0,0 l/m 6,9 km/h (2 Bft) O-NO 70 0 min 0,000 mm 1,4 UV-I 162 W/m 15,2 C 15,9 C 11,3 km/h (2 Bft) 97,37 %
23.09.2018 14:34 16,2 C 20,0 C 19,4 C 93 % 1012,9 hPa 0,0 l/m 9,0 km/h (2 Bft) O-NO 73 0 min 0,000 mm 1,5 UV-I 168 W/m 15,1 C 14,9 C 12,9 km/h (3 Bft) 96,23 %
23.09.2018 14:36 16,2 C 20,0 C 19,4 C 93 % 1012,8 hPa 0,0 l/m 6,6 km/h (2 Bft) O 79 0 min 0,000 mm 1,7 UV-I 184 W/m 15,1 C 16,1 C 11,3 km/h (2 Bft) 95,12 %
23.09.2018 14:38 16,3 C 20,0 C 20,0 C 93 % 1012,8 hPa 0,0 l/m 10,3 km/h (2 Bft) O-NO 61 0 min 0,000 mm 1,9 UV-I 222 W/m 15,2 C 14,4 C 14,5 km/h (3 Bft) 98,21 %
23.09.2018 14:40 16,4 C 20,0 C 21,1 C 93 % 1012,8 hPa 0,0 l/m 7,3 km/h (2 Bft) O-NO 67 0 min 0,000 mm 2,5 UV-I 267 W/m 15,3 C 15,9 C 12,9 km/h (3 Bft) 97,56 %
23.09.2018 14:42 16,5 C 20,0 C 21,1 C 93 % 1012,7 hPa 0,0 l/m 8,5 km/h (2 Bft) O-NO 63 0 min 0,000 mm 2,0 UV-I 251 W/m 15,4 C 15,4 C 11,3 km/h (2 Bft) 95,74 %
23.09.2018 14:44 16,5 C 20,0 C 21,1 C 93 % 1012,7 hPa 0,0 l/m 9,1 km/h (2 Bft) O-NO 77 0 min 0,000 mm 2,2 UV-I 289 W/m 15,4 C 15,2 C 12,9 km/h (3 Bft) 98,21 %
23.09.2018 14:46 16,5 C 20,0 C 21,7 C 93 % 1012,7 hPa 0,0 l/m 9,7 km/h (2 Bft) O-NO 74 0 min 0,000 mm 2,3 UV-I 280 W/m 15,4 C 14,9 C 12,9 km/h (3 Bft) 97,73 %
23.09.2018 14:48 16,6 C 20,0 C 21,7 C 92 % 1012,6 hPa 0,0 l/m 8,9 km/h (2 Bft) O 82 0 min 0,000 mm 2,2 UV-I 319 W/m 15,3 C 15,4 C 12,9 km/h (3 Bft) 97,37 %
23.09.2018 14:50 16,7 C 20,0 C 22,2 C 93 % 1012,6 hPa 0,0 l/m 7,7 km/h (2 Bft) O 86 0 min 0,000 mm 2,1 UV-I 317 W/m 15,6 C 16,0 C 11,3 km/h (2 Bft) 100,00 %
23.09.2018 14:52 16,7 C 20,0 C 22,2 C 92 % 1012,6 hPa 0,0 l/m 9,9 km/h (2 Bft) O 97 0 min 0,000 mm 2,1 UV-I 284 W/m 15,4 C 15,0 C 12,9 km/h (3 Bft) 98,00 %
23.09.2018 14:54 16,8 C 20,0 C 22,8 C 92 % 1012,5 hPa 0,0 l/m 8,9 km/h (2 Bft) O 86 2 min 0,000 mm 2,3 UV-I 331 W/m 15,5 C 15,6 C 12,9 km/h (3 Bft) 100,00 %
23.09.2018 14:56 16,9 C 20,0 C 22,2 C 92 % 1012,4 hPa 0,0 l/m 9,1 km/h (2 Bft) O-NO 71 0 min 0,000 mm 2,0 UV-I 288 W/m 15,6 C 15,6 C 11,3 km/h (2 Bft) 95,83 %
23.09.2018 14:58 17,1 C 20,0 C 22,2 C 92 % 1012,4 hPa 0,0 l/m 9,0 km/h (2 Bft) O-NO 74 0 min 0,000 mm 1,9 UV-I 223 W/m 15,8 C 15,9 C 14,5 km/h (3 Bft) 100,00 %
23.09.2018 15:00 16,9 C 20,0 C 21,7 C 91 % 1012,3 hPa 0,0 l/m 9,9 km/h (2 Bft) O-SO 107 0 min 0,127 mm 1,9 UV-I 259 W/m 15,4 C 15,3 C 12,9 km/h (3 Bft) 100,00 %
23.09.2018 15:02 17,0 C 20,0 C 21,7 C 92 % 1012,3 hPa 0,0 l/m 8,0 km/h (2 Bft) O 98 0 min 0,000 mm 1,8 UV-I 236 W/m 15,7 C 16,2 C 16,1 km/h (3 Bft) 100,00 %
23.09.2018 15:04 16,9 C 20,0 C 21,7 C 91 % 1012,2 hPa 0,0 l/m 10,4 km/h (2 Bft) O 97 0 min 0,000 mm 1,6 UV-I 207 W/m 15,4 C 15,1 C 12,9 km/h (3 Bft) 98,11 %
23.09.2018 15:06 17,0 C 20,0 C 21,1 C 91 % 1012,2 hPa 0,0 l/m 9,5 km/h (2 Bft) O 96 0 min 0,000 mm 1,5 UV-I 179 W/m 15,5 C 15,5 C 14,5 km/h (3 Bft) 97,56 %
23.09.2018 15:08 16,9 C 20,0 C 20,6 C 91 % 1012,2 hPa 0,0 l/m 9,6 km/h (2 Bft) O-NO 63 0 min 0,000 mm 1,3 UV-I 165 W/m 15,4 C 15,4 C 14,5 km/h (3 Bft) 98,00 %
23.09.2018 15:10 16,9 C 20,0 C 20,6 C 92 % 1012,2 hPa 0,0 l/m 9,9 km/h (2 Bft) O-NO 65 0 min 0,000 mm 1,5 UV-I 195 W/m 15,6 C 15,3 C 14,5 km/h (3 Bft) 97,87 %
23.09.2018 15:12 16,8 C 20,0 C 20,6 C 91 % 1012,2 hPa 0,0 l/m 8,5 km/h (2 Bft) O-NO 78 0 min 0,000 mm 1,4 UV-I 180 W/m 15,3 C 15,8 C 11,3 km/h (2 Bft) 98,00 %
23.09.2018 15:14 16,8 C 20,0 C 20,0 C 91 % 1012,1 hPa 0,0 l/m 7,9 km/h (2 Bft) O-NO 64 0 min 0,000 mm 1,3 UV-I 151 W/m 15,3 C 16,0 C 12,9 km/h (3 Bft) 97,37 %
23.09.2018 15:16 16,8 C 20,0 C 19,4 C 92 % 1012,1 hPa 0,0 l/m 9,3 km/h (2 Bft) O-NO 71 0 min 0,000 mm 1,1 UV-I 131 W/m 15,5 C 15,4 C 12,9 km/h (3 Bft) 96,43 %
23.09.2018 15:18 16,8 C 20,0 C 19,4 C 92 % 1012,0 hPa 0,0 l/m 9,2 km/h (2 Bft) O-NO 78 0 min 0,000 mm 1,0 UV-I 122 W/m 15,5 C 15,4 C 12,9 km/h (3 Bft) 97,56 %
23.09.2018 15:20 16,8 C 20,0 C 19,4 C 92 % 1011,9 hPa 0,0 l/m 11,2 km/h (2 Bft) O 97 0 min 0,000 mm 1,0 UV-I 137 W/m 15,5 C 14,6 C 14,5 km/h (3 Bft) 98,00 %
23.09.2018 15:22 16,8 C 20,0 C 20,0 C 92 % 1011,7 hPa 0,0 l/m 11,0 km/h (2 Bft) O 92 0 min 0,000 mm 1,4 UV-I 183 W/m 15,5 C 14,7 C 14,5 km/h (3 Bft) 94,00 %
23.09.2018 15:24 16,8 C 20,0 C 20,0 C 92 % 1011,6 hPa 0,0 l/m 10,6 km/h (2 Bft) O 93 0 min 0,000 mm 1,5 UV-I 208 W/m 15,5 C 14,9 C 14,5 km/h (3 Bft) 97,37 %
23.09.2018 15:26 16,9 C 20,0 C 20,6 C 92 % 1011,5 hPa 0,0 l/m 11,1 km/h (2 Bft) O-NO 64 0 min 0,000 mm 1,6 UV-I 216 W/m 15,6 C 14,8 C 14,5 km/h (3 Bft) 97,87 %
23.09.2018 15:28 16,9 C 20,0 C 20,6 C 92 % 1011,5 hPa 0,0 l/m 8,7 km/h (2 Bft) O 80 0 min 0,000 mm 1,4 UV-I 175 W/m 15,6 C 15,8 C 12,9 km/h (3 Bft) 96,00 %
23.09.2018 15:30 16,9 C 20,0 C 20,6 C 92 % 1011,5 hPa 0,0 l/m 8,0 km/h (2 Bft) O-NO 71 0 min 0,000 mm 1,5 UV-I 173 W/m 15,6 C 16,1 C 12,9 km/h (3 Bft) 95,24 %
23.09.2018 15:32 16,9 C 20,0 C 20,0 C 91 % 1011,4 hPa 0,0 l/m 8,5 km/h (2 Bft) O 95 0 min 0,000 mm 1,4 UV-I 172 W/m 15,4 C 15,9 C 12,9 km/h (3 Bft) 98,18 %
23.09.2018 15:34 17,0 C 20,0 C 20,6 C 92 % 1011,4 hPa 0,0 l/m 9,7 km/h (2 Bft) O 83 0 min 0,000 mm 1,3 UV-I 169 W/m 15,7 C 15,4 C 14,5 km/h (3 Bft) 94,87 %
23.09.2018 15:36 17,1 C 20,0 C 20,6 C 92 % 1011,4 hPa 0,0 l/m 4,9 km/h (1 Bft) O 84 0 min 0,000 mm 1,3 UV-I 187 W/m 15,8 C 17,1 C 11,3 km/h (2 Bft) 94,34 %
23.09.2018 15:38 17,2 C 20,0 C 21,1 C 92 % 1011,3 hPa 0,0 l/m 10,4 km/h (2 Bft) O 86 0 min 0,000 mm 1,4 UV-I 193 W/m 15,9 C 15,4 C 14,5 km/h (3 Bft) 97,37 %
23.09.2018 15:40 17,1 C 20,0 C 20,6 C 92 % 1011,2 hPa 0,0 l/m 10,7 km/h (2 Bft) O-NO 65 0 min 0,000 mm 1,3 UV-I 175 W/m 15,8 C 15,2 C 14,5 km/h (3 Bft) 92,45 %
23.09.2018 15:42 17,1 C 20,0 C 20,6 C 91 % 1011,0 hPa 0,0 l/m 11,5 km/h (2 Bft) O-NO 59 0 min 0,000 mm 1,3 UV-I 200 W/m 15,6 C 14,9 C 16,1 km/h (3 Bft) 98,00 %
23.09.2018 15:44 17,0 C 20,0 C 20,0 C 91 % 1010,9 hPa 0,0 l/m 10,6 km/h (2 Bft) O-NO 78 0 min 0,000 mm 1,3 UV-I 165 W/m 15,5 C 15,1 C 14,5 km/h (3 Bft) 97,73 %
23.09.2018 15:46 16,9 C 20,0 C 20,0 C 92 % 1010,9 hPa 0,0 l/m 9,6 km/h (2 Bft) O 84 0 min 0,000 mm 1,4 UV-I 198 W/m 15,6 C 15,4 C 12,9 km/h (3 Bft) 97,87 %
23.09.2018 15:48 17,1 C 20,0 C 20,0 C 92 % 1010,8 hPa 0,0 l/m 7,2 km/h (2 Bft) O-NO 73 0 min 0,000 mm 1,5 UV-I 244 W/m 15,8 C 16,7 C 11,3 km/h (2 Bft) 98,11 %
23.09.2018 15:50 17,2 C 20,0 C 21,1 C 92 % 1010,9 hPa 0,0 l/m 9,3 km/h (2 Bft) O 99 2 min 0,000 mm 1,8 UV-I 274 W/m 15,9 C 15,8 C 12,9 km/h (3 Bft) 95,65 %
23.09.2018 15:52 17,3 C 20,0 C 21,1 C 92 % 1010,8 hPa 0,0 l/m 10,1 km/h (2 Bft) O 81 2 min 0,000 mm 1,8 UV-I 412 W/m 16,0 C 15,6 C 16,1 km/h (3 Bft) 97,18 %
23.09.2018 15:54 17,4 C 20,0 C 20,6 C 92 % 1010,7 hPa 0,0 l/m 11,8 km/h (2 Bft) O-NO 66 2 min 0,000 mm 1,6 UV-I 387 W/m 16,1 C 15,1 C 16,1 km/h (3 Bft) 93,18 %
23.09.2018 15:56 17,5 C 20,0 C 20,0 C 91 % 1010,6 hPa 0,0 l/m 11,4 km/h (2 Bft) O-NO 76 2 min 0,000 mm 1,5 UV-I 387 W/m 16,0 C 15,4 C 16,1 km/h (3 Bft) 96,15 %
23.09.2018 15:58 17,6 C 20,0 C 20,0 C 91 % 1010,6 hPa 0,0 l/m 10,7 km/h (2 Bft) O 96 2 min 0,000 mm 1,7 UV-I 353 W/m 16,1 C 15,7 C 16,1 km/h (3 Bft) 95,16 %
23.09.2018 16:00 17,7 C 20,0 C 19,4 C 92 % 1010,5 hPa 0,0 l/m 11,7 km/h (2 Bft) O-NO 76 2 min 0,127 mm 1,6 UV-I 303 W/m 16,4 C 15,5 C 14,5 km/h (3 Bft) 92,00 %
23.09.2018 16:02 17,8 C 20,0 C 18,9 C 92 % 1010,4 hPa 0,0 l/m 10,6 km/h (2 Bft) O 85 2 min 0,000 mm 1,6 UV-I 282 W/m 16,5 C 16,0 C 16,1 km/h (3 Bft) 92,00 %
23.09.2018 16:04 17,8 C 20,0 C 18,9 C 91 % 1010,4 hPa 0,0 l/m 10,7 km/h (2 Bft) O 87 2 min 0,000 mm 1,5 UV-I 274 W/m 16,3 C 15,9 C 16,1 km/h (3 Bft) 95,45 %
23.09.2018 16:06 17,8 C 20,0 C 18,9 C 91 % 1010,3 hPa 0,0 l/m 9,9 km/h (2 Bft) O 84 2 min 0,000 mm 1,5 UV-I 268 W/m 16,3 C 16,2 C 12,9 km/h (3 Bft) 94,00 %
23.09.2018 16:08 17,9 C 20,0 C 18,3 C 91 % 1010,3 hPa 0,0 l/m 7,3 km/h (2 Bft) O-NO 58 2 min 0,000 mm 1,5 UV-I 265 W/m 16,4 C 17,5 C 12,9 km/h (3 Bft) 94,87 %
23.09.2018 16:10 18,1 C 20,0 C 18,3 C 91 % 1010,3 hPa 0,0 l/m 9,8 km/h (2 Bft) O-NO 69 2 min 0,000 mm 1,4 UV-I 258 W/m 16,6 C 16,6 C 12,9 km/h (3 Bft) 95,74 %
23.09.2018 16:12 18,1 C 20,0 C 18,3 C 90 % 1010,2 hPa 0,0 l/m 9,5 km/h (2 Bft) O-NO 70 2 min 0,000 mm 1,4 UV-I 274 W/m 16,4 C 16,7 C 14,5 km/h (3 Bft) 96,36 %
23.09.2018 16:14 18,0 C 20,0 C 18,3 C 90 % 1010,1 hPa 0,0 l/m 11,5 km/h (2 Bft) O-SO 105 2 min 0,000 mm 1,3 UV-I 265 W/m 16,3 C 15,9 C 14,5 km/h (3 Bft) 95,74 %
23.09.2018 16:16 18,1 C 20,0 C 18,3 C 90 % 1010,0 hPa 0,0 l/m 5,9 km/h (2 Bft) O 101 0 min 0,000 mm 1,2 UV-I 189 W/m 16,4 C 18,1 C 12,9 km/h (3 Bft) 93,75 %
23.09.2018 16:18 18,0 C 20,0 C 18,3 C 90 % 1010,0 hPa 0,0 l/m 7,0 km/h (2 Bft) O 79 0 min 0,000 mm 1,1 UV-I 117 W/m 16,3 C 17,7 C 11,3 km/h (2 Bft) 94,29 %
23.09.2018 16:20 18,0 C 20,0 C 18,9 C 90 % 1010,0 hPa 0,0 l/m 9,7 km/h (2 Bft) O-NO 74 0 min 0,000 mm 1,2 UV-I 130 W/m 16,3 C 16,5 C 14,5 km/h (3 Bft) 96,43 %
23.09.2018 16:22 18,0 C 20,0 C 18,9 C 90 % 1010,0 hPa 0,0 l/m 8,8 km/h (2 Bft) O-NO 76 0 min 0,000 mm 1,2 UV-I 208 W/m 16,3 C 16,9 C 12,9 km/h (3 Bft) 98,00 %
23.09.2018 16:24 18,2 C 20,0 C 18,9 C 91 % 1009,8 hPa 0,0 l/m 8,5 km/h (2 Bft) O 86 2 min 0,000 mm 1,2 UV-I 256 W/m 16,7 C 17,2 C 14,5 km/h (3 Bft) 97,56 %
23.09.2018 16:26 18,2 C 20,0 C 18,9 C 90 % 1009,8 hPa 0,0 l/m 12,3 km/h (3 Bft) O-SO 105 2 min 0,000 mm 1,2 UV-I 240 W/m 16,5 C 15,9 C 16,1 km/h (3 Bft) 98,00 %
23.09.2018 16:28 18,3 C 20,0 C 18,9 C 90 % 1009,8 hPa 0,0 l/m 8,8 km/h (2 Bft) O-NO 75 2 min 0,000 mm 1,2 UV-I 234 W/m 16,6 C 17,2 C 12,9 km/h (3 Bft) 98,00 %
23.09.2018 16:30 18,5 C 20,0 C 18,9 C 90 % 1009,7 hPa 0,0 l/m 8,7 km/h (2 Bft) O 95 2 min 0,000 mm 1,2 UV-I 231 W/m 16,8 C 17,5 C 12,9 km/h (3 Bft) 95,74 %
23.09.2018 16:32 18,6 C 20,0 C 18,3 C 90 % 1009,6 hPa 0,0 l/m 8,2 km/h (2 Bft) O-NO 65 2 min 0,000 mm 1,1 UV-I 228 W/m 16,9 C 17,8 C 12,9 km/h (3 Bft) 97,37 %
23.09.2018 16:34 18,6 C 20,0 C 18,3 C 90 % 1009,6 hPa 0,0 l/m 11,1 km/h (2 Bft) O-NO 61 2 min 0,000 mm 1,1 UV-I 223 W/m 16,9 C 16,7 C 16,1 km/h (3 Bft) 98,11 %
23.09.2018 16:36 18,6 C 20,0 C 18,3 C 89 % 1009,5 hPa 0,0 l/m 10,9 km/h (2 Bft) O-NO 75 2 min 0,000 mm 1,1 UV-I 219 W/m 16,7 C 16,8 C 16,1 km/h (3 Bft) 97,56 %
23.09.2018 16:39 18,6 C 20,0 C 18,3 C 89 % 1009,4 hPa 0,0 l/m 8,3 km/h (2 Bft) O-NO 76 3 min 0,000 mm 1,0 UV-I 215 W/m 16,7 C 17,8 C 12,9 km/h (3 Bft) 95,59 %
23.09.2018 16:40 18,6 C 20,0 C 18,3 C 89 % 1009,4 hPa 0,0 l/m 8,0 km/h (2 Bft) O-NO 57 1 min 0,000 mm 1,0 UV-I 208 W/m 16,7 C 17,9 C 11,3 km/h (2 Bft) 100,00 %
23.09.2018 16:42 18,6 C 20,0 C 18,3 C 89 % 1009,3 hPa 0,0 l/m 7,5 km/h (2 Bft) O-NO 67 0 min 0,000 mm 0,9 UV-I 145 W/m 16,7 C 18,1 C 11,3 km/h (2 Bft) 97,87 %
23.09.2018 16:44 18,6 C 20,0 C 18,3 C 90 % 1009,3 hPa 0,0 l/m 8,2 km/h (2 Bft) O-NO 68 2 min 0,000 mm 0,9 UV-I 211 W/m 16,9 C 17,8 C 11,3 km/h (2 Bft) 96,00 %
23.09.2018 16:46 18,6 C 20,0 C 18,3 C 88 % 1009,3 hPa 0,0 l/m 9,5 km/h (2 Bft) O-NO 77 2 min 0,000 mm 0,9 UV-I 202 W/m 16,6 C 17,3 C 11,3 km/h (2 Bft) 95,12 %
23.09.2018 16:48 18,6 C 20,0 C 18,3 C 89 % 1009,2 hPa 0,0 l/m 6,4 km/h (2 Bft) O 98 2 min 0,000 mm 0,9 UV-I 202 W/m 16,7 C 18,6 C 9,7 km/h (2 Bft) 98,11 %
23.09.2018 16:50 18,6 C 20,0 C 18,3 C 89 % 1009,1 hPa 0,0 l/m 7,6 km/h (2 Bft) O-NO 71 0 min 0,000 mm 0,8 UV-I 188 W/m 16,7 C 18,1 C 11,3 km/h (2 Bft) 98,00 %
23.09.2018 16:52 18,7 C 20,0 C 18,3 C 89 % 1009,1 hPa 0,0 l/m 7,7 km/h (2 Bft) NO 52 2 min 0,000 mm 0,8 UV-I 197 W/m 16,8 C 18,1 C 11,3 km/h (2 Bft) 97,62 %
23.09.2018 16:54 18,7 C 20,0 C 18,3 C 89 % 1009,0 hPa 0,0 l/m 9,1 km/h (2 Bft) O 85 2 min 0,000 mm 0,8 UV-I 195 W/m 16,8 C 17,5 C 14,5 km/h (3 Bft) 96,15 %
23.09.2018 16:56 18,7 C 20,0 C 18,3 C 89 % 1009,0 hPa 0,0 l/m 8,9 km/h (2 Bft) O-SO 115 2 min 0,000 mm 0,5 UV-I 190 W/m 16,8 C 17,6 C 12,9 km/h (3 Bft) 97,92 %
23.09.2018 16:58 18,6 C 20,0 C 18,3 C 88 % 1008,9 hPa 0,0 l/m 9,4 km/h (2 Bft) O 98 2 min 0,000 mm 0,7 UV-I 188 W/m 16,6 C 17,3 C 12,9 km/h (3 Bft) 100,00 %
23.09.2018 17:00 18,7 C 20,0 C 18,3 C 89 % 1008,9 hPa 0,0 l/m 7,4 km/h (2 Bft) O 86 2 min 0,127 mm 0,7 UV-I 179 W/m 16,8 C 18,2 C 12,9 km/h (3 Bft) 100,00 %
23.09.2018 17:02 18,7 C 20,0 C 18,3 C 89 % 1008,8 hPa 0,0 l/m 8,6 km/h (2 Bft) O-SO 105 2 min 0,000 mm 0,7 UV-I 179 W/m 16,8 C 17,7 C 12,9 km/h (3 Bft) 98,00 %
23.09.2018 17:04 18,8 C 20,0 C 18,3 C 89 % 1008,7 hPa 0,0 l/m 7,6 km/h (2 Bft) O 83 2 min 0,000 mm 0,7 UV-I 176 W/m 16,9 C 18,3 C 12,9 km/h (3 Bft) 97,56 %
23.09.2018 17:06 18,8 C 20,0 C 18,3 C 89 % 1008,7 hPa 0,0 l/m 7,8 km/h (2 Bft) O 99 2 min 0,000 mm 0,7 UV-I 171 W/m 16,9 C 18,2 C 11,3 km/h (2 Bft) 98,00 %
23.09.2018 17:08 18,9 C 20,0 C 18,3 C 89 % 1008,5 hPa 0,0 l/m 9,8 km/h (2 Bft) O-SO 113 2 min 0,000 mm 0,6 UV-I 168 W/m 17,0 C 17,5 C 12,9 km/h (3 Bft) 97,73 %
23.09.2018 17:10 18,9 C 20,0 C 18,3 C 89 % 1008,5 hPa 0,0 l/m 5,8 km/h (2 Bft) O-NO 63 2 min 0,000 mm 0,6 UV-I 165 W/m 17,0 C 18,9 C 9,7 km/h (2 Bft) 95,74 %
23.09.2018 17:12 18,9 C 20,0 C 18,3 C 89 % 1008,3 hPa 0,0 l/m 7,9 km/h (2 Bft) O 101 2 min 0,000 mm 0,6 UV-I 162 W/m 17,0 C 18,2 C 12,9 km/h (3 Bft) 98,11 %
23.09.2018 17:14 18,8 C 20,0 C 18,3 C 89 % 1008,3 hPa 0,0 l/m 6,7 km/h (2 Bft) O-NO 61 2 min 0,000 mm 0,6 UV-I 159 W/m 16,9 C 18,7 C 11,3 km/h (2 Bft) 95,74 %
23.09.2018 17:16 18,8 C 20,0 C 18,3 C 89 % 1008,3 hPa 0,0 l/m 9,1 km/h (2 Bft) O-NO 61 2 min 0,000 mm 0,5 UV-I 157 W/m 16,9 C 17,6 C 12,9 km/h (3 Bft) 97,37 %
23.09.2018 17:18 18,8 C 20,0 C 17,8 C 89 % 1008,2 hPa 0,0 l/m 7,5 km/h (2 Bft) O-SO 109 2 min 0,000 mm 0,5 UV-I 154 W/m 16,9 C 18,3 C 12,9 km/h (3 Bft) 98,00 %
23.09.2018 17:20 18,7 C 20,0 C 17,8 C 89 % 1008,2 hPa 0,0 l/m 7,4 km/h (2 Bft) O 88 2 min 0,000 mm 0,5 UV-I 150 W/m 16,8 C 18,2 C 12,9 km/h (3 Bft) 98,11 %
23.09.2018 17:22 18,7 C 20,0 C 17,8 C 89 % 1008,1 hPa 0,0 l/m 8,0 km/h (2 Bft) O-NO 74 2 min 0,000 mm 0,5 UV-I 148 W/m 16,8 C 18,0 C 16,1 km/h (3 Bft) 94,29 %
23.09.2018 17:24 18,8 C 20,0 C 17,8 C 89 % 1008,0 hPa 0,0 l/m 7,7 km/h (2 Bft) O-NO 65 2 min 0,000 mm 0,5 UV-I 144 W/m 16,9 C 18,2 C 11,3 km/h (2 Bft) 94,92 %
23.09.2018 17:26 18,7 C 20,0 C 17,8 C 89 % 1008,1 hPa 0,0 l/m 6,0 km/h (2 Bft) O 99 2 min 0,000 mm 0,2 UV-I 141 W/m 16,8 C 18,7 C 11,3 km/h (2 Bft) 95,12 %
23.09.2018 17:28 18,8 C 20,0 C 17,8 C 89 % 1008,1 hPa 0,0 l/m 8,5 km/h (2 Bft) O 83 2 min 0,000 mm 0,0 UV-I 138 W/m 16,9 C 17,9 C 11,3 km/h (2 Bft) 96,00 %
23.09.2018 17:30 18,8 C 20,0 C 17,8 C 89 % 1008,1 hPa 0,0 l/m 8,9 km/h (2 Bft) O 88 2 min 0,000 mm 0,0 UV-I 136 W/m 16,9 C 17,7 C 12,9 km/h (3 Bft) 94,44 %
23.09.2018 17:32 18,8 C 20,0 C 17,8 C 90 % 1008,0 hPa 0,0 l/m 9,9 km/h (2 Bft) O 97 2 min 0,000 mm 0,0 UV-I 133 W/m 17,1 C 17,4 C 14,5 km/h (3 Bft) 96,00 %
23.09.2018 17:34 18,8 C 20,0 C 17,8 C 89 % 1007,8 hPa 0,0 l/m 6,8 km/h (2 Bft) O 98 2 min 0,000 mm 0,0 UV-I 129 W/m 16,9 C 18,6 C 12,9 km/h (3 Bft) 94,00 %
23.09.2018 17:36 18,8 C 20,0 C 17,8 C 89 % 1007,7 hPa 0,0 l/m 11,6 km/h (2 Bft) O 96 2 min 0,000 mm 0,0 UV-I 126 W/m 16,9 C 16,8 C 14,5 km/h (3 Bft) 97,87 %
23.09.2018 17:38 18,7 C 20,0 C 17,8 C 89 % 1007,7 hPa 0,0 l/m 10,3 km/h (2 Bft) O 90 2 min 0,000 mm 0,0 UV-I 123 W/m 16,8 C 17,1 C 14,5 km/h (3 Bft) 98,11 %
23.09.2018 17:40 18,6 C 20,0 C 17,8 C 89 % 1007,7 hPa 0,0 l/m 7,0 km/h (2 Bft) O-NO 64 2 min 0,000 mm 0,0 UV-I 120 W/m 16,7 C 18,3 C 12,9 km/h (3 Bft) 97,73 %
23.09.2018 17:42 18,6 C 20,0 C 17,8 C 90 % 1007,6 hPa 0,0 l/m 6,9 km/h (2 Bft) O-NO 57 2 min 0,000 mm 0,0 UV-I 117 W/m 16,9 C 18,4 C 12,9 km/h (3 Bft) 97,37 %
23.09.2018 17:44 18,5 C 20,0 C 17,8 C 89 % 1007,6 hPa 0,0 l/m 8,5 km/h (2 Bft) O-NO 72 2 min 0,000 mm 0,0 UV-I 112 W/m 16,7 C 17,6 C 11,3 km/h (2 Bft) 96,43 %
23.09.2018 17:46 18,4 C 20,0 C 17,8 C 90 % 1007,5 hPa 0,0 l/m 8,2 km/h (2 Bft) O-NO 61 2 min 0,000 mm 0,0 UV-I 109 W/m 16,7 C 17,6 C 12,9 km/h (3 Bft) 100,00 %
23.09.2018 17:48 18,3 C 20,0 C 17,2 C 90 % 1007,5 hPa 0,0 l/m 7,7 km/h (2 Bft) O-NO 57 0 min 0,000 mm 0,0 UV-I 105 W/m 16,6 C 17,7 C 9,7 km/h (2 Bft) 100,00 %
23.09.2018 17:50 18,3 C 20,0 C 17,2 C 91 % 1007,3 hPa 0,0 l/m 6,6 km/h (2 Bft) O 98 2 min 0,000 mm 0,0 UV-I 104 W/m 16,8 C 18,2 C 9,7 km/h (2 Bft) 100,00 %
23.09.2018 17:52 18,3 C 20,0 C 17,2 C 91 % 1007,2 hPa 0,0 l/m 9,0 km/h (2 Bft) O 82 2 min 0,000 mm 0,0 UV-I 101 W/m 16,8 C 17,1 C 12,9 km/h (3 Bft) 100,00 %
23.09.2018 17:54 18,3 C 20,0 C 17,2 C 91 % 1007,2 hPa 0,0 l/m 8,0 km/h (2 Bft) O 101 2 min 0,000 mm 0,0 UV-I 99 W/m 16,8 C 17,6 C 11,3 km/h (2 Bft) 100,00 %
23.09.2018 17:56 18,3 C 20,0 C 17,2 C 91 % 1007,1 hPa 0,0 l/m 9,0 km/h (2 Bft) O 84 2 min 0,000 mm 0,0 UV-I 97 W/m 16,8 C 17,1 C 12,9 km/h (3 Bft) 100,00 %
23.09.2018 17:58 18,3 C 20,0 C 17,2 C 91 % 1007,1 hPa 0,0 l/m 6,8 km/h (2 Bft) O-NO 65 2 min 0,000 mm 0,0 UV-I 94 W/m 16,8 C 18,1 C 9,7 km/h (2 Bft) 100,00 %
23.09.2018 18:00 18,2 C 20,0 C 17,2 C 90 % 1007,0 hPa 0,0 l/m 10,1 km/h (2 Bft) NO 53 2 min 0,000 mm 0,0 UV-I 91 W/m 16,5 C 16,6 C 14,5 km/h (3 Bft) 100,00 %
23.09.2018 18:02 18,1 C 20,0 C 17,2 C 90 % 1006,9 hPa 0,0 l/m 7,7 km/h (2 Bft) NO 55 2 min 0,076 mm 0,0 UV-I 89 W/m 16,4 C 17,5 C 12,9 km/h (3 Bft) 100,00 %
23.09.2018 18:04 18,0 C 20,0 C 17,2 C 91 % 1006,8 hPa 0,0 l/m 5,5 km/h (1 Bft) NO 46 2 min 0,000 mm 0,0 UV-I 87 W/m 16,5 C 18,0 C 8,0 km/h (2 Bft) 100,00 %
23.09.2018 18:06 18,0 C 20,0 C 17,2 C 91 % 1006,8 hPa 0,0 l/m 5,5 km/h (1 Bft) O-NO 63 2 min 0,000 mm 0,0 UV-I 84 W/m 16,5 C 18,0 C 11,3 km/h (2 Bft) 98,11 %
23.09.2018 18:08 17,9 C 20,0 C 17,2 C 91 % 1006,5 hPa 0,0 l/m 8,9 km/h (2 Bft) O 90 2 min 0,000 mm 0,0 UV-I 79 W/m 16,4 C 16,8 C 12,9 km/h (3 Bft) 100,00 %
23.09.2018 18:10 17,9 C 20,0 C 17,2 C 91 % 1006,3 hPa 0,0 l/m 8,7 km/h (2 Bft) O 92 2 min 0,000 mm 0,0 UV-I 77 W/m 16,4 C 16,8 C 12,9 km/h (3 Bft) 100,00 %
23.09.2018 18:12 17,9 C 20,0 C 16,7 C 91 % 1006,2 hPa 0,0 l/m 7,5 km/h (2 Bft) O 98 0 min 0,000 mm 0,0 UV-I 68 W/m 16,4 C 17,4 C 12,9 km/h (3 Bft) 100,00 %
23.09.2018 18:14 17,8 C 20,0 C 16,7 C 91 % 1006,3 hPa 0,0 l/m 7,0 km/h (2 Bft) O-SO 107 0 min 0,000 mm 0,0 UV-I 65 W/m 16,3 C 17,5 C 11,3 km/h (2 Bft) 100,00 %
23.09.2018 18:16 17,8 C 20,0 C 16,7 C 91 % 1006,2 hPa 0,0 l/m 5,6 km/h (1 Bft) O 86 2 min 0,000 mm 0,0 UV-I 69 W/m 16,3 C 17,8 C 9,7 km/h (2 Bft) 98,21 %
23.09.2018 18:18 17,8 C 20,0 C 16,7 C 92 % 1006,3 hPa 0,0 l/m 5,3 km/h (1 Bft) O-NO 71 2 min 0,000 mm 0,0 UV-I 64 W/m 16,5 C 17,8 C 6,4 km/h (2 Bft) 100,00 %
23.09.2018 18:20 17,8 C 20,0 C 16,7 C 92 % 1006,3 hPa 0,0 l/m 4,5 km/h (1 Bft) O-NO 58 2 min 0,000 mm 0,0 UV-I 64 W/m 16,5 C 17,8 C 6,4 km/h (2 Bft) 100,00 %
23.09.2018 18:22 17,8 C 20,0 C 16,7 C 92 % 1006,4 hPa 0,0 l/m 7,3 km/h (2 Bft) N-NO 28 2 min 0,000 mm 0,0 UV-I 63 W/m 16,5 C 17,4 C 11,3 km/h (2 Bft) 100,00 %
23.09.2018 18:24 17,7 C 20,0 C 16,7 C 92 % 1006,4 hPa 0,0 l/m 8,7 km/h (2 Bft) N 5 2 min 0,000 mm 0,0 UV-I 68 W/m 16,4 C 16,6 C 12,9 km/h (3 Bft) 100,00 %
23.09.2018 18:26 17,5 C 20,0 C 16,7 C 92 % 1006,4 hPa 0,0 l/m 11,7 km/h (2 Bft) N-NO 31 2 min 0,000 mm 0,0 UV-I 65 W/m 16,2 C 15,3 C 14,5 km/h (3 Bft) 100,00 %
23.09.2018 18:28 17,3 C 20,0 C 16,7 C 92 % 1006,4 hPa 0,0 l/m 9,3 km/h (2 Bft) NO 43 0 min 0,000 mm 0,0 UV-I 27 W/m 16,0 C 15,9 C 14,5 km/h (3 Bft) 100,00 %
23.09.2018 18:30 17,2 C 20,0 C 16,7 C 93 % 1006,4 hPa 0,0 l/m 6,4 km/h (2 Bft) O-NO 75 0 min 0,000 mm 0,0 UV-I 19 W/m 16,1 C 17,2 C 9,7 km/h (2 Bft) 100,00 %
23.09.2018 18:32 17,1 C 20,0 C 16,7 C 93 % 1006,2 hPa 0,0 l/m 5,7 km/h (1 Bft) O-NO 57 0 min 0,000 mm 0,0 UV-I 35 W/m 16,0 C 17,1 C 8,0 km/h (2 Bft) 100,00 %
23.09.2018 18:34 17,0 C 20,0 C 16,1 C 93 % 1006,1 hPa 0,0 l/m 5,1 km/h (1 Bft) NO 49 2 min 0,000 mm 0,0 UV-I 41 W/m 15,9 C 17,0 C 8,0 km/h (2 Bft) 100,00 %
23.09.2018 18:36 17,0 C 20,0 C 16,1 C 93 % 1006,0 hPa 0,0 l/m 6,0 km/h (2 Bft) O-NO 67 2 min 0,000 mm 0,0 UV-I 41 W/m 15,9 C 17,0 C 9,7 km/h (2 Bft) 100,00 %
23.09.2018 18:39 16,9 C 20,0 C 16,1 C 93 % 1005,9 hPa 0,0 l/m 6,3 km/h (2 Bft) NO 46 3 min 0,000 mm 0,0 UV-I 38 W/m 15,8 C 16,9 C 11,3 km/h (2 Bft) 100,00 %
23.09.2018 18:40 16,8 C 20,0 C 16,1 C 93 % 1005,9 hPa 0,0 l/m 4,1 km/h (1 Bft) O-NO 66 1 min 0,000 mm 0,0 UV-I 31 W/m 15,7 C 16,8 C 4,8 km/h (1 Bft) 92,86 %
23.09.2018 18:42 16,8 C 20,0 C 16,1 C 94 % 1005,9 hPa 0,0 l/m 4,4 km/h (1 Bft) N 360 2 min 0,000 mm 0,0 UV-I 21 W/m 15,8 C 16,8 C 6,4 km/h (2 Bft) 100,00 %
23.09.2018 18:44 16,8 C 20,0 C 16,1 C 94 % 1005,9 hPa 0,0 l/m 4,1 km/h (1 Bft) NO 52 0 min 0,000 mm 0,0 UV-I 11 W/m 15,8 C 16,8 C 6,4 km/h (2 Bft) 100,00 %
23.09.2018 18:46 16,7 C 20,0 C 16,1 C 94 % 1005,8 hPa 0,0 l/m 1,9 km/h (1 Bft) NO 55 0 min 0,000 mm 0,0 UV-I 13 W/m 15,7 C 16,7 C 4,8 km/h (1 Bft) 100,00 %
23.09.2018 18:48 16,7 C 20,0 C 16,1 C 94 % 1005,6 hPa 0,0 l/m 11,8 km/h (2 Bft) O-SO 119 2 min 0,000 mm 0,0 UV-I 17 W/m 15,7 C 14,3 C 17,7 km/h (3 Bft) 97,73 %
23.09.2018 18:50 16,6 C 20,0 C 16,1 C 94 % 1005,6 hPa 0,0 l/m 8,1 km/h (2 Bft) SO 138 0 min 0,000 mm 0,0 UV-I 13 W/m 15,6 C 15,7 C 16,1 km/h (3 Bft) 95,74 %
23.09.2018 18:52 16,6 C 20,0 C 16,1 C 94 % 1005,7 hPa 0,0 l/m 5,4 km/h (1 Bft) NW 313 0 min 0,000 mm 0,0 UV-I 11 W/m 15,6 C 16,6 C 11,3 km/h (2 Bft) 98,11 %
23.09.2018 18:54 16,7 C 20,0 C 16,1 C 94 % 1005,8 hPa 0,0 l/m 6,7 km/h (2 Bft) NO 51 0 min 0,000 mm 0,0 UV-I 11 W/m 15,7 C 16,6 C 9,7 km/h (2 Bft) 97,56 %
23.09.2018 18:56 16,6 C 20,0 C 16,1 C 94 % 1005,6 hPa 0,0 l/m 8,6 km/h (2 Bft) O 79 0 min 0,000 mm 0,0 UV-I 8 W/m 15,6 C 15,5 C 12,9 km/h (3 Bft) 97,37 %
23.09.2018 18:58 16,6 C 20,0 C 16,1 C 94 % 1005,7 hPa 0,0 l/m 7,9 km/h (2 Bft) N 5 0 min 0,000 mm 0,0 UV-I 7 W/m 15,6 C 15,8 C 11,3 km/h (2 Bft) 98,11 %
23.09.2018 19:00 16,6 C 20,0 C 16,1 C 94 % 1005,6 hPa 0,0 l/m 5,7 km/h (1 Bft) O-NO 76 0 min 0,000 mm 0,0 UV-I 7 W/m 15,6 C 16,6 C 8,0 km/h (2 Bft) 96,43 %
23.09.2018 19:02 16,6 C 20,0 C 15,6 C 94 % 1005,5 hPa 0,0 l/m 9,1 km/h (2 Bft) O-SO 104 0 min 0,026 mm 0,0 UV-I 7 W/m 15,6 C 15,3 C 12,9 km/h (3 Bft) 95,12 %
23.09.2018 19:04 16,5 C 20,0 C 15,6 C 94 % 1005,7 hPa 0,0 l/m 5,0 km/h (1 Bft) NW 326 0 min 0,000 mm 0,0 UV-I 6 W/m 15,5 C 16,5 C 8,0 km/h (2 Bft) 94,64 %
23.09.2018 19:06 16,4 C 20,0 C 15,6 C 95 % 1005,7 hPa 0,0 l/m 3,8 km/h (1 Bft) O-NO 69 0 min 0,000 mm 0,0 UV-I 5 W/m 15,6 C 16,4 C 6,4 km/h (2 Bft) 93,18 %
23.09.2018 19:08 16,4 C 20,0 C 15,6 C 95 % 1005,6 hPa 0,0 l/m 2,7 km/h (1 Bft) O-NO 78 0 min 0,000 mm 0,0 UV-I 5 W/m 15,6 C 16,4 C 4,8 km/h (1 Bft) 91,49 %
23.09.2018 19:10 16,4 C 20,0 C 15,6 C 95 % 1005,4 hPa 0,0 l/m 3,2 km/h (1 Bft) O 96 0 min 0,000 mm 0,0 UV-I 5 W/m 15,6 C 16,4 C 4,8 km/h (1 Bft) 96,00 %
23.09.2018 19:12 16,4 C 20,0 C 15,0 C 95 % 1005,3 hPa 0,0 l/m 1,6 km/h (1 Bft) O 96 0 min 0,000 mm 0,0 UV-I 1 W/m 15,6 C 16,4 C 4,8 km/h (1 Bft) 95,12 %
23.09.2018 19:14 16,3 C 20,0 C 15,0 C 95 % 1005,3 hPa 0,0 l/m 1,2 km/h (1 Bft) O 96 0 min 0,000 mm 0,0 UV-I 0 W/m 15,5 C 16,3 C 1,6 km/h (1 Bft) 97,56 %
23.09.2018 19:16 16,2 C 20,0 C 15,0 C 95 % 1005,2 hPa 0,0 l/m 0,8 km/h (0 Bft) O 96 0 min 0,000 mm 0,0 UV-I 0 W/m 15,4 C 16,2 C 1,6 km/h (1 Bft) 96,43 %
23.09.2018 19:18 16,3 C 20,0 C 15,0 C 95 % 1005,2 hPa 0,0 l/m 1,9 km/h (1 Bft) O 96 0 min 0,000 mm 0,0 UV-I 0 W/m 15,5 C 16,3 C 3,2 km/h (1 Bft) 97,73 %
23.09.2018 19:20 16,2 C 20,0 C 14,4 C 95 % 1005,1 hPa 0,0 l/m 2,0 km/h (1 Bft) O 96 0 min 0,000 mm 0,0 UV-I 0 W/m 15,4 C 16,2 C 3,2 km/h (1 Bft) 93,62 %
23.09.2018 19:22 16,2 C 20,0 C 14,4 C 95 % 1005,2 hPa 0,0 l/m 1,6 km/h (1 Bft) O 96 0 min 0,000 mm 0,0 UV-I 0 W/m 15,4 C 16,2 C 3,2 km/h (1 Bft) 96,00 %
23.09.2018 19:24 16,2 C 20,0 C 14,4 C 95 % 1005,4 hPa 0,0 l/m 1,4 km/h (1 Bft) O 96 0 min 0,000 mm 0,0 UV-I 0 W/m 15,4 C 16,2 C 3,2 km/h (1 Bft) 97,44 %
23.09.2018 19:26 16,1 C 20,0 C 14,4 C 95 % 1005,3 hPa 0,0 l/m 2,2 km/h (1 Bft) O 96 0 min 0,000 mm 0,0 UV-I 0 W/m 15,3 C 16,1 C 3,2 km/h (1 Bft) 96,23 %
23.09.2018 19:28 16,1 C 20,0 C 14,4 C 95 % 1005,2 hPa 0,0 l/m 2,5 km/h (1 Bft) O 96 0 min 0,000 mm 0,0 UV-I 0 W/m 15,3 C 16,1 C 4,8 km/h (1 Bft) 97,87 %
23.09.2018 19:30 15,9 C 20,0 C 14,4 C 95 % 1005,3 hPa 0,0 l/m 2,0 km/h (1 Bft) O 96 0 min 0,000 mm 0,0 UV-I 0 W/m 15,1 C 15,9 C 3,2 km/h (1 Bft) 96,00 %
23.09.2018 19:32 15,9 C 20,0 C 13,9 C 95 % 1005,2 hPa 0,0 l/m 0,6 km/h (0 Bft) O 96 0 min 0,000 mm 0,0 UV-I 0 W/m 15,1 C 15,9 C 1,6 km/h (1 Bft) 97,37 %
23.09.2018 19:34 15,9 C 20,0 C 14,4 C 95 % 1005,2 hPa 0,0 l/m 1,2 km/h (1 Bft) O 96 0 min 0,000 mm 0,0 UV-I 0 W/m 15,1 C 15,9 C 3,2 km/h (1 Bft) 100,00 %
23.09.2018 19:36 15,8 C 20,0 C 14,4 C 95 % 1005,2 hPa 0,0 l/m 2,4 km/h (1 Bft) O 96 0 min 0,000 mm 0,0 UV-I 0 W/m 15,0 C 15,8 C 3,2 km/h (1 Bft) 100,00 %
23.09.2018 19:38 15,6 C 20,0 C 13,9 C 95 % 1005,1 hPa 0,0 l/m 1,5 km/h (1 Bft) O 96 0 min 0,000 mm 0,0 UV-I 0 W/m 14,8 C 15,6 C 3,2 km/h (1 Bft) 98,21 %
23.09.2018 19:40 15,4 C 20,0 C 13,9 C 95 % 1005,1 hPa 0,0 l/m 3,2 km/h (1 Bft) O 98 0 min 0,000 mm 0,0 UV-I 0 W/m 14,6 C 15,4 C 4,8 km/h (1 Bft) 100,00 %
23.09.2018 19:42 15,4 C 20,0 C 14,4 C 95 % 1005,0 hPa 0,0 l/m 3,3 km/h (1 Bft) O 98 0 min 0,000 mm 0,0 UV-I 0 W/m 14,6 C 15,4 C 4,8 km/h (1 Bft) 100,00 %
23.09.2018 19:44 15,4 C 20,0 C 14,4 C 96 % 1005,0 hPa 0,0 l/m 3,1 km/h (1 Bft) O 98 0 min 0,000 mm 0,0 UV-I 0 W/m 14,8 C 15,4 C 4,8 km/h (1 Bft) 98,11 %
23.09.2018 19:46 15,4 C 20,0 C 14,4 C 96 % 1004,9 hPa 0,0 l/m 4,3 km/h (1 Bft) S-SO 166 0 min 0,000 mm 0,0 UV-I 0 W/m 14,8 C 15,4 C 6,4 km/h (2 Bft) 100,00 %
23.09.2018 19:48 15,5 C 20,0 C 14,4 C 96 % 1004,9 hPa 0,0 l/m 3,6 km/h (1 Bft) S-SO 166 0 min 0,000 mm 0,0 UV-I 0 W/m 14,9 C 15,5 C 4,8 km/h (1 Bft) 100,00 %
23.09.2018 19:50 15,6 C 20,0 C 14,4 C 96 % 1004,9 hPa 0,0 l/m 3,9 km/h (1 Bft) S-SO 165 0 min 0,000 mm 0,0 UV-I 0 W/m 15,0 C 15,6 C 6,4 km/h (2 Bft) 100,00 %
23.09.2018 19:52 15,5 C 20,0 C 13,9 C 96 % 1004,9 hPa 0,0 l/m 3,3 km/h (1 Bft) S-SO 166 0 min 0,000 mm 0,0 UV-I 0 W/m 14,9 C 15,5 C 6,4 km/h (2 Bft) 100,00 %
23.09.2018 19:54 15,4 C 20,0 C 13,9 C 96 % 1005,0 hPa 0,0 l/m 0,0 km/h (0 Bft) S-SO 165 0 min 0,000 mm 0,0 UV-I 0 W/m 14,8 C 15,4 C 0,0 km/h (0 Bft) 100,00 %
23.09.2018 19:56 15,5 C 20,0 C 13,9 C 96 % 1004,9 hPa 0,0 l/m 0,8 km/h (0 Bft) S-SO 165 0 min 0,000 mm 0,0 UV-I 0 W/m 14,9 C 15,5 C 1,6 km/h (1 Bft) 97,87 %
23.09.2018 19:59 15,5 C 20,0 C 13,9 C 96 % 1005,1 hPa 0,0 l/m 2,0 km/h (1 Bft) S-SO 166 0 min 0,000 mm 0,0 UV-I 0 W/m 14,9 C 15,5 C 4,8 km/h (1 Bft) 100,00 %
23.09.2018 20:00 15,6 C 20,0 C 14,4 C 96 % 1005,1 hPa 0,0 l/m 2,9 km/h (1 Bft) S-SO 166 0 min 0,000 mm 0,0 UV-I 0 W/m 15,0 C 15,6 C 4,8 km/h (1 Bft) 100,00 %
23.09.2018 20:02 15,4 C 20,0 C 13,9 C 96 % 1005,2 hPa 0,0 l/m 3,5 km/h (1 Bft) NW 323 0 min 0,000 mm 0,0 UV-I 0 W/m 14,8 C 15,4 C 4,8 km/h (1 Bft) 100,00 %
23.09.2018 20:04 15,3 C 20,0 C 13,9 C 96 % 1005,2 hPa 0,0 l/m 2,6 km/h (1 Bft) NW 323 0 min 0,000 mm 0,0 UV-I 0 W/m 14,7 C 15,3 C 4,8 km/h (1 Bft) 98,11 %
23.09.2018 20:06 15,3 C 20,0 C 13,9 C 96 % 1005,3 hPa 0,0 l/m 3,4 km/h (1 Bft) NW 322 0 min 0,000 mm 0,0 UV-I 0 W/m 14,7 C 15,3 C 4,8 km/h (1 Bft) 100,00 %
23.09.2018 20:08 15,3 C 20,0 C 13,9 C 96 % 1005,4 hPa 0,0 l/m 3,1 km/h (1 Bft) NW 322 0 min 0,000 mm 0,0 UV-I 0 W/m 14,7 C 15,3 C 4,8 km/h (1 Bft) 97,87 %
23.09.2018 20:10 15,3 C 20,0 C 14,4 C 96 % 1005,3 hPa 0,0 l/m 1,4 km/h (1 Bft) NW 323 0 min 0,000 mm 0,0 UV-I 0 W/m 14,7 C 15,3 C 4,8 km/h (1 Bft) 100,00 %
23.09.2018 20:12 15,4 C 20,0 C 13,9 C 96 % 1005,4 hPa 0,0 l/m 1,4 km/h (1 Bft) NW 322 0 min 0,000 mm 0,0 UV-I 0 W/m 14,8 C 15,4 C 4,8 km/h (1 Bft) 100,00 %
23.09.2018 20:14 15,4 C 20,0 C 14,4 C 96 % 1005,5 hPa 0,0 l/m 4,1 km/h (1 Bft) NW 323 0 min 0,000 mm 0,0 UV-I 0 W/m 14,8 C 15,4 C 6,4 km/h (2 Bft) 98,00 %
23.09.2018 20:16 15,4 C 20,0 C 14,4 C 96 % 1005,4 hPa 0,0 l/m 1,7 km/h (1 Bft) NW 323 0 min 0,000 mm 0,0 UV-I 0 W/m 14,8 C 15,4 C 3,2 km/h (1 Bft) 91,49 %
23.09.2018 20:19 15,4 C 20,0 C 14,4 C 96 % 1005,3 hPa 0,0 l/m 1,6 km/h (1 Bft) NW 323 0 min 0,000 mm 0,0 UV-I 0 W/m 14,8 C 15,4 C 3,2 km/h (1 Bft) 94,12 %
23.09.2018 20:20 15,4 C 20,0 C 14,4 C 96 % 1005,3 hPa 0,0 l/m 2,3 km/h (1 Bft) NW 323 0 min 0,000 mm 0,0 UV-I 0 W/m 14,8 C 15,4 C 3,2 km/h (1 Bft) 92,31 %
23.09.2018 20:22 15,3 C 20,0 C 14,4 C 96 % 1005,3 hPa 0,0 l/m 3,3 km/h (1 Bft) S-SO 160 0 min 0,000 mm 0,0 UV-I 0 W/m 14,7 C 15,3 C 8,0 km/h (2 Bft) 95,74 %
23.09.2018 20:24 15,2 C 20,0 C 14,4 C 96 % 1005,4 hPa 0,0 l/m 4,2 km/h (1 Bft) S 180 0 min 0,000 mm 0,0 UV-I 0 W/m 14,6 C 15,2 C 6,4 km/h (2 Bft) 93,62 %
23.09.2018 20:26 15,2 C 20,0 C 14,4 C 96 % 1005,2 hPa 0,0 l/m 4,1 km/h (1 Bft) S 180 0 min 0,000 mm 0,0 UV-I 0 W/m 14,6 C 15,2 C 6,4 km/h (2 Bft) 94,00 %
23.09.2018 20:29 15,3 C 20,0 C 15,0 C 97 % 1005,1 hPa 0,0 l/m 5,0 km/h (1 Bft) S 175 0 min 0,000 mm 0,0 UV-I 0 W/m 14,8 C 15,3 C 9,7 km/h (2 Bft) 96,61 %
23.09.2018 20:30 15,3 C 20,0 C 15,0 C 97 % 1005,1 hPa 0,0 l/m 5,9 km/h (2 Bft) S 180 0 min 0,000 mm 0,0 UV-I 0 W/m 14,8 C 15,3 C 8,0 km/h (2 Bft) 93,10 %
23.09.2018 20:32 15,3 C 20,0 C 15,0 C 97 % 1005,1 hPa 0,0 l/m 5,7 km/h (1 Bft) S-SW 212 0 min 0,000 mm 0,0 UV-I 0 W/m 14,8 C 15,3 C 8,0 km/h (2 Bft) 95,74 %
23.09.2018 20:34 15,3 C 20,0 C 14,4 C 97 % 1005,1 hPa 0,0 l/m 5,3 km/h (1 Bft) S-SW 203 0 min 0,000 mm 0,0 UV-I 0 W/m 14,8 C 15,3 C 6,4 km/h (2 Bft) 95,24 %
23.09.2018 20:36 15,4 C 20,0 C 15,0 C 97 % 1005,1 hPa 0,0 l/m 5,4 km/h (1 Bft) S-SW 202 0 min 0,000 mm 0,0 UV-I 0 W/m 14,9 C 15,4 C 8,0 km/h (2 Bft) 93,62 %
23.09.2018 20:38 15,5 C 20,0 C 15,0 C 97 % 1005,1 hPa 0,0 l/m 6,3 km/h (2 Bft) S-SW 199 0 min 0,000 mm 0,0 UV-I 0 W/m 15,0 C 15,5 C 9,7 km/h (2 Bft) 95,45 %
23.09.2018 20:40 15,6 C 20,0 C 15,0 C 97 % 1005,1 hPa 0,0 l/m 7,9 km/h (2 Bft) S-SO 165 0 min 0,000 mm 0,0 UV-I 0 W/m 15,1 C 14,8 C 9,7 km/h (2 Bft) 94,34 %
23.09.2018 20:42 15,7 C 20,0 C 15,0 C 97 % 1005,0 hPa 0,0 l/m 5,7 km/h (1 Bft) S-SW 194 0 min 0,000 mm 0,0 UV-I 0 W/m 15,2 C 15,7 C 11,3 km/h (2 Bft) 95,74 %
23.09.2018 20:44 15,7 C 20,0 C 15,0 C 97 % 1005,1 hPa 0,0 l/m 3,5 km/h (1 Bft) S-SW 196 0 min 0,000 mm 0,0 UV-I 0 W/m 15,2 C 15,7 C 4,8 km/h (1 Bft) 98,11 %
23.09.2018 20:46 15,6 C 20,0 C 15,0 C 97 % 1005,1 hPa 0,0 l/m 3,2 km/h (1 Bft) S-SW 198 0 min 0,000 mm 0,0 UV-I 0 W/m 15,1 C 15,6 C 4,8 km/h (1 Bft) 97,87 %
23.09.2018 20:49 15,6 C 20,0 C 15,0 C 97 % 1005,1 hPa 0,0 l/m 5,0 km/h (1 Bft) S-SW 211 0 min 0,000 mm 0,0 UV-I 0 W/m 15,1 C 15,6 C 9,7 km/h (2 Bft) 98,44 %
23.09.2018 20:50 15,6 C 20,0 C 15,0 C 97 % 1005,1 hPa 0,0 l/m 5,6 km/h (1 Bft) SW 223 0 min 0,000 mm 0,0 UV-I 0 W/m 15,1 C 15,6 C 6,4 km/h (2 Bft) 92,59 %
23.09.2018 20:52 15,6 C 20,0 C 15,0 C 97 % 1005,0 hPa 0,0 l/m 5,4 km/h (1 Bft) SW 215 0 min 0,000 mm 0,0 UV-I 0 W/m 15,1 C 15,6 C 8,0 km/h (2 Bft) 97,73 %
23.09.2018 20:54 15,6 C 20,0 C 15,0 C 97 % 1004,9 hPa 0,0 l/m 6,5 km/h (2 Bft) SW 218 0 min 0,000 mm 0,0 UV-I 0 W/m 15,1 C 15,6 C 9,7 km/h (2 Bft) 98,00 %
23.09.2018 20:56 15,6 C 20,0 C 15,0 C 97 % 1004,9 hPa 0,0 l/m 5,0 km/h (1 Bft) S-SW 196 0 min 0,000 mm 0,0 UV-I 0 W/m 15,1 C 15,6 C 8,0 km/h (2 Bft) 97,73 %
23.09.2018 20:58 15,6 C 20,0 C 15,0 C 97 % 1004,8 hPa 0,0 l/m 7,3 km/h (2 Bft) S-SW 196 0 min 0,000 mm 0,0 UV-I 0 W/m 15,1 C 15,1 C 9,7 km/h (2 Bft) 96,00 %
23.09.2018 21:00 15,7 C 20,0 C 15,6 C 97 % 1004,8 hPa 0,0 l/m 6,8 km/h (2 Bft) S 175 0 min 0,000 mm 0,0 UV-I 0 W/m 15,2 C 15,5 C 9,7 km/h (2 Bft) 92,00 %
23.09.2018 21:02 15,9 C 20,0 C 15,6 C 97 % 1004,8 hPa 0,0 l/m 6,6 km/h (2 Bft) S-SW 202 0 min 0,000 mm 0,0 UV-I 0 W/m 15,4 C 15,8 C 9,7 km/h (2 Bft) 97,14 %
23.09.2018 21:04 16,1 C 20,0 C 15,6 C 97 % 1004,9 hPa 0,0 l/m 6,8 km/h (2 Bft) S-SW 213 0 min 0,000 mm 0,0 UV-I 0 W/m 15,6 C 15,9 C 11,3 km/h (2 Bft) 92,00 %
23.09.2018 21:06 16,1 C 20,0 C 15,6 C 97 % 1004,8 hPa 0,0 l/m 6,4 km/h (2 Bft) S-SW 193 0 min 0,000 mm 0,0 UV-I 0 W/m 15,6 C 16,1 C 9,7 km/h (2 Bft) 95,12 %
23.09.2018 21:08 16,2 C 20,0 C 16,1 C 97 % 1004,8 hPa 0,0 l/m 6,8 km/h (2 Bft) S-SW 196 0 min 0,000 mm 0,0 UV-I 0 W/m 15,7 C 16,0 C 9,7 km/h (2 Bft) 94,64 %
23.09.2018 21:10 16,3 C 20,0 C 16,1 C 97 % 1004,8 hPa 0,0 l/m 5,9 km/h (2 Bft) S-SW 196 0 min 0,000 mm 0,0 UV-I 0 W/m 15,8 C 16,3 C 9,7 km/h (2 Bft) 96,00 %
23.09.2018 21:12 16,4 C 20,0 C 16,1 C 97 % 1004,7 hPa 0,0 l/m 6,5 km/h (2 Bft) S-SW 205 0 min 0,000 mm 0,0 UV-I 0 W/m 15,9 C 16,4 C 11,3 km/h (2 Bft) 94,87 %
23.09.2018 21:14 16,4 C 20,0 C 16,1 C 97 % 1004,7 hPa 0,0 l/m 5,1 km/h (1 Bft) S-SW 192 0 min 0,000 mm 0,0 UV-I 0 W/m 15,9 C 16,4 C 8,0 km/h (2 Bft) 96,15 %
23.09.2018 21:16 16,5 C 20,0 C 16,1 C 97 % 1004,7 hPa 0,0 l/m 8,1 km/h (2 Bft) S-SW 210 0 min 0,000 mm 0,0 UV-I 0 W/m 16,0 C 15,6 C 12,9 km/h (3 Bft) 95,24 %
23.09.2018 21:18 16,6 C 20,0 C 16,1 C 97 % 1004,7 hPa 0,0 l/m 8,5 km/h (2 Bft) SW 228 0 min 0,000 mm 0,0 UV-I 0 W/m 16,1 C 15,5 C 16,1 km/h (3 Bft) 96,00 %
23.09.2018 21:20 16,7 C 20,0 C 16,7 C 97 % 1004,8 hPa 0,0 l/m 8,8 km/h (2 Bft) S-SW 205 0 min 0,000 mm 0,0 UV-I 0 W/m 16,2 C 15,5 C 14,5 km/h (3 Bft) 96,23 %
23.09.2018 21:22 16,8 C 20,0 C 16,7 C 97 % 1004,7 hPa 0,0 l/m 7,8 km/h (2 Bft) SW 218 0 min 0,000 mm 0,0 UV-I 0 W/m 16,3 C 16,1 C 11,3 km/h (2 Bft) 97,87 %
23.09.2018 21:24 16,9 C 20,0 C 16,7 C 97 % 1004,6 hPa 0,0 l/m 5,8 km/h (2 Bft) SW 225 0 min 0,000 mm 0,0 UV-I 0 W/m 16,4 C 16,9 C 9,7 km/h (2 Bft) 97,56 %
23.09.2018 21:26 16,9 C 20,0 C 16,7 C 97 % 1004,6 hPa 0,0 l/m 6,9 km/h (2 Bft) S-SW 194 0 min 0,000 mm 0,0 UV-I 0 W/m 16,4 C 16,7 C 14,5 km/h (3 Bft) 96,00 %
23.09.2018 21:28 17,1 C 20,0 C 16,7 C 97 % 1004,6 hPa 0,0 l/m 6,3 km/h (2 Bft) S 190 0 min 0,000 mm 0,0 UV-I 0 W/m 16,6 C 17,1 C 9,7 km/h (2 Bft) 97,73 %
23.09.2018 21:30 17,1 C 20,0 C 16,7 C 96 % 1004,7 hPa 0,0 l/m 6,0 km/h (2 Bft) SW 221 0 min 0,000 mm 0,0 UV-I 0 W/m 16,5 C 17,1 C 9,7 km/h (2 Bft) 97,37 %
23.09.2018 21:32 17,2 C 20,0 C 16,7 C 96 % 1004,7 hPa 0,0 l/m 7,0 km/h (2 Bft) W-SW 238 0 min 0,000 mm 0,0 UV-I 0 W/m 16,6 C 16,9 C 9,7 km/h (2 Bft) 100,00 %
23.09.2018 21:34 17,3 C 20,0 C 16,7 C 96 % 1004,8 hPa 0,0 l/m 5,9 km/h (2 Bft) SW 223 0 min 0,000 mm 0,0 UV-I 0 W/m 16,7 C 17,3 C 11,3 km/h (2 Bft) 96,43 %
23.09.2018 21:36 17,3 C 20,0 C 16,7 C 96 % 1004,8 hPa 0,2 l/m 6,8 km/h (2 Bft) S-SW 210 0 min 0,000 mm 0,0 UV-I 0 W/m 16,7 C 17,1 C 11,3 km/h (2 Bft) 100,00 %
23.09.2018 21:38 17,4 C 20,0 C 16,7 C 95 % 1004,8 hPa 0,0 l/m 9,5 km/h (2 Bft) SW 214 0 min 0,000 mm 0,0 UV-I 0 W/m 16,6 C 16,0 C 17,7 km/h (3 Bft) 100,00 %
23.09.2018 21:40 17,5 C 20,0 C 17,2 C 95 % 1004,8 hPa 0,2 l/m 11,3 km/h (2 Bft) S-SW 205 0 min 0,000 mm 0,0 UV-I 0 W/m 16,7 C 15,4 C 17,7 km/h (3 Bft) 100,00 %
23.09.2018 21:42 17,7 C 20,0 C 17,2 C 95 % 1004,9 hPa 0,4 l/m 12,8 km/h (3 Bft) W 263 0 min 0,000 mm 0,0 UV-I 0 W/m 16,9 C 15,1 C 20,9 km/h (4 Bft) 98,00 %
23.09.2018 21:44 17,8 C 20,0 C 17,2 C 95 % 1004,7 hPa 0,2 l/m 10,0 km/h (2 Bft) W 280 0 min 0,000 mm 0,0 UV-I 0 W/m 17,0 C 16,2 C 17,7 km/h (3 Bft) 97,56 %
23.09.2018 21:46 17,8 C 20,0 C 17,2 C 94 % 1005,2 hPa 0,0 l/m 15,7 km/h (3 Bft) NW 305 0 min 0,000 mm 0,0 UV-I 0 W/m 16,8 C 14,4 C 24,1 km/h (4 Bft) 97,62 %
23.09.2018 21:48 17,8 C 20,0 C 17,2 C 94 % 1005,8 hPa 0,2 l/m 18,4 km/h (3 Bft) NW 317 0 min 0,000 mm 0,0 UV-I 0 W/m 16,8 C 13,7 C 49,9 km/h (6 Bft) 96,61 %
23.09.2018 21:50 17,2 C 20,0 C 15,6 C 90 % 1007,0 hPa 0,0 l/m 20,6 km/h (4 Bft) NW 313 0 min 0,000 mm 0,0 UV-I 0 W/m 15,5 C 12,5 C 53,1 km/h (7 Bft) 95,74 %
23.09.2018 21:52 16,4 C 20,0 C 15,0 C 89 % 1007,9 hPa 0,2 l/m 23,5 km/h (4 Bft) W 265 0 min 0,000 mm 0,0 UV-I 0 W/m 14,6 C 10,8 C 46,7 km/h (6 Bft) 97,87 %
23.09.2018 21:54 15,9 C 20,0 C 14,4 C 89 % 1007,5 hPa 0,0 l/m 20,3 km/h (4 Bft) W 273 0 min 0,000 mm 0,0 UV-I 0 W/m 14,1 C 10,8 C 32,2 km/h (5 Bft) 100,00 %
23.09.2018 21:56 15,4 C 20,0 C 13,9 C 89 % 1007,4 hPa 0,0 l/m 16,3 km/h (3 Bft) W-SW 242 0 min 0,000 mm 0,0 UV-I 0 W/m 13,6 C 11,3 C 24,1 km/h (4 Bft) 96,00 %
23.09.2018 21:58 15,1 C 20,0 C 13,9 C 89 % 1007,6 hPa 0,0 l/m 22,4 km/h (4 Bft) SW 229 0 min 0,000 mm 0,0 UV-I 0 W/m 13,3 C 9,3 C 41,8 km/h (6 Bft) 96,23 %
23.09.2018 22:00 14,9 C 20,0 C 13,9 C 90 % 1007,9 hPa 0,0 l/m 21,4 km/h (4 Bft) W-NW 292 0 min 0,000 mm 0,0 UV-I 0 W/m 13,3 C 9,3 C 33,8 km/h (5 Bft) 97,73 %
23.09.2018 22:02 14,8 C 20,0 C 13,9 C 90 % 1007,9 hPa 0,2 l/m 21,6 km/h (4 Bft) N-NW 337 0 min 0,000 mm 0,0 UV-I 0 W/m 13,2 C 9,1 C 38,6 km/h (5 Bft) 97,56 %
23.09.2018 22:04 14,6 C 20,0 C 13,9 C 90 % 1007,9 hPa 0,2 l/m 14,0 km/h (3 Bft) W 261 0 min 0,000 mm 0,0 UV-I 0 W/m 13,0 C 11,1 C 33,8 km/h (5 Bft) 98,00 %
23.09.2018 22:06 14,4 C 20,0 C 13,9 C 91 % 1007,7 hPa 0,2 l/m 13,1 km/h (3 Bft) W-SW 254 0 min 0,000 mm 0,0 UV-I 0 W/m 12,9 C 11,1 C 20,9 km/h (4 Bft) 98,00 %
23.09.2018 22:08 14,3 C 20,0 C 13,9 C 92 % 1008,0 hPa 0,0 l/m 10,8 km/h (2 Bft) W 271 0 min 0,000 mm 0,0 UV-I 0 W/m 13,0 C 12,0 C 16,1 km/h (3 Bft) 97,37 %
23.09.2018 22:10 14,1 C 20,0 C 13,3 C 92 % 1008,0 hPa 0,0 l/m 11,6 km/h (2 Bft) N-NW 338 0 min 0,000 mm 0,0 UV-I 0 W/m 12,8 C 11,4 C 20,9 km/h (4 Bft) 100,00 %
23.09.2018 22:12 14,1 C 20,0 C 13,3 C 92 % 1008,1 hPa 0,0 l/m 17,3 km/h (3 Bft) W 269 0 min 0,000 mm 0,0 UV-I 0 W/m 12,8 C 9,4 C 32,2 km/h (5 Bft) 100,00 %
23.09.2018 22:14 14,1 C 20,0 C 13,3 C 92 % 1008,0 hPa 0,4 l/m 18,1 km/h (3 Bft) N-NW 327 0 min 0,000 mm 0,0 UV-I 0 W/m 12,8 C 9,1 C 35,4 km/h (5 Bft) 100,00 %
23.09.2018 22:16 14,0 C 20,0 C 13,3 C 92 % 1008,1 hPa 0,6 l/m 12,7 km/h (3 Bft) W-NW 292 0 min 0,000 mm 0,0 UV-I 0 W/m 12,7 C 10,8 C 35,4 km/h (5 Bft) 100,00 %
23.09.2018 22:18 13,9 C 20,0 C 13,3 C 93 % 1008,3 hPa 0,0 l/m 9,2 km/h (2 Bft) NW 324 0 min 0,000 mm 0,0 UV-I 0 W/m 12,8 C 12,3 C 19,3 km/h (3 Bft) 97,37 %
23.09.2018 22:20 13,9 C 20,0 C 13,3 C 93 % 1008,5 hPa 0,0 l/m 16,1 km/h (3 Bft) W-NW 296 0 min 0,000 mm 0,0 UV-I 0 W/m 12,8 C 9,5 C 43,5 km/h (6 Bft) 100,00 %
23.09.2018 22:22 13,8 C 20,0 C 13,3 C 93 % 1008,6 hPa 0,4 l/m 17,7 km/h (3 Bft) W-SW 240 0 min 0,000 mm 0,0 UV-I 0 W/m 12,7 C 8,9 C 37,0 km/h (5 Bft) 100,00 %
23.09.2018 22:24 13,8 C 20,0 C 13,3 C 93 % 1008,4 hPa 0,2 l/m 13,6 km/h (3 Bft) W-NW 286 0 min 0,000 mm 0,0 UV-I 0 W/m 12,7 C 10,2 C 24,1 km/h (4 Bft) 100,00 %
23.09.2018 22:26 13,8 C 20,0 C 13,3 C 93 % 1008,2 hPa 0,0 l/m 12,2 km/h (2 Bft) NO 36 0 min 0,000 mm 0,0 UV-I 0 W/m 12,7 C 10,8 C 24,1 km/h (4 Bft) 100,00 %
23.09.2018 22:28 13,9 C 20,0 C 13,3 C 93 % 1008,5 hPa 0,4 l/m 15,6 km/h (3 Bft) N-NW 341 0 min 0,000 mm 0,0 UV-I 0 W/m 12,8 C 9,7 C 25,7 km/h (4 Bft) 100,00 %
23.09.2018 22:30 13,9 C 20,0 C 13,3 C 93 % 1009,0 hPa 0,2 l/m 19,2 km/h (3 Bft) W 267 0 min 0,000 mm 0,0 UV-I 0 W/m 12,8 C 8,5 C 32,2 km/h (5 Bft) 100,00 %
23.09.2018 22:32 13,9 C 20,0 C 13,3 C 93 % 1009,0 hPa 0,2 l/m 13,7 km/h (3 Bft) W 271 0 min 0,000 mm 0,0 UV-I 0 W/m 12,8 C 10,3 C 22,5 km/h (4 Bft) 100,00 %
23.09.2018 22:34 13,8 C 20,0 C 13,3 C 93 % 1008,9 hPa 0,2 l/m 17,3 km/h (3 Bft) W 275 0 min 0,000 mm 0,0 UV-I 0 W/m 12,7 C 9,0 C 24,1 km/h (4 Bft) 97,87 %
23.09.2018 22:36 13,8 C 20,0 C 13,3 C 94 % 1008,9 hPa 0,2 l/m 16,3 km/h (3 Bft) W 277 0 min 0,000 mm 0,0 UV-I 0 W/m 12,9 C 9,3 C 30,6 km/h (5 Bft) 100,00 %
23.09.2018 22:38 13,8 C 20,0 C 13,3 C 94 % 1009,0 hPa 0,2 l/m 15,4 km/h (3 Bft) W 260 0 min 0,000 mm 0,0 UV-I 0 W/m 12,9 C 9,6 C 30,6 km/h (5 Bft) 100,00 %
23.09.2018 22:40 13,8 C 20,0 C 13,3 C 94 % 1009,0 hPa 0,0 l/m 13,6 km/h (3 Bft) W-SW 254 0 min 0,000 mm 0,0 UV-I 0 W/m 12,9 C 10,2 C 20,9 km/h (4 Bft) 100,00 %
23.09.2018 22:42 13,8 C 20,0 C 13,3 C 94 % 1009,1 hPa 0,2 l/m 13,3 km/h (3 Bft) W-SW 246 0 min 0,000 mm 0,0 UV-I 0 W/m 12,9 C 10,4 C 20,9 km/h (4 Bft) 100,00 %
23.09.2018 22:44 13,8 C 20,0 C 13,3 C 94 % 1009,1 hPa 0,0 l/m 13,1 km/h (3 Bft) W-SW 252 0 min 0,000 mm 0,0 UV-I 0 W/m 12,9 C 10,4 C 20,9 km/h (4 Bft) 100,00 %
23.09.2018 22:46 13,8 C 20,0 C 13,3 C 94 % 1009,0 hPa 0,0 l/m 14,2 km/h (3 Bft) W-SW 257 0 min 0,000 mm 0,0 UV-I 0 W/m 12,9 C 10,0 C 24,1 km/h (4 Bft) 97,87 %
23.09.2018 22:48 13,8 C 20,0 C 13,3 C 94 % 1009,3 hPa 0,0 l/m 14,0 km/h (3 Bft) W-SW 258 0 min 0,000 mm 0,0 UV-I 0 W/m 12,9 C 10,1 C 17,7 km/h (3 Bft) 100,00 %
23.09.2018 22:50 13,8 C 20,0 C 13,3 C 94 % 1009,6 hPa 0,0 l/m 17,8 km/h (3 Bft) SW 230 0 min 0,000 mm 0,0 UV-I 0 W/m 12,9 C 8,8 C 29,0 km/h (5 Bft) 92,31 %
23.09.2018 22:52 13,8 C 20,0 C 13,3 C 94 % 1009,8 hPa 0,0 l/m 17,0 km/h (3 Bft) W-SW 244 0 min 0,000 mm 0,0 UV-I 0 W/m 12,9 C 9,1 C 22,5 km/h (4 Bft) 98,46 %
23.09.2018 22:54 13,8 C 19,4 C 13,3 C 94 % 1010,2 hPa 0,0 l/m 14,5 km/h (3 Bft) W-SW 250 0 min 0,000 mm 0,0 UV-I 0 W/m 12,9 C 9,9 C 22,5 km/h (4 Bft) 100,00 %
23.09.2018 22:56 13,8 C 19,4 C 13,3 C 94 % 1010,5 hPa 0,2 l/m 17,6 km/h (3 Bft) S-SW 208 0 min 0,000 mm 0,0 UV-I 0 W/m 12,9 C 8,9 C 30,6 km/h (5 Bft) 100,00 %
23.09.2018 22:58 13,8 C 19,4 C 13,3 C 94 % 1010,4 hPa 0,0 l/m 16,0 km/h (3 Bft) SW 215 0 min 0,000 mm 0,0 UV-I 0 W/m 12,9 C 9,4 C 29,0 km/h (5 Bft) 94,74 %
23.09.2018 23:00 13,9 C 19,4 C 13,3 C 94 % 1010,6 hPa 0,0 l/m 18,2 km/h (3 Bft) W-SW 248 0 min 0,000 mm 0,0 UV-I 0 W/m 12,9 C 8,8 C 29,0 km/h (5 Bft) 96,00 %
23.09.2018 23:02 13,9 C 19,4 C 13,3 C 93 % 1010,7 hPa 0,2 l/m 16,3 km/h (3 Bft) SW 225 0 min 0,025 mm 0,0 UV-I 0 W/m 12,8 C 9,4 C 22,5 km/h (4 Bft) 96,23 %
23.09.2018 23:04 13,9 C 19,4 C 13,3 C 93 % 1010,9 hPa 0,0 l/m 15,8 km/h (3 Bft) SW 233 0 min 0,000 mm 0,0 UV-I 0 W/m 12,8 C 9,6 C 22,5 km/h (4 Bft) 100,00 %
23.09.2018 23:06 13,9 C 19,4 C 13,3 C 93 % 1011,1 hPa 0,2 l/m 18,2 km/h (3 Bft) W 266 0 min 0,000 mm 0,0 UV-I 0 W/m 12,8 C 8,8 C 33,8 km/h (5 Bft) 98,00 %
23.09.2018 23:09 13,9 C 19,4 C 13,3 C 93 % 1011,5 hPa 0,2 l/m 16,7 km/h (3 Bft) SW 214 0 min 0,000 mm 0,0 UV-I 0 W/m 12,8 C 9,3 C 29,0 km/h (5 Bft) 94,37 %
23.09.2018 23:10 13,9 C 19,4 C 13,3 C 93 % 1011,5 hPa 0,0 l/m 21,6 km/h (4 Bft) W-SW 240 0 min 0,000 mm 0,0 UV-I 0 W/m 12,8 C 7,9 C 32,2 km/h (5 Bft) 95,65 %
23.09.2018 23:12 13,9 C 19,4 C 13,3 C 93 % 1011,6 hPa 0,2 l/m 21,8 km/h (4 Bft) SW 217 0 min 0,000 mm 0,0 UV-I 0 W/m 12,8 C 7,9 C 35,4 km/h (5 Bft) 94,87 %
23.09.2018 23:14 14,0 C 19,4 C 13,3 C 93 % 1011,6 hPa 0,2 l/m 20,9 km/h (4 Bft) W-SW 249 0 min 0,000 mm 0,0 UV-I 0 W/m 12,9 C 8,2 C 32,2 km/h (5 Bft) 94,00 %
23.09.2018 23:16 14,0 C 19,4 C 13,3 C 93 % 1011,5 hPa 0,2 l/m 21,7 km/h (4 Bft) W-SW 237 0 min 0,000 mm 0,0 UV-I 0 W/m 12,9 C 8,0 C 30,6 km/h (5 Bft) 94,00 %
23.09.2018 23:18 14,0 C 19,4 C 13,3 C 93 % 1011,5 hPa 0,0 l/m 17,7 km/h (3 Bft) SW 227 0 min 0,000 mm 0,0 UV-I 0 W/m 12,9 C 9,1 C 25,7 km/h (4 Bft) 97,14 %
23.09.2018 23:20 14,0 C 19,4 C 13,3 C 93 % 1011,6 hPa 0,2 l/m 21,4 km/h (4 Bft) SW 228 0 min 0,000 mm 0,0 UV-I 0 W/m 12,9 C 8,1 C 32,2 km/h (5 Bft) 94,64 %
23.09.2018 23:22 14,0 C 19,4 C 13,3 C 93 % 1011,7 hPa 0,0 l/m 19,0 km/h (3 Bft) W-SW 246 0 min 0,000 mm 0,0 UV-I 0 W/m 12,9 C 8,7 C 29,0 km/h (5 Bft) 95,74 %
23.09.2018 23:24 14,1 C 19,4 C 13,3 C 93 % 1011,7 hPa 0,0 l/m 17,9 km/h (3 Bft) SW 227 0 min 0,000 mm 0,0 UV-I 0 W/m 13,0 C 9,2 C 24,1 km/h (4 Bft) 92,00 %
23.09.2018 23:26 14,1 C 19,4 C 13,3 C 92 % 1011,7 hPa 0,0 l/m 17,3 km/h (3 Bft) SW 216 0 min 0,000 mm 0,0 UV-I 0 W/m 12,8 C 9,4 C 24,1 km/h (4 Bft) 94,74 %
23.09.2018 23:28 14,0 C 19,4 C 13,3 C 92 % 1011,7 hPa 0,0 l/m 16,5 km/h (3 Bft) SW 236 0 min 0,000 mm 0,0 UV-I 0 W/m 12,7 C 9,5 C 22,5 km/h (4 Bft) 94,34 %
23.09.2018 23:30 14,0 C 19,4 C 13,3 C 92 % 1011,8 hPa 0,2 l/m 17,2 km/h (3 Bft) S-SW 207 0 min 0,000 mm 0,0 UV-I 0 W/m 12,7 C 9,3 C 24,1 km/h (4 Bft) 95,12 %
23.09.2018 23:32 13,9 C 19,4 C 13,3 C 92 % 1011,8 hPa 0,0 l/m 14,3 km/h (3 Bft) W-SW 239 0 min 0,000 mm 0,0 UV-I 0 W/m 12,6 C 10,1 C 27,4 km/h (4 Bft) 98,21 %
23.09.2018 23:34 13,9 C 19,4 C 13,3 C 93 % 1012,0 hPa 0,0 l/m 17,6 km/h (3 Bft) SW 219 0 min 0,000 mm 0,0 UV-I 0 W/m 12,8 C 9,0 C 27,4 km/h (4 Bft) 100,00 %
23.09.2018 23:36 13,9 C 19,4 C 13,3 C 93 % 1012,1 hPa 0,0 l/m 15,0 km/h (3 Bft) SW 230 0 min 0,000 mm 0,0 UV-I 0 W/m 12,8 C 9,9 C 32,2 km/h (5 Bft) 100,00 %
23.09.2018 23:38 13,9 C 19,4 C 13,3 C 93 % 1012,1 hPa 0,0 l/m 18,4 km/h (3 Bft) SW 217 0 min 0,000 mm 0,0 UV-I 0 W/m 12,8 C 8,8 C 30,6 km/h (5 Bft) 97,56 %
23.09.2018 23:40 13,9 C 19,4 C 13,3 C 93 % 1012,0 hPa 0,0 l/m 20,7 km/h (4 Bft) SW 219 0 min 0,000 mm 0,0 UV-I 0 W/m 12,8 C 8,1 C 35,4 km/h (5 Bft) 100,00 %
23.09.2018 23:42 13,9 C 19,4 C 13,3 C 93 % 1012,2 hPa 0,0 l/m 19,7 km/h (3 Bft) W-SW 243 0 min 0,000 mm 0,0 UV-I 0 W/m 12,8 C 8,4 C 25,7 km/h (4 Bft) 100,00 %
23.09.2018 23:44 13,9 C 19,4 C 13,3 C 93 % 1012,3 hPa 0,0 l/m 20,2 km/h (4 Bft) W-SW 244 0 min 0,000 mm 0,0 UV-I 0 W/m 12,8 C 8,3 C 30,6 km/h (5 Bft) 100,00 %
23.09.2018 23:46 14,0 C 19,4 C 13,3 C 93 % 1012,4 hPa 0,0 l/m 21,7 km/h (4 Bft) SW 231 0 min 0,000 mm 0,0 UV-I 0 W/m 12,9 C 8,0 C 33,8 km/h (5 Bft) 100,00 %
23.09.2018 23:48 14,1 C 19,4 C 13,3 C 93 % 1012,3 hPa 0,0 l/m 20,5 km/h (4 Bft) SW 232 0 min 0,000 mm 0,0 UV-I 0 W/m 13,0 C 8,5 C 32,2 km/h (5 Bft) 100,00 %
23.09.2018 23:50 14,1 C 19,4 C 13,3 C 93 % 1012,3 hPa 0,0 l/m 23,1 km/h (4 Bft) SW 226 0 min 0,000 mm 0,0 UV-I 0 W/m 13,0 C 7,8 C 35,4 km/h (5 Bft) 100,00 %
23.09.2018 23:52 14,1 C 19,4 C 13,3 C 93 % 1012,2 hPa 0,0 l/m 18,4 km/h (3 Bft) SW 230 0 min 0,000 mm 0,0 UV-I 0 W/m 13,0 C 9,0 C 30,6 km/h (5 Bft) 100,00 %
23.09.2018 23:54 14,1 C 19,4 C 13,9 C 93 % 1012,1 hPa 0,0 l/m 21,8 km/h (4 Bft) SW 229 0 min 0,000 mm 0,0 UV-I 0 W/m 13,0 C 8,1 C 33,8 km/h (5 Bft) 97,56 %
23.09.2018 23:56 14,2 C 19,4 C 13,9 C 93 % 1012,0 hPa 0,0 l/m 18,3 km/h (3 Bft) S-SW 211 0 min 0,000 mm 0,0 UV-I 0 W/m 13,1 C 9,2 C 37,0 km/h (5 Bft) 98,11 %
23.09.2018 23:58 14,2 C 19,4 C 13,9 C 93 % 1012,0 hPa 0,0 l/m 23,5 km/h (4 Bft) SW 219 0 min 0,000 mm 0,0 UV-I 0 W/m 13,1 C 7,9 C 32,2 km/h (5 Bft) 100,00 %
_ Min-Zeit 06:30 11:12 03:46 03:46 21:24 - 03:02 - - - - - - 03:46 03:42 03:02 11:50
Minimum _ 11,1 C 19,4 C 11,1 C 82 % 1004,6 hPa - 0,0 km/h (0 Bft) - - - - - - 9,7 C 5,5 C 0,0 km/h (0 Bft) 86,67 %
_ Max-Zeit 17:08 00:00 14:54 12:26 00:00 22:16 03:42 - - 16:39 13:00 12:42 12:44 17:32 17:10 21:50 00:00
Maximum _ 18,9 C 20,6 C 22,8 C 97 % 1020,1 hPa 0,6 l/m 25,1 km/h
W (4 Bft)
- - 3 min 0,127 mm 3,2 UV-I 536 W/m 17,1 C 18,9 C 53,1 km/h
W-NW (7 Bft)
100,00 %
Durchschnitt _ 14,0 C 20,0 C 14,6 C 93 % 1014,1 hPa #14,8 l/m 7,3 km/h (2 Bft) O - #2:44 h #0,965 mm 1,2 UV-I 137 W/m 12,8 C 12,9 C 11,9 km/h (2 Bft) 97,50 %